[[{"header":{"parameterUnit":"m.s-1","parameterCategory":1,"la1":31.0,"la2":29.5877,"lo1":-88.7671,"lo2":-86.6584,"dy":0.0162,"dx":0.0185,"nx":115,"ny":88,"refTime":"2024-05-02T18:00:00:Z","depth":0,"parameterNumber":2,"parameterNumberName":"U-component_of_WINDS"},"data":[0.0,0.0,0.0,0.0,0.0,0.0,0.0,0.0,0.0,0.0,0.0,0.0,0.0,0.0,0.0,0.0,0.0,0.0,0.0,0.0,0.0,0.0,0.0,0.0,0.0,0.0,0.0,0.0,0.0,0.0,0.0,0.0,0.0,0.0,0.0,0.0,0.0,0.0,0.0,0.0,0.0,0.0,0.0,0.0,0.0,0.0,0.0,0.0,0.0,0.0,0.0,0.0,0.0,0.0,0.0,0.0,0.0,0.0,0.0,0.0,0.0,0.0,0.0,0.0,0.0,0.0,0.0,0.0,0.0,0.0,0.0,0.0,0.0,0.0,0.0,0.0,0.0,0.0,0.0,0.0,0.0,0.0,0.0,0.0,0.0,0.0,0.0,0.0,0.0,0.0,0.0,0.0,0.0,0.0,0.0,0.0,0.0,0.0,0.0,0.0,0.0,0.0,0.0,0.0,0.0,0.0,0.0,0.0,0.0,0.0,0.0,0.0,0.0,0.0,0.0,0.0,0.0,0.0,0.0,0.0,0.0,0.0,0.0,0.0,0.0,0.0,0.0,0.0,0.0,0.0,0.0,0.0,0.0,0.0,0.0,0.0,0.0,0.0,0.0,0.0,0.0,0.0,0.0,0.0,0.0,0.0,0.0,0.0,0.0,0.0,0.0,0.0,0.0,0.0,0.0,0.0,0.0,0.0,0.0,0.0,0.0,0.0,0.0,0.0,0.0,0.0,0.0,0.0,0.0,0.0,0.0,0.0,0.0,0.0,0.0,0.0,0.0,0.0,0.0,0.0,0.0,0.0,0.0,0.0,0.0,0.0,0.0,0.0,0.0,0.0,0.0,0.0,0.0,0.0,0.0,0.0,0.0,0.0,0.0,0.0,0.0,0.0,0.0,0.0,0.0,0.0,0.0,0.0,0.0,0.0,0.0,0.0,0.0,0.0,0.0,0.0,0.0,0.0,0.0,0.0,0.0,0.0,0.0,0.0,0.0,0.0,0.0,0.0,0.0,0.0,0.0,0.0,0.0,0.0,0.0,0.0,0.0,0.0,0.0,0.0,0.0,0.0,0.0,0.0,0.0,0.0,0.0,0.0,0.0,0.0,0.0,0.0,0.0,0.0,0.0,0.0,0.0,0.0,0.0,0.0,0.0,0.0,0.0,0.0,0.0,0.0,0.0,0.0,0.0,0.0,0.0,0.0,0.0,0.0,0.0,0.0,0.0,0.0,0.0,0.0,0.0,0.0,0.0,0.0,0.0,0.0,0.0,0.0,0.0,0.0,0.0,0.0,0.0,0.0,0.0,0.0,0.0,0.0,0.0,0.0,0.0,0.0,0.0,0.0,0.0,0.0,0.0,0.0,0.0,0.0,0.0,0.0,0.0,0.0,0.0,0.0,0.0,0.0,0.0,0.0,0.0,0.0,0.0,0.0,0.0,0.0,0.0,0.0,0.0,0.0,0.0,0.0,0.0,0.0,0.0,0.0,0.0,0.0,0.0,0.0,0.0,0.0,0.0,0.0,0.0,0.0,0.0,0.0,0.0,0.0,0.0,0.0,0.0,0.0,0.0,0.0,0.0,0.0,0.0,0.0,0.0,0.0,0.0,0.0,0.0,0.0,0.0,0.0,0.0,0.0,0.0,0.0,0.0,0.0,0.0,0.0,0.0,0.0,0.0,0.0,0.0,0.0,0.0,0.0,0.0,0.0,0.0,0.0,0.0,0.0,0.0,0.0,0.0,0.0,0.0,0.0,0.0,0.0,0.0,0.0,0.0,0.0,0.0,0.0,0.0,0.0,0.0,0.0,0.0,0.0,0.0,0.0,0.0,0.0,0.0,0.0,0.0,0.0,0.0,0.0,0.0,0.0,0.0,0.0,0.0,0.0,0.0,0.0,0.0,0.0,0.0,0.0,0.0,0.0,0.0,0.0,0.0,0.0,0.0,0.0,0.0,0.0,0.0,0.0,0.0,0.0,0.0,0.0,0.0,0.0,0.0,0.0,0.0,0.0,0.0,0.0,0.0,0.0,0.0,0.0,0.0,0.0,0.0,0.0,0.0,0.0,0.0,0.0,0.0,0.0,0.0,0.0,0.0,0.0,0.0,0.0,0.0,0.0,0.0,0.0,0.0,0.0,0.0,0.0,0.0,0.0,0.0,0.0,0.0,0.0,0.0,0.0,0.0,0.0,0.0,0.0,0.0,0.0,0.0,0.0,0.0,0.0,0.0,0.0,0.0,0.0,0.0,0.0,0.0,0.0,0.0,0.0,0.0,0.0,0.0,0.0,0.0,0.0,0.0,0.0,0.0,0.0,0.0,0.0,0.0,0.0,0.0,0.0,0.0,0.0,0.0,0.0,0.0,0.0,0.0,0.0,0.0,0.0,0.0,0.0,0.0,0.0,0.0,0.0,0.0,0.0,0.0,0.0,0.0,0.0,0.0,0.0,0.0,0.0,0.0,0.0,0.0,0.0,0.0,0.0,0.0,0.0,0.0,0.0,0.0,0.0,0.0,0.0,0.0,0.0,0.0,0.0,0.0,0.0,0.0,0.0,0.0,0.0,0.0,0.0,0.0,0.0,0.0,0.0,0.0,0.0,0.0,0.0,0.0,0.0,0.0,0.0,0.0,0.0,0.0,0.0,0.0,0.0,0.0,0.0,0.0,0.0,0.0,0.0,0.0,0.0,0.0,0.0,0.0,0.0,0.0,0.0,0.0,0.0,0.0,0.0,0.0,0.0,0.0,0.0,0.0,0.0,0.0,0.0,0.0,0.0,0.0,0.0,0.0,0.0,0.0,0.0,0.0,0.0,0.0,0.0,0.0,0.0,0.0,0.0,0.0,0.0,0.0,0.0,0.0,0.0,0.0,0.0,0.0,0.0,0.0,0.0,0.0,0.0,0.0,0.0,0.0,0.0,0.0,0.0,0.0,0.0,0.0,0.0,0.0,0.0,0.0,0.0,0.0,0.0,0.0,0.0,0.0,0.0,0.0,0.0,0.0,0.0,0.0,0.0,0.0,0.0,0.0,0.0,0.0,0.0,0.0,0.0,0.0,0.0,0.0,0.0,0.0,0.0,0.0,0.0,0.0,0.0,0.0,0.0,0.0,0.0,0.0,0.0,0.0,0.0,0.0,0.0,0.0,0.0,0.0,0.0,0.0,0.0,0.0,0.0,0.0,0.0,0.0,0.0,0.0,0.0,0.0,0.0,0.0,0.0,0.0,0.0,0.0,0.0,0.0,0.0,0.0,0.0,0.0,0.0,0.0,0.0,0.0,0.0,0.0,0.0,0.0,0.0,0.0,0.0,0.0,0.0,0.0,0.0,0.0,0.0,0.0,0.0,0.0,0.0,0.0,0.0,0.0,0.0,0.0,0.0,0.0,0.0,0.0,0.0,0.0,0.0,0.0,0.0,0.0,0.0,0.0,0.0,0.0,0.0,0.0,0.0,0.0,0.0,0.0,0.0,0.0,0.0,0.0,0.0,0.0,0.0,0.0,0.0,0.0,0.0,0.0,0.0,0.0,0.0,0.0,0.0,0.0,0.0,0.0,0.0,0.0,0.0,0.0,0.0,0.0,0.0,0.0,0.0,0.0,0.0,0.0,0.0,0.0,0.0,0.0,0.0,0.0,0.0,0.0,0.0,0.0,0.0,0.0,0.0,0.0,0.0,0.0,0.0,0.0,0.0,0.0,0.0,0.0,0.0,0.0,0.0,0.0,0.0,0.0,0.0,0.0,0.0,0.0,0.0,0.0,0.0,0.0,0.0,0.0,0.0,0.0,0.0,0.0,0.0,0.0,0.0,0.0,0.0,0.0,0.0,0.0,0.0,0.0,0.0,0.0,0.0,0.0,0.0,0.0,0.0,0.0,0.0,0.0,0.0,0.0,0.0,0.0,0.0,0.0,0.0,0.0,0.0,0.0,0.0,0.0,0.0,0.0,0.0,0.0,0.0,0.0,0.0,0.0,0.0,0.0,0.0,0.0,0.0,0.0,0.0,0.0,0.0,0.0,0.0,0.0,0.0,0.0,0.0,0.0,0.0,0.0,0.0,0.0,0.0,0.0,0.0,0.0,0.0,0.0,0.0,0.0,0.0,0.0,0.0,0.0,0.0,0.0,0.0,0.0,0.0,0.0,0.0,0.0,0.0,0.0,0.0,0.0,0.0,0.0,0.0,0.0,0.0,0.0,0.0,0.0,0.0,0.0,0.0,0.0,0.0,0.0,0.0,0.0,0.0,0.0,0.0,0.0,0.0,0.0,0.0,0.0,0.0,0.0,0.0,-2.1115,0.0,0.0,0.0,0.0,0.0,0.0,0.0,0.0,0.0,0.0,0.0,0.0,0.0,0.0,0.0,0.0,0.0,0.0,0.0,0.0,0.0,0.0,0.0,0.0,0.0,0.0,0.0,0.0,0.0,0.0,0.0,0.0,0.0,0.0,0.0,0.0,0.0,0.0,0.0,0.0,0.0,0.0,0.0,0.0,0.0,0.0,0.0,0.0,0.0,0.0,0.0,0.0,0.0,0.0,0.0,0.0,0.0,0.0,0.0,0.0,0.0,0.0,0.0,0.0,0.0,0.0,0.0,0.0,0.0,0.0,0.0,0.0,0.0,0.0,0.0,0.0,0.0,0.0,0.0,0.0,0.0,0.0,0.0,0.0,0.0,0.0,0.0,0.0,0.0,0.0,0.0,0.0,0.0,0.0,0.0,0.0,0.0,0.0,0.0,0.0,0.0,0.0,0.0,0.0,0.0,0.0,0.0,0.0,0.0,0.0,-2.1692,-2.2043,-2.0469,-1.9942,-2.065,0.0,0.0,0.0,0.0,0.0,0.0,0.0,0.0,0.0,0.0,0.0,0.0,0.0,0.0,0.0,0.0,0.0,0.0,0.0,0.0,0.0,0.0,0.0,0.0,0.0,0.0,0.0,0.0,0.0,0.0,0.0,0.0,0.0,0.0,0.0,0.0,0.0,0.0,0.0,0.0,0.0,0.0,0.0,0.0,0.0,0.0,0.0,0.0,0.0,0.0,0.0,0.0,0.0,0.0,0.0,0.0,0.0,0.0,0.0,0.0,0.0,0.0,0.0,0.0,0.0,0.0,0.0,0.0,0.0,0.0,0.0,0.0,0.0,0.0,0.0,0.0,0.0,0.0,0.0,0.0,0.0,0.0,0.0,0.0,0.0,0.0,0.0,0.0,0.0,0.0,0.0,0.0,0.0,0.0,0.0,0.0,0.0,0.0,0.0,0.0,0.0,0.0,0.0,0.0,0.0,0.0,0.0,0.0,0.0,0.0,0.0,0.0,-2.12,-2.0659,-2.1192,0.0,0.0,0.0,0.0,0.0,0.0,0.0,0.0,0.0,0.0,0.0,0.0,0.0,0.0,0.0,0.0,0.0,0.0,0.0,0.0,0.0,0.0,0.0,0.0,0.0,0.0,0.0,0.0,0.0,0.0,0.0,0.0,0.0,0.0,0.0,0.0,0.0,0.0,0.0,0.0,0.0,0.0,0.0,0.0,0.0,0.0,0.0,0.0,0.0,0.0,0.0,0.0,0.0,0.0,0.0,0.0,0.0,0.0,0.0,0.0,0.0,0.0,0.0,0.0,0.0,0.0,0.0,0.0,0.0,0.0,0.0,0.0,0.0,0.0,0.0,0.0,0.0,0.0,0.0,0.0,0.0,0.0,0.0,0.0,0.0,0.0,0.0,0.0,0.0,0.0,0.0,0.0,0.0,0.0,0.0,0.0,0.0,0.0,0.0,0.0,0.0,0.0,0.0,0.0,0.0,0.0,0.0,0.0,0.0,0.0,-2.2231,-2.5962,-2.5192,0.0,-2.4793,0.0,0.0,0.0,0.0,0.0,0.0,0.0,0.0,0.0,0.0,0.0,0.0,0.0,0.0,0.0,0.0,0.0,0.0,0.0,0.0,0.0,0.0,0.0,0.0,0.0,0.0,0.0,0.0,0.0,0.0,0.0,0.0,0.0,0.0,0.0,0.0,0.0,0.0,0.0,0.0,0.0,0.0,0.0,0.0,0.0,0.0,0.0,0.0,0.0,0.0,0.0,0.0,0.0,0.0,0.0,0.0,0.0,0.0,0.0,0.0,0.0,0.0,0.0,0.0,0.0,0.0,0.0,0.0,0.0,0.0,0.0,0.0,0.0,0.0,0.0,0.0,0.0,0.0,0.0,0.0,0.0,0.0,0.0,0.0,0.0,0.0,0.0,0.0,0.0,0.0,0.0,0.0,0.0,0.0,0.0,0.0,0.0,0.0,0.0,0.0,0.0,0.0,0.0,0.0,0.0,0.0,0.0,0.0,0.0,0.0,-2.4346,-2.6544,-2.6067,-2.5141,0.0,0.0,0.0,0.0,0.0,0.0,0.0,0.0,0.0,0.0,0.0,0.0,0.0,0.0,0.0,0.0,0.0,0.0,0.0,0.0,0.0,0.0,0.0,0.0,0.0,0.0,0.0,0.0,0.0,0.0,0.0,0.0,0.0,0.0,0.0,0.0,0.0,0.0,0.0,0.0,0.0,0.0,0.0,0.0,0.0,0.0,0.0,0.0,0.0,0.0,0.0,0.0,0.0,0.0,0.0,0.0,0.0,0.0,0.0,0.0,0.0,0.0,0.0,0.0,0.0,0.0,0.0,0.0,0.0,0.0,0.0,0.0,0.0,0.0,0.0,0.0,0.0,0.0,0.0,0.0,0.0,0.0,0.0,0.0,0.0,0.0,0.0,0.0,0.0,0.0,0.0,0.0,0.0,0.0,0.0,0.0,0.0,0.0,0.0,0.0,0.0,0.0,0.0,0.0,0.0,0.0,0.0,0.0,0.0,0.0,-2.5423,-2.6308,-2.7495,-2.6497,-2.5062,-2.3378,0.0,0.0,0.0,0.0,0.0,0.0,0.0,0.0,0.0,0.0,0.0,0.0,0.0,0.0,0.0,0.0,0.0,0.0,0.0,0.0,0.0,0.0,0.0,0.0,0.0,0.0,0.0,0.0,0.0,0.0,0.0,0.0,0.0,0.0,0.0,0.0,0.0,0.0,0.0,0.0,0.0,0.0,0.0,0.0,0.0,0.0,0.0,0.0,0.0,0.0,0.0,0.0,0.0,0.0,0.0,0.0,0.0,0.0,0.0,0.0,0.0,0.0,0.0,0.0,0.0,0.0,0.0,0.0,0.0,0.0,0.0,0.0,0.0,0.0,0.0,0.0,0.0,0.0,0.0,0.0,0.0,0.0,0.0,0.0,0.0,0.0,0.0,0.0,0.0,0.0,0.0,0.0,0.0,0.0,0.0,0.0,0.0,0.0,0.0,0.0,0.0,0.0,0.0,0.0,0.0,0.0,0.0,0.0,-3.2936,-2.889,-2.7731,-3.0038,-2.7066,-2.5293,0.0,0.0,0.0,0.0,0.0,0.0,0.0,0.0,0.0,0.0,0.0,0.0,0.0,0.0,0.0,0.0,0.0,0.0,0.0,0.0,0.0,0.0,0.0,0.0,0.0,0.0,0.0,0.0,0.0,0.0,0.0,0.0,0.0,0.0,0.0,0.0,0.0,0.0,0.0,0.0,0.0,0.0,0.0,0.0,0.0,0.0,0.0,0.0,0.0,0.0,0.0,0.0,0.0,0.0,0.0,0.0,0.0,0.0,0.0,0.0,0.0,0.0,0.0,0.0,0.0,0.0,0.0,0.0,0.0,0.0,0.0,0.0,0.0,0.0,0.0,0.0,0.0,0.0,0.0,0.0,0.0,0.0,0.0,0.0,0.0,0.0,0.0,0.0,0.0,0.0,0.0,0.0,0.0,0.0,0.0,0.0,0.0,0.0,0.0,0.0,0.0,0.0,0.0,0.0,0.0,0.0,0.0,0.0,0.0,-2.6741,-2.6659,-2.8082,-3.0962,-2.7817,-2.6238,0.0,0.0,0.0,0.0,0.0,0.0,0.0,0.0,0.0,0.0,0.0,0.0,0.0,0.0,0.0,0.0,0.0,0.0,0.0,0.0,0.0,0.0,0.0,0.0,0.0,0.0,0.0,0.0,0.0,0.0,0.0,0.0,0.0,0.0,0.0,0.0,0.0,0.0,0.0,0.0,0.0,0.0,0.0,0.0,0.0,0.0,0.0,0.0,0.0,0.0,0.0,0.0,0.0,0.0,0.0,0.0,0.0,0.0,0.0,0.0,0.0,0.0,0.0,0.0,0.0,0.0,0.0,0.0,0.0,0.0,0.0,0.0,0.0,0.0,0.0,0.0,0.0,0.0,0.0,0.0,0.0,0.0,0.0,0.0,0.0,0.0,0.0,0.0,0.0,0.0,0.0,0.0,0.0,0.0,0.0,0.0,0.0,0.0,0.0,0.0,0.0,0.0,0.0,0.0,0.0,0.0,0.0,0.0,0.0,-2.5274,0.0,-2.966,-3.066,-2.8009,-2.6079,0.0,0.0,0.0,0.0,0.0,0.0,0.0,0.0,0.0,0.0,0.0,0.0,0.0,0.0,0.0,0.0,0.0,0.0,0.0,0.0,0.0,0.0,0.0,0.0,0.0,0.0,0.0,0.0,0.0,0.0,0.0,0.0,0.0,0.0,0.0,0.0,0.0,0.0,0.0,0.0,0.0,0.0,0.0,0.0,0.0,0.0,0.0,0.0,0.0,0.0,0.0,0.0,0.0,0.0,0.0,0.0,0.0,0.0,0.0,0.0,0.0,0.0,0.0,0.0,0.0,0.0,0.0,0.0,0.0,0.0,0.0,0.0,0.0,0.0,0.0,0.0,0.0,0.0,0.0,0.0,0.0,0.0,0.0,0.0,0.0,0.0,0.0,0.0,0.0,0.0,0.0,0.0,0.0,0.0,0.0,0.0,0.0,0.0,0.0,0.0,0.0,0.0,0.0,0.0,0.0,0.0,0.0,0.0,-2.6125,-3.0077,-3.2506,-3.2205,-2.928,-2.7428,-2.4654,0.0,0.0,0.0,0.0,0.0,0.0,0.0,0.0,0.0,0.0,0.0,0.0,0.0,0.0,0.0,0.0,0.0,0.0,0.0,0.0,0.0,0.0,0.0,0.0,0.0,0.0,0.0,0.0,0.0,0.0,0.0,0.0,0.0,0.0,0.0,0.0,0.0,0.0,0.0,0.0,0.0,0.0,0.0,0.0,0.0,0.0,0.0,0.0,0.0,0.0,0.0,0.0,0.0,0.0,0.0,0.0,0.0,0.0,0.0,0.0,0.0,0.0,0.0,0.0,0.0,0.0,0.0,0.0,0.0,0.0,0.0,0.0,0.0,0.0,0.0,0.0,0.0,0.0,0.0,0.0,0.0,0.0,0.0,0.0,0.0,0.0,0.0,0.0,0.0,0.0,0.0,0.0,0.0,0.0,0.0,0.0,0.0,0.0,0.0,0.0,0.0,0.0,0.0,0.0,0.0,0.0,0.0,0.0,0.0,-2.6125,-2.7967,-3.0121,-3.2282,-2.6428,-2.4697,0.0,0.0,0.0,0.0,0.0,0.0,0.0,0.0,0.0,0.0,0.0,0.0,0.0,0.0,0.0,0.0,0.0,0.0,0.0,0.0,0.0,0.0,0.0,0.0,0.0,0.0,0.0,0.0,0.0,0.0,0.0,0.0,0.0,0.0,0.0,0.0,0.0,0.0,0.0,0.0,0.0,0.0,0.0,0.0,0.0,0.0,0.0,0.0,0.0,0.0,0.0,0.0,0.0,0.0,0.0,0.0,0.0,0.0,0.0,0.0,0.0,0.0,0.0,0.0,0.0,0.0,0.0,0.0,0.0,0.0,0.0,0.0,0.0,0.0,0.0,0.0,0.0,0.0,0.0,0.0,0.0,0.0,0.0,0.0,0.0,0.0,0.0,0.0,0.0,0.0,0.0,0.0,0.0,0.0,0.0,0.0,0.0,0.0,0.0,0.0,0.0,0.0,0.0,0.0,0.0,0.0,0.0,0.0,0.0,-2.7126,-2.8582,-3.0444,-3.2634,-2.716,-2.5313,-2.7543,0.0,0.0,0.0,0.0,0.0,0.0,0.0,0.0,0.0,0.0,0.0,0.0,0.0,0.0,0.0,0.0,0.0,0.0,0.0,0.0,0.0,0.0,0.0,0.0,0.0,0.0,0.0,0.0,0.0,0.0,0.0,0.0,0.0,0.0,0.0,0.0,0.0,0.0,0.0,0.0,0.0,0.0,0.0,0.0,0.0,0.0,0.0,0.0,0.0,0.0,0.0,0.0,0.0,0.0,0.0,0.0,0.0,0.0,0.0,0.0,0.0,0.0,0.0,0.0,0.0,0.0,0.0,0.0,0.0,0.0,0.0,0.0,0.0,0.0,0.0,0.0,0.0,0.0,0.0,0.0,0.0,0.0,0.0,0.0,0.0,0.0,0.0,0.0,0.0,0.0,0.0,0.0,0.0,0.0,0.0,0.0,0.0,0.0,0.0,0.0,0.0,0.0,0.0,0.0,0.0,0.0,0.0,0.0,-3.1852,-3.3468,-3.314,-3.0727,-2.9338,-2.6518,0.0,0.0,0.0,0.0,0.0,0.0,0.0,0.0,0.0,0.0,0.0,0.0,0.0,0.0,0.0,0.0,0.0,0.0,0.0,0.0,0.0,0.0,0.0,0.0,0.0,0.0,0.0,0.0,0.0,0.0,0.0,0.0,0.0,0.0,0.0,0.0,0.0,0.0,0.0,0.0,0.0,0.0,0.0,0.0,0.0,0.0,0.0,0.0,0.0,0.0,0.0,0.0,0.0,0.0,0.0,0.0,0.0,0.0,0.0,0.0,0.0,0.0,0.0,0.0,0.0,0.0,0.0,0.0,0.0,0.0,0.0,0.0,0.0,0.0,0.0,0.0,0.0,0.0,0.0,0.0,0.0,0.0,0.0,0.0,0.0,0.0,0.0,0.0,0.0,0.0,0.0,0.0,0.0,0.0,0.0,0.0,0.0,0.0,0.0,0.0,0.0,0.0,0.0,0.0,0.0,0.0,0.0,0.0,0.0,-3.3513,-3.5161,-3.589,-3.5504,-3.0629,-2.7853,0.0,0.0,0.0,0.0,0.0,0.0,0.0,0.0,0.0,0.0,0.0,0.0,0.0,0.0,0.0,0.0,0.0,0.0,0.0,0.0,0.0,0.0,0.0,0.0,0.0,0.0,0.0,0.0,0.0,0.0,0.0,0.0,0.0,0.0,0.0,0.0,0.0,0.0,0.0,0.0,0.0,0.0,0.0,0.0,0.0,0.0,0.0,0.0,0.0,0.0,0.0,0.0,0.0,0.0,0.0,0.0,0.0,0.0,0.0,0.0,0.0,0.0,0.0,0.0,0.0,0.0,0.0,0.0,0.0,0.0,0.0,0.0,0.0,0.0,0.0,0.0,0.0,0.0,0.0,0.0,0.0,0.0,0.0,0.0,0.0,0.0,0.0,0.0,0.0,0.0,0.0,0.0,0.0,0.0,0.0,0.0,0.0,0.0,0.0,0.0,0.0,0.0,0.0,0.0,0.0,0.0,0.0,0.0,-3.2699,-3.5199,-3.7238,-3.8199,-3.7966,-3.3536,-3.014,0.0,0.0,0.0,0.0,0.0,0.0,0.0,0.0,0.0,0.0,0.0,0.0,0.0,0.0,0.0,0.0,0.0,0.0,0.0,0.0,0.0,0.0,0.0,0.0,0.0,0.0,0.0,0.0,0.0,0.0,0.0,0.0,0.0,0.0,0.0,0.0,0.0,0.0,0.0,0.0,0.0,0.0,0.0,0.0,0.0,0.0,0.0,0.0,0.0,0.0,0.0,0.0,0.0,0.0,0.0,0.0,0.0,0.0,0.0,0.0,0.0,0.0,0.0,0.0,0.0,0.0,0.0,0.0,0.0,0.0,0.0,0.0,0.0,0.0,0.0,0.0,0.0,0.0,0.0,0.0,0.0,0.0,0.0,0.0,0.0,0.0,0.0,0.0,0.0,0.0,0.0,0.0,0.0,0.0,0.0,0.0,0.0,0.0,0.0,0.0,0.0,0.0,0.0,0.0,0.0,0.0,0.0,0.0,-3.4115,-3.6661,-3.9139,-3.9856,-3.8498,-3.657,-3.2513,0.0,0.0,0.0,0.0,0.0,0.0,0.0,0.0,0.0,0.0,0.0,0.0,0.0,0.0,0.0,0.0,0.0,0.0,0.0,0.0,0.0,0.0,0.0,0.0,0.0,0.0,0.0,0.0,0.0,0.0,0.0,0.0,0.0,0.0,0.0,0.0,0.0,0.0,0.0,0.0,0.0,0.0,0.0,0.0,0.0,0.0,0.0,0.0,0.0,0.0,0.0,0.0,0.0,0.0,0.0,0.0,0.0,0.0,0.0,0.0,0.0,0.0,0.0,0.0,0.0,0.0,0.0,0.0,0.0,0.0,0.0,0.0,0.0,0.0,0.0,0.0,0.0,0.0,0.0,0.0,0.0,0.0,0.0,0.0,0.0,0.0,0.0,0.0,0.0,0.0,0.0,0.0,0.0,0.0,0.0,0.0,0.0,0.0,0.0,0.0,0.0,0.0,0.0,0.0,0.0,0.0,0.0,0.0,-3.4122,-3.6654,-3.8984,-3.9661,-3.851,-3.5021,-3.1374,0.0,0.0,0.0,0.0,0.0,0.0,0.0,0.0,0.0,0.0,0.0,0.0,0.0,0.0,0.0,0.0,0.0,0.0,0.0,0.0,0.0,0.0,0.0,0.0,0.0,0.0,0.0,0.0,0.0,0.0,0.0,0.0,0.0,0.0,0.0,0.0,0.0,0.0,0.0,0.0,0.0,0.0,0.0,0.0,0.0,0.0,0.0,0.0,-1.4682,0.0,0.0,0.0,0.0,0.0,0.0,0.0,0.0,0.0,0.0,0.0,0.0,0.0,0.0,0.0,0.0,0.0,0.0,0.0,0.0,0.0,0.0,0.0,0.0,0.0,0.0,0.0,0.0,0.0,0.0,0.0,0.0,0.0,0.0,0.0,0.0,0.0,0.0,0.0,0.0,0.0,0.0,0.0,0.0,0.0,0.0,0.0,0.0,0.0,0.0,0.0,0.0,0.0,0.0,0.0,0.0,0.0,0.0,0.0,-3.4452,-3.7576,-3.8897,-3.9133,-3.8146,-3.3925,-3.0629,0.0,0.0,0.0,0.0,0.0,0.0,0.0,0.0,0.0,0.0,0.0,0.0,0.0,0.0,0.0,0.0,0.0,0.0,0.0,0.0,0.0,0.0,0.0,0.0,0.0,0.0,0.0,0.0,0.0,0.0,0.0,0.0,0.0,0.0,0.0,0.0,0.0,0.0,0.0,0.0,0.0,0.0,0.0,0.0,0.0,0.0,0.0,0.0,0.0,0.0,0.0,0.0,0.0,0.0,0.0,0.0,0.0,0.0,0.0,0.0,0.0,0.0,0.0,0.0,0.0,0.0,0.0,0.0,0.0,0.0,0.0,0.0,0.0,0.0,0.0,0.0,0.0,0.0,0.0,0.0,0.0,0.0,0.0,0.0,0.0,0.0,0.0,0.0,0.0,0.0,0.0,0.0,0.0,0.0,0.0,0.0,0.0,0.0,0.0,0.0,0.0,0.0,0.0,0.0,0.0,0.0,0.0,-3.2167,-3.4711,-3.8432,-3.869,-3.838,-3.758,-3.309,-3.006,-2.8863,0.0,0.0,0.0,0.0,0.0,0.0,0.0,0.0,0.0,0.0,0.0,0.0,0.0,0.0,0.0,0.0,0.0,0.0,0.0,0.0,0.0,0.0,0.0,0.0,0.0,0.0,0.0,0.0,0.0,0.0,0.0,0.0,0.0,0.0,0.0,0.0,0.0,0.0,-1.494,-1.459,0.0,0.0,0.0,0.0,0.0,0.0,0.0,0.0,-1.2863,0.0,0.0,0.0,0.0,0.0,0.0,0.0,0.0,0.0,0.0,0.0,0.0,0.0,0.0,0.0,0.0,0.0,0.0,0.0,0.0,0.0,0.0,0.0,0.0,0.0,0.0,0.0,0.0,0.0,0.0,0.0,0.0,0.0,0.0,0.0,0.0,0.0,0.0,0.0,0.0,0.0,0.0,0.0,0.0,0.0,0.0,0.0,0.0,0.0,0.0,0.0,0.0,0.0,0.0,0.0,0.0,-3.2423,-3.2515,-3.4238,-3.7575,-3.7951,-3.7368,-3.5888,-3.2242,-2.9582,-2.8018,0.0,0.0,0.0,0.0,0.0,0.0,0.0,0.0,0.0,0.0,0.0,0.0,0.0,0.0,0.0,0.0,0.0,0.0,0.0,0.0,0.0,0.0,0.0,0.0,0.0,0.0,0.0,0.0,0.0,0.0,0.0,0.0,0.0,0.0,0.0,0.0,0.0,0.0,0.0,-1.5536,-1.5446,0.0,0.0,0.0,0.0,0.0,0.0,0.0,0.0,-1.2389,0.0,0.0,0.0,0.0,0.0,0.0,0.0,0.0,0.0,0.0,0.0,0.0,0.0,0.0,0.0,0.0,0.0,0.0,0.0,0.0,0.0,0.0,0.0,0.0,0.0,0.0,0.0,0.0,0.0,0.0,0.0,0.0,0.0,0.0,0.0,0.0,0.0,0.0,0.0,0.0,0.0,0.0,0.0,0.0,0.0,0.0,0.0,0.0,0.0,0.0,0.0,0.0,0.0,0.0,0.0,-3.1802,-3.226,-3.3866,-3.6917,-3.6805,-3.5802,-3.3981,-2.9911,-2.753,0.0,0.0,0.0,0.0,0.0,0.0,0.0,0.0,0.0,0.0,0.0,0.0,0.0,0.0,0.0,0.0,0.0,0.0,0.0,0.0,0.0,0.0,0.0,0.0,0.0,0.0,0.0,0.0,0.0,0.0,0.0,0.0,0.0,0.0,0.0,0.0,0.0,0.0,0.0,0.0,-1.5478,-1.5165,-1.3549,0.0,0.0,0.0,0.0,0.0,0.0,-1.33,-1.2011,0.0,0.0,0.0,0.0,0.0,0.0,0.0,0.0,0.0,0.0,0.0,0.0,0.0,0.0,0.0,0.0,0.0,0.0,0.0,0.0,0.0,0.0,0.0,0.0,0.0,0.0,0.0,0.0,0.0,0.0,0.0,0.0,0.0,0.0,0.0,0.0,0.0,0.0,0.0,0.0,0.0,0.0,0.0,0.0,0.0,0.0,0.0,0.0,0.0,0.0,0.0,0.0,0.0,0.0,0.0,-3.0875,-3.1598,-3.335,-3.6273,-3.5591,-3.4266,-3.2351,-2.797,-2.5852,0.0,0.0,0.0,0.0,0.0,0.0,0.0,0.0,0.0,0.0,0.0,0.0,0.0,0.0,0.0,0.0,0.0,0.0,0.0,0.0,0.0,0.0,0.0,0.0,0.0,0.0,0.0,0.0,0.0,0.0,0.0,0.0,0.0,0.0,0.0,0.0,0.0,0.0,0.0,0.0,0.0,-1.5088,-1.3458,-1.3797,0.0,0.0,0.0,0.0,-1.497,-1.3229,0.0,0.0,0.0,0.0,0.0,0.0,0.0,0.0,0.0,0.0,0.0,0.0,0.0,0.0,0.0,0.0,0.0,0.0,0.0,0.0,0.0,0.0,0.0,0.0,0.0,0.0,0.0,0.0,0.0,0.0,0.0,0.0,0.0,0.0,0.0,0.0,0.0,0.0,0.0,0.0,0.0,0.0,0.0,0.0,0.0,0.0,0.0,0.0,0.0,0.0,0.0,0.0,0.0,0.0,0.0,0.0,-3.0007,-3.0518,-3.2277,-3.5417,-3.4559,-3.3235,-3.158,-2.8227,-2.6172,0.0,0.0,0.0,0.0,0.0,0.0,0.0,0.0,0.0,0.0,0.0,0.0,0.0,0.0,0.0,0.0,0.0,0.0,0.0,0.0,0.0,0.0,0.0,0.0,0.0,0.0,0.0,0.0,0.0,0.0,0.0,0.0,0.0,0.0,0.0,0.0,0.0,0.0,0.0,0.0,0.0,-1.6807,-1.5229,-1.5023,-1.4816,0.0,0.0,-1.4085,-1.5038,-1.4179,0.0,0.0,0.0,0.0,0.0,0.0,0.0,0.0,0.0,0.0,0.0,0.0,0.0,0.0,0.0,0.0,0.0,0.0,0.0,0.0,0.0,0.0,0.0,0.0,0.0,0.0,0.0,0.0,0.0,0.0,0.0,0.0,0.0,0.0,0.0,0.0,0.0,0.0,0.0,0.0,0.0,0.0,0.0,0.0,0.0,0.0,0.0,0.0,0.0,0.0,0.0,0.0,0.0,0.0,0.0,-2.5881,-2.8974,-2.9895,-3.1246,-3.3081,-3.3151,-3.1935,-2.9414,-2.5805,-2.4153,0.0,0.0,0.0,0.0,0.0,0.0,0.0,0.0,0.0,0.0,0.0,0.0,0.0,0.0,0.0,0.0,0.0,0.0,0.0,0.0,0.0,0.0,0.0,0.0,0.0,0.0,0.0,0.0,0.0,0.0,0.0,0.0,0.0,0.0,0.0,0.0,0.0,0.0,0.0,0.0,0.0,0.0,-1.5468,-1.5677,0.0,0.0,0.0,-1.4962,-1.5808,0.0,0.0,0.0,0.0,0.0,0.0,0.0,0.0,0.0,0.0,0.0,0.0,0.0,0.0,0.0,0.0,0.0,0.0,0.0,0.0,0.0,0.0,0.0,0.0,0.0,0.0,0.0,0.0,0.0,0.0,0.0,0.0,0.0,0.0,0.0,0.0,0.0,0.0,0.0,0.0,0.0,0.0,0.0,0.0,0.0,0.0,0.0,0.0,0.0,0.0,0.0,0.0,0.0,0.0,0.0,0.0,0.0,-2.8258,-2.9174,-3.0173,-3.136,-3.1604,-3.0454,-2.7824,-2.3906,0.0,0.0,0.0,0.0,0.0,0.0,0.0,0.0,0.0,0.0,0.0,0.0,0.0,0.0,0.0,0.0,0.0,0.0,0.0,0.0,0.0,0.0,0.0,0.0,0.0,0.0,0.0,-1.642,0.0,0.0,0.0,0.0,0.0,0.0,0.0,0.0,0.0,0.0,0.0,0.0,0.0,0.0,-1.6521,-1.5683,-1.5884,-1.5821,0.0,0.0,-1.5316,-1.5744,-1.4429,-1.3387,0.0,0.0,0.0,0.0,0.0,0.0,0.0,0.0,0.0,0.0,0.0,0.0,0.0,0.0,0.0,0.0,0.0,0.0,0.0,0.0,0.0,0.0,0.0,0.0,0.0,0.0,0.0,0.0,0.0,0.0,0.0,0.0,0.0,0.0,0.0,0.0,0.0,0.0,0.0,0.0,0.0,0.0,0.0,0.0,0.0,0.0,0.0,0.0,0.0,0.0,0.0,0.0,0.0,0.0,-2.5465,-2.8014,-2.8001,-2.9072,-3.125,-2.9989,-2.8803,-2.7787,-2.3906,-2.2401,0.0,0.0,0.0,0.0,0.0,0.0,0.0,0.0,0.0,0.0,0.0,0.0,0.0,0.0,0.0,0.0,0.0,0.0,0.0,0.0,0.0,0.0,0.0,0.0,0.0,0.0,0.0,0.0,0.0,0.0,0.0,0.0,0.0,0.0,0.0,0.0,0.0,0.0,0.0,0.0,0.0,-1.7381,-1.6474,-1.5613,-1.4846,0.0,-1.4537,-1.4773,-1.4117,-1.5039,-1.5297,-1.37,0.0,0.0,0.0,0.0,0.0,0.0,0.0,0.0,0.0,0.0,0.0,0.0,0.0,0.0,0.0,0.0,0.0,0.0,0.0,0.0,0.0,0.0,0.0,0.0,0.0,0.0,0.0,0.0,0.0,0.0,0.0,0.0,0.0,0.0,0.0,0.0,0.0,0.0,0.0,0.0,0.0,0.0,0.0,0.0,0.0,0.0,0.0,0.0,0.0,0.0,0.0,0.0,0.0,-2.5234,-2.7307,-2.7659,-2.8484,-2.9831,-2.9317,-2.8363,-2.709,-2.3648,-2.2282,0.0,0.0,0.0,0.0,0.0,0.0,0.0,0.0,0.0,0.0,0.0,0.0,0.0,0.0,0.0,0.0,0.0,0.0,0.0,0.0,0.0,0.0,0.0,0.0,0.0,0.0,0.0,0.0,-1.7157,-1.7075,-1.6843,0.0,0.0,0.0,0.0,0.0,0.0,0.0,0.0,0.0,0.0,-1.6769,-1.6454,-1.606,0.0,0.0,-1.5311,-1.5613,-1.4801,-1.5117,-1.5219,-1.4432,-1.5173,0.0,0.0,0.0,0.0,0.0,0.0,0.0,0.0,0.0,0.0,0.0,0.0,0.0,0.0,0.0,0.0,0.0,0.0,0.0,0.0,0.0,0.0,0.0,0.0,0.0,0.0,0.0,0.0,0.0,0.0,0.0,0.0,0.0,0.0,0.0,0.0,0.0,0.0,0.0,0.0,0.0,0.0,0.0,0.0,0.0,0.0,0.0,0.0,0.0,0.0,0.0,0.0,-2.5085,-2.6792,-2.7211,-2.7824,-2.862,-2.84,-2.7629,-2.6209,-2.3088,-2.1842,0.0,0.0,0.0,0.0,0.0,0.0,0.0,0.0,0.0,0.0,0.0,0.0,0.0,0.0,0.0,0.0,0.0,0.0,0.0,0.0,0.0,0.0,0.0,0.0,0.0,0.0,0.0,0.0,-1.7605,-1.7671,-1.8309,0.0,0.0,0.0,0.0,0.0,0.0,0.0,0.0,0.0,0.0,-1.6582,-1.6335,-1.6269,-1.605,-1.5437,-1.633,-1.6778,-1.5899,-1.596,-1.5987,-1.5626,0.0,0.0,0.0,0.0,0.0,0.0,0.0,0.0,0.0,0.0,0.0,0.0,0.0,0.0,0.0,0.0,0.0,0.0,0.0,0.0,0.0,0.0,0.0,0.0,0.0,0.0,0.0,-2.9481,0.0,0.0,-2.6766,0.0,0.0,0.0,0.0,0.0,0.0,0.0,0.0,0.0,0.0,0.0,0.0,0.0,0.0,0.0,0.0,0.0,0.0,0.0,0.0,0.0,0.0,-2.4997,-2.6576,-2.6649,-2.7016,-2.7798,-2.7053,-2.6282,-2.5411,-2.2235,-2.116,-2.2437,0.0,0.0,0.0,0.0,0.0,0.0,0.0,0.0,0.0,0.0,0.0,0.0,0.0,0.0,0.0,0.0,0.0,0.0,0.0,0.0,0.0,0.0,0.0,0.0,0.0,0.0,-1.8478,-1.797,-1.814,0.0,0.0,0.0,0.0,0.0,0.0,0.0,0.0,0.0,0.0,-1.809,-1.72,-1.6226,-1.6106,-1.6092,-1.6064,-1.7374,-1.8084,-1.7166,-1.7813,-1.8121,0.0,0.0,0.0,0.0,0.0,0.0,0.0,0.0,0.0,0.0,0.0,0.0,0.0,0.0,0.0,0.0,0.0,0.0,0.0,0.0,0.0,0.0,0.0,0.0,0.0,0.0,0.0,-3.205,-3.0987,0.0,0.0,0.0,0.0,0.0,0.0,0.0,0.0,0.0,0.0,0.0,-3.0601,-3.1164,0.0,0.0,0.0,0.0,0.0,0.0,0.0,0.0,0.0,0.0,0.0,0.0,-2.5254,-2.7273,-2.6869,-2.6979,-2.775,-2.7016,-2.6209,-2.5374,-2.3299,-2.2009,-2.1716,0.0,0.0,0.0,0.0,0.0,0.0,0.0,0.0,0.0,0.0,0.0,0.0,0.0,0.0,0.0,0.0,0.0,0.0,0.0,0.0,0.0,0.0,0.0,0.0,0.0,-1.9557,0.0,0.0,0.0,0.0,0.0,0.0,0.0,0.0,0.0,0.0,0.0,-1.9176,-1.8862,-1.7961,-1.7051,-1.6215,-1.6011,-1.6008,0.0,0.0,0.0,0.0,0.0,0.0,0.0,0.0,0.0,0.0,0.0,0.0,0.0,0.0,-1.9301,-1.7744,-1.7068,-1.709,-1.8022,0.0,0.0,0.0,0.0,0.0,0.0,0.0,0.0,0.0,0.0,0.0,0.0,0.0,0.0,-3.4826,0.0,-3.2529,0.0,0.0,0.0,0.0,0.0,0.0,0.0,0.0,-3.306,-3.4174,-3.3903,-3.3844,-3.3403,0.0,-3.2165,-3.0378,0.0,0.0,0.0,0.0,0.0,0.0,0.0,0.0,-2.5805,-2.731,-2.7163,-2.7126,-2.7346,-2.6869,-2.6098,-2.5007,-2.3428,-2.199,-2.0644,-2.0469,-2.0127,0.0,0.0,0.0,0.0,0.0,0.0,0.0,0.0,0.0,0.0,0.0,0.0,0.0,0.0,0.0,0.0,0.0,0.0,0.0,0.0,0.0,0.0,0.0,-1.9455,0.0,0.0,0.0,0.0,0.0,0.0,0.0,0.0,0.0,-1.9914,-1.9516,-1.9111,-1.8783,-1.8063,-1.7336,-1.6607,0.0,0.0,0.0,0.0,0.0,0.0,0.0,-1.9763,-1.8875,-1.9433,-1.9727,-1.9015,-1.908,-1.8999,-1.8236,0.0,0.0,-1.7165,-1.6792,-1.6796,-1.7218,-1.6764,-1.6516,-1.7284,-1.6791,-1.6391,0.0,0.0,0.0,0.0,0.0,0.0,0.0,0.0,-3.6934,-3.7732,0.0,-3.5451,0.0,0.0,0.0,0.0,0.0,-3.4394,0.0,0.0,-3.606,-3.7162,-3.634,-3.4871,-3.4431,-3.5151,-3.5871,-3.4564,-3.1323,-2.6846,0.0,0.0,0.0,0.0,0.0,0.0,-2.6602,-2.6759,-2.742,-2.7383,-2.6675,-2.6602,-2.5831,-2.4207,-2.2648,-2.1053,-1.9505,-1.9891,-1.9659,-1.8661,-2.0781,0.0,0.0,0.0,0.0,0.0,0.0,0.0,0.0,0.0,0.0,0.0,0.0,0.0,0.0,0.0,0.0,0.0,0.0,0.0,0.0,-1.99,0.0,0.0,0.0,0.0,0.0,0.0,0.0,0.0,0.0,0.0,-1.9774,-1.9849,-1.963,-1.8823,0.0,0.0,0.0,0.0,-1.8373,-1.8267,-1.9643,-2.0307,-1.9442,-2.0107,-2.0506,-1.9694,0.0,0.0,-1.8169,-1.7532,-1.7312,-1.7942,-1.7575,-1.6945,-1.6908,-1.7399,-1.7698,-1.7262,-1.6531,-1.6218,-1.643,-1.595,-1.5396,-4.2851,0.0,0.0,0.0,0.0,-4.0995,-4.1757,-4.2831,-4.1452,-4.0217,-3.8974,-3.6685,0.0,0.0,0.0,0.0,0.0,0.0,-3.6229,-3.6207,-3.8248,-3.9108,-3.8888,-3.8982,-3.8542,-3.7646,-3.7015,-3.5462,-3.3083,-3.0664,-2.8995,-2.7948,0.0,0.0,0.0,0.0,-2.6576,-2.818,-2.797,-2.742,-2.6602,-2.6602,-2.5711,-2.3873,-2.2333,-2.1169,-2.0455,-1.9556,-1.9287,-1.9834,-2.0245,0.0,0.0,0.0,0.0,0.0,0.0,0.0,0.0,0.0,0.0,0.0,0.0,0.0,0.0,0.0,0.0,0.0,0.0,0.0,-2.159,-1.6091,-1.4505,0.0,0.0,0.0,0.0,0.0,0.0,0.0,0.0,0.0,-1.9462,-1.9095,-1.9182,0.0,0.0,-1.836,-1.8852,-1.8512,-1.8229,-1.836,-1.8677,0.0,-1.9432,-2.0107,-2.0312,-1.9501,-1.9184,-1.9022,-1.8992,-1.8757,-1.85,-1.8207,-1.839,-1.828,-1.7128,-1.6585,-1.6269,-1.5705,-1.539,-1.5357,-1.5582,-1.5467,-1.5308,-4.7982,-4.5271,-4.3687,-4.342,-4.4081,-4.4286,-4.4745,-4.536,-4.4395,-4.3254,-4.1945,-3.9888,-3.8249,-3.6962,-3.5235,0.0,0.0,0.0,-3.8175,-3.8946,-3.9937,-4.0708,-4.1295,-4.1168,-4.0765,-4.0104,-3.8757,-3.7296,-3.5701,-3.3969,-3.2545,-3.131,0.0,0.0,-2.8264,-2.7603,-2.7714,-2.8484,-2.8374,-2.7739,-2.6649,-2.5988,-2.5022,-2.3732,-2.2468,-2.1688,-2.1312,-2.0044,-1.9517,-1.9942,-1.991,-1.991,0.0,0.0,0.0,0.0,0.0,0.0,0.0,0.0,0.0,0.0,0.0,-2.1898,-2.1543,0.0,0.0,0.0,-2.1579,-2.0454,-1.7332,-1.4872,0.0,0.0,0.0,0.0,0.0,0.0,0.0,-2.0174,-1.9781,-1.9442,-1.9294,-1.8984,-1.9156,-2.0178,-1.9324,-1.883,-1.9494,0.0,-1.8617,-1.8744,-1.8653,-1.8801,-1.939,-1.9789,-1.985,-1.9389,-1.9279,-1.9279,-1.9279,-1.9279,-1.9132,-1.8765,-1.8985,-1.8867,-1.7612,-1.6732,-1.6023,-1.548,-1.5126,-1.5015,-1.5263,-1.5305,-1.5306,-5.2678,-5.2342,-4.8864,-4.7143,-4.6762,-4.744,-4.7183,-4.6214,-4.614,-4.6379,-4.6634,-4.3918,-4.2523,-4.1942,-3.9129,0.0,-3.7933,-3.9402,-4.0524,-4.1279,-4.1279,-4.2066,-4.3404,-4.1919,-4.1589,-4.2249,-4.0602,-3.9449,-3.8611,-3.6665,-3.5473,-3.5001,-3.2556,-3.0641,-2.9379,-2.9807,-2.9379,-2.8044,-2.8656,-2.8216,-2.6602,-2.5014,-2.3996,-2.3653,-2.2864,-2.2275,-2.1907,-2.0941,-2.0062,-1.9371,-1.9711,-1.9341,-1.8087,0.0,0.0,0.0,0.0,0.0,0.0,0.0,0.0,0.0,0.0,0.0,0.0,0.0,0.0,0.0,-2.2162,0.0,-1.1535,-1.6047,0.0,0.0,0.0,-1.9426,-1.9565,-1.9455,-1.9426,-1.9499,0.0,0.0,-1.9315,-1.9279,-1.9383,-1.9548,-1.9427,-1.9383,-1.9622,-1.9464,-1.9279,-1.9257,-1.9286,-1.9279,-1.9294,-1.9323,-1.9352,-1.9315,-1.9279,-1.9279,-1.9279,-1.9279,-1.9279,-1.9242,-1.9279,-1.9058,-1.8317,-1.7532,-1.686,-1.6301,-1.5498,-1.4965,-1.5245,-1.5294,-1.5299,-5.4926,-5.4845,-5.3928,-5.215,-4.9915,-4.9961,-4.9528,-4.8692,-4.8012,-4.6632,-4.4665,-4.3315,-4.2012,-4.0744,-4.0414,-4.0561,-4.1185,-4.1552,-4.2176,-4.291,-4.291,-4.313,-4.3424,-4.247,-4.2139,-4.2159,-4.0246,-3.9203,-3.8969,-3.7872,-3.6767,-3.572,-3.5224,-3.3922,-3.1763,-2.9766,-2.9039,-2.9622,-2.9207,-2.8216,-2.6602,-2.4803,-2.3653,-2.3317,-2.2605,-2.1931,-2.1383,-2.081,-2.0096,-1.9358,-1.9407,-1.944,-1.9399,-1.9356,0.0,0.0,0.0,0.0,0.0,0.0,0.0,0.0,0.0,-2.37,-2.3283,0.0,-2.3744,0.0,-2.2382,-2.1482,-2.0849,-2.0629,0.0,0.0,-2.0988,-2.0731,-2.1979,-2.0988,-2.0474,-2.1151,-2.0629,-2.0005,-1.9389,-1.9279,-1.9331,-1.9339,-1.9346,-1.9551,-2.0171,-1.9714,-1.9279,-1.9279,-1.9279,-1.9279,-1.9279,-1.9279,-1.9279,-1.9279,-1.9279,-1.9279,-1.9279,-1.9279,-1.9279,-1.9279,-1.9279,-1.9205,-1.9022,-1.839,-1.7648,-1.7047,-1.5894,-1.4975,-1.5186,-1.5279,-1.5297,-5.6443,-5.6649,-5.5605,-5.4339,-5.2994,-5.2584,-5.1536,-5.0105,-4.9627,-4.7914,-4.5309,-4.4125,-4.2887,-4.1776,-4.2038,-4.2396,-4.2837,-4.2837,-4.3057,-4.3497,-4.3497,-4.3497,-4.3478,-4.302,-4.2837,-4.2746,-4.0997,-3.9969,-3.9554,-3.8326,-3.7298,-3.6481,-3.5812,-3.4844,-3.3506,-3.0842,-2.9688,-3.0148,-2.8381,-2.7019,-2.6103,-2.4392,-2.3552,-2.3708,-2.3,-2.2563,-2.2438,-2.1984,-2.1241,-2.0191,-2.0385,-2.0427,-2.0162,-1.9933,-2.0174,0.0,0.0,0.0,0.0,0.0,0.0,0.0,0.0,0.0,0.0,0.0,-2.4112,-2.3827,-2.2794,-2.2584,-2.3566,-2.2244,-2.162,-2.2354,-2.1657,-2.1437,-2.2354,-2.1657,-2.1253,-2.1739,-2.1372,-2.0923,-2.0454,-2.0417,-2.0417,-2.0417,-2.0079,-1.9858,-1.9895,-1.9565,-1.9279,-1.9279,-1.9279,-1.9279,-1.9279,-1.9279,-1.9279,-1.9279,-1.9279,-1.9279,-1.9279,-1.9279,-1.9279,-1.9279,-1.9279,-1.9279,-1.9242,-1.8647,-1.7916,-1.7255,-1.6264,-1.5464,-1.5232,-1.525,-1.5278,-5.7389,-5.7657,-5.5632,-5.5036,-5.539,-5.4693,-5.3041,-5.0802,-5.0802,-4.9407,-4.7003,-4.5406,-4.4305,-4.3662,-4.3551,-4.3497,-4.3497,-4.3497,-4.3497,-4.3497,-4.3497,-4.3497,-4.3497,-4.3404,-4.3387,-4.3407,-4.1886,-4.0868,-4.0292,-3.843,-3.7401,-3.7083,-3.5401,-3.4622,-3.4639,-3.2152,-3.0555,-2.9945,-2.7218,-2.5795,-2.576,-2.4237,-2.3765,-2.4378,-2.3601,-2.3348,-2.3761,-2.3358,-2.2546,-2.1304,-2.1707,-2.1591,-2.0697,-2.0639,-2.1092,0.0,-2.1931,0.0,0.0,0.0,0.0,0.0,0.0,0.0,0.0,-2.4199,-2.4199,-2.4199,-2.3272,-2.2795,-2.3125,-2.2428,-2.1996,-2.2106,-2.2033,-2.1996,-2.2106,-2.2033,-2.1959,-2.1959,-2.1959,-2.1886,-2.1592,-2.1629,-2.162,-2.1408,-2.0886,-2.0291,-1.9793,-1.9499,-1.9279,-1.9279,-1.9279,-1.9279,-1.9279,-1.9279,-1.9279,-1.9279,-1.9279,-1.9279,-1.9279,-1.9279,-1.9279,-1.9279,-1.9279,-1.9279,-1.9279,-1.872,-1.8073,-1.7461,-1.6736,-1.6039,-1.536,-1.5234,-1.5268,-5.7478,-5.6983,-5.6539,-5.5683,-5.462,-5.4473,-5.3041,-5.0802,-5.0802,-4.9407,-4.7003,-4.5388,-4.4618,-4.4415,-4.3791,-4.3497,-4.3497,-4.3497,-4.3497,-4.3497,-4.3497,-4.3497,-4.3461,-4.2837,-4.2873,-4.3316,-4.1027,-4.0115,-4.0597,-3.8524,-3.7297,-3.6852,-3.5446,-3.4666,-3.4411,0.0,0.0,0.0,-2.8017,-2.7367,-2.7317,-2.5589,-2.474,-2.4858,-2.3515,0.0,-2.2651,-2.2708,-2.2306,-2.1264,-2.1472,0.0,0.0,0.0,0.0,0.0,0.0,0.0,0.0,0.0,0.0,0.0,-2.4199,-2.4199,-2.4199,-2.4199,-2.4199,-2.4199,-2.3419,-2.3189,-2.3896,-2.3235,-2.3052,-2.3639,-2.3162,-2.3015,-2.3602,-2.3162,-2.2795,-2.2786,-2.2786,-2.2235,-2.1098,-2.0731,-2.0804,-2.0914,-2.0621,-2.0731,-2.1262,-2.016,-1.9352,-1.9279,-1.9279,-1.9279,-1.9279,-1.9279,-1.9279,-1.9279,-1.9279,-1.9279,-1.9279,-1.9279,-1.9279,-1.9279,-1.9279,-1.9279,-1.9279,-1.9168,-1.8809,-1.8191,-1.7543,-1.6672,-1.5323,-1.5124,-1.5237,-5.6843,0.0,-5.5965,-5.5172,0.0,-5.3555,-5.2307,-5.0802,-5.0802,-4.9407,-4.7039,-4.5847,-4.5076,-4.4672,-4.3864,-4.3497,-4.3497,-4.3497,-4.3497,-4.3497,-4.3497,-4.3497,-4.3461,-4.3094,-4.2936,-4.3051,-4.1439,-4.0517,-4.0171,-3.8513,-3.7411,-3.6795,-3.571,-3.4782,-3.3884,-3.1223,-2.9386,-2.838,-2.7653,-2.6891,-2.6145,-2.4898,-2.4313,-2.4476,-2.3332,0.0,0.0,0.0,0.0,0.0,0.0,0.0,0.0,-2.2115,0.0,-2.29,-2.2665,-2.2704,-2.3153,-2.32,-2.334,-2.3664,-2.3847,-2.4016,-2.418,-2.4199,-2.4199,-2.4199,-2.3823,-2.3749,-2.4116,-2.3823,-2.3749,-2.4116,-2.3823,-2.3786,-2.408,-2.3823,-2.3602,-2.3593,-2.3602,-2.3226,-2.2456,-2.2318,-2.2318,-2.2318,-2.1979,-2.1868,-2.2134,-2.096,-1.9785,-1.9389,-1.9279,-1.9279,-1.9279,-1.9279,-1.9315,-1.9279,-1.9279,-1.9279,-1.9279,-1.9279,-1.9279,-1.9279,-1.9279,-1.9279,-1.9279,-1.9279,-1.9081,-1.8393,-1.8,-1.7283,-1.5859,-1.5367,-1.5215,-5.6067,-5.6461,-5.5064,-5.4361,-5.4069,-5.2605,-5.1501,-5.0623,0.0,0.0,0.0,-4.6231,-4.5444,-4.4838,-4.3813,-4.3339,-4.3356,-4.348,-4.3426,-4.3356,-4.3463,-4.3463,-4.3356,-4.3356,-4.3051,-4.2537,-4.1937,-4.1069,-3.9985,-3.857,-3.7618,-3.6941,-3.596,-3.4675,-3.3119,-3.0804,-2.9077,-2.8027,-2.7266,-2.6218,-2.4914,-2.4154,-2.3891,-2.4074,-2.3148,-2.2976,-2.3638,-2.3282,-2.2829,-2.2335,-2.279,-2.2898,-2.2665,-2.2639,-2.2639,-2.2625,-2.2426,-2.2412,-2.2669,-2.2695,-2.2848,-2.3177,-2.3455,-2.3764,-2.4066,-2.4161,-2.4199,-2.4199,-2.4199,-2.4199,-2.4199,-2.4199,-2.4199,-2.4199,-2.4199,-2.4199,-2.4199,-2.4199,-2.4153,-2.4199,-2.4163,-2.4116,-2.3896,-2.3823,-2.3969,-2.3859,-2.3226,-2.3006,-2.2822,-2.1685,-2.0556,-2.0013,-1.9976,-1.9837,-1.9756,-1.9829,-1.9683,-1.9601,-1.9565,-1.9528,-1.9491,-1.9381,-1.9352,-1.9572,-1.9426,-1.9315,-1.9279,-1.9279,-1.9058,-1.8427,-1.8296,-1.7969,-1.6816,-1.591,-1.5411,-5.5718,-5.5676,-5.4846,-5.407,-5.3292,-5.2459,-5.1253,-4.9828,-4.9005,-4.8453,-4.8011,-4.6088,-4.5399,-4.5645,-4.3705,-4.2844,-4.2863,-4.3286,-4.325,-4.2827,-4.3286,-4.325,-4.2808,-4.2808,-4.2482,-4.1916,-4.1296,-4.0943,-4.0574,-3.8809,-3.7855,-3.7516,-3.5656,-3.3931,-3.253,-3.2022,-3.0838,-2.8856,-2.8044,-2.7232,-2.6387,-2.5676,-2.5031,-2.4396,-2.3056,-2.2397,-2.2513,-2.25,-2.2391,-2.2293,-2.2377,-2.2419,-2.2363,-2.2363,-2.2363,-2.2363,-2.2307,-2.2426,-2.2669,-2.2695,-2.2848,-2.3153,-2.3236,-2.3432,-2.3717,-2.4026,-2.4199,-2.4199,-2.4199,-2.4199,-2.4199,-2.4199,-2.419,-2.419,-2.419,-2.4199,-2.418,-2.419,-2.4199,-2.4199,-2.4199,-2.3933,-2.341,-2.3253,-2.329,-2.3226,-2.3226,-2.3043,-2.2942,-2.2216,-2.1629,-2.1482,-2.1454,-2.1454,-2.1262,-2.1408,-2.1016,-2.0437,-2.0303,-2.027,-2.0295,-1.9753,-1.9659,-2.0217,-1.9785,-1.9389,-1.9315,-1.9279,-1.9205,-1.9029,-1.8696,-1.8255,-1.7965,-1.6956,-1.5899,-5.4717,-5.4871,-5.4158,-5.3587,-5.3099,-5.1542,-4.998,-4.8472,-4.7226,-4.7114,-4.7632,-4.6318,-4.5415,-4.4813,-4.3772,-4.2877,-4.2262,-4.3087,-4.3214,-4.2751,-4.325,-4.3214,-4.2713,-4.2693,-4.2221,-4.1318,-4.1024,-4.0549,-3.9805,-3.854,-3.7686,-3.7212,-3.5441,-3.3986,-3.2936,-3.2104,-3.1021,-2.9634,-2.8822,-2.7706,-2.615,-2.5372,-2.4628,-2.3932,-2.2835,-2.2313,-2.2313,-2.2313,-2.2313,-2.2313,-2.2313,-2.2313,-2.2313,-2.2313,-2.2313,-2.2313,-2.2313,-2.2363,-2.246,-2.2473,-2.2541,-2.2712,-2.2857,-2.2996,-2.3141,-2.3621,-2.3996,-2.418,-2.4199,-2.4199,-2.4199,-2.4199,-2.4141,-2.3955,-2.4066,-2.4132,-2.3996,-2.4122,-2.4199,-2.4199,-2.4199,-2.4052,-2.3712,-2.3478,-2.3459,-2.3601,-2.3676,-2.363,-2.363,-2.3355,-2.2767,-2.1996,-2.1776,-2.1776,-2.1804,-2.1653,-2.1362,-2.0971,-2.0761,-2.0751,-2.0807,-2.028,-2.0223,-2.0853,-2.0189,-1.9609,-1.9785,-1.9572,-1.9352,-1.9286,-1.9103,-1.8808,-1.8431,-1.7358,-1.622,-5.3901,-5.4428,-5.3635,-5.3095,-5.2532,-5.0283,-4.8698,-4.7512,-4.6022,-4.5868,-4.6503,-4.576,-4.4741,-4.3895,-4.3372,-4.2569,-4.1825,-4.2676,-4.2902,-4.2596,-4.3051,-4.305,-4.2557,-4.2482,-4.1874,-4.0827,-4.0709,-4.0103,-3.902,-3.8261,-3.7415,-3.6502,-3.534,-3.4303,-3.3423,-3.2273,-3.119,-3.0123,-2.9533,-2.8146,-2.5947,-2.4982,-2.4135,-2.341,-2.2665,-2.2313,-2.2313,-2.2313,-2.2313,-2.2313,-2.2313,-2.2313,-2.2313,-2.2313,-2.2313,-2.2313,-2.2313,-2.2313,-2.2313,-2.2313,-2.2313,-2.2327,-2.2487,-2.2617,-2.2733,-2.3165,-2.3642,-2.4006,-2.4066,-2.4056,-2.4046,-2.3996,-2.3858,-2.3621,-2.3806,-2.3837,-2.3678,-2.3904,-2.4075,-2.4112,-2.4151,-2.418,-2.4092,-2.3858,-2.3749,-2.3852,-2.4026,-2.4066,-2.4112,-2.4141,-2.3639,-2.2804,-2.2326,-2.2355,-2.2246,-2.2088,-2.1814,-2.1554,-2.1252,-2.1231,-2.1258,-2.0836,-2.0698,-2.1306,-2.0523,-1.985,-2.0071,-1.9748,-1.9352,-1.9279,-1.922,-1.9102,-1.8543,-1.7833,-1.6714,-5.3866,-5.4333,-5.3593,-5.2511,-5.1112,-4.8943,-4.79,-4.7488,-4.6092,-4.5136,-4.4589,-4.3206,-4.2845,-4.2878,-4.1786,-4.1186,-4.1024,-4.1647,-4.1958,-4.1958,-4.2482,-4.2442,-4.1916,-4.1874,-4.1286,-4.0303,-4.0204,-3.9806,-3.8996,-3.8227,-3.7178,-3.587,-3.5566,-3.4788,-3.3537,-3.3254,-3.2171,-3.0176,-3.004,-2.889,-2.6657,-2.5218,-2.4169,-2.3424,-2.2699,-2.2313,-2.2381,-2.2313,-2.2313,-2.2313,-2.2313,-2.2313,-2.2313,-2.2313,-2.2313,-2.2313,-2.2313,-2.2313,-2.2313,-2.2313,-2.2313,-2.2313,-2.2321,-2.2453,-2.2656,-2.2772,-2.3069,-2.3577,-2.3742,-2.3774,-2.3742,-2.3511,-2.334,-2.3259,-2.3305,-2.3271,-2.3282,-2.3544,-2.3753,-2.3753,-2.3976,-2.4066,-2.3795,-2.3674,-2.3577,-2.3351,-2.3588,-2.3774,-2.3816,-2.3996,-2.417,-2.3933,-2.3942,-2.3727,-2.3474,-2.3489,-2.2876,-2.2112,-2.1905,-2.1882,-2.1797,-2.1539,-2.1292,-2.1649,-2.0978,-2.0319,-1.9822,-1.9315,-1.9352,-1.9323,-1.9272,-1.9169,-1.8682,-1.844,-1.7898,-5.3396,-5.3182,-5.2811,-5.185,-5.0285,-4.8541,-4.7534,-4.7011,-4.5097,-4.386,-4.3074,-4.2048,-4.1719,-4.1919,-4.1715,-4.1216,-4.0514,-4.1397,-4.1617,-4.134,-4.1895,-4.1853,-4.1296,-4.1251,-4.0827,-4.0129,-4.0113,-3.974,-3.8903,-3.7821,-3.6671,-3.5701,-3.56,-3.5059,-3.41,-3.3626,-3.2713,-3.1427,-3.0548,-2.9431,-2.8096,-2.6606,-2.5439,-2.4729,-2.3985,-2.3628,-2.356,-2.3207,-2.297,-2.2936,-2.253,-2.2313,-2.2313,-2.2313,-2.2313,-2.2313,-2.2313,-2.2482,-2.2902,-2.255,-2.2496,-2.2902,-2.2564,-2.2349,-2.2446,-2.2612,-2.2835,-2.3093,-2.3441,-2.3621,-2.3455,-2.3466,-2.3328,-2.3033,-2.3081,-2.3117,-2.2923,-2.32,-2.3421,-2.3432,-2.3522,-2.3577,-2.3455,-2.3421,-2.3259,-2.3021,-2.3189,-2.3455,-2.3642,-2.3816,-2.3986,-2.4161,-2.4199,-2.4046,-2.3774,-2.3522,-2.3093,-2.2609,-2.2267,-2.2212,-2.2279,-2.2023,-2.1886,-2.2494,-2.1835,-2.1219,-2.0968,-2.0225,-1.9924,-1.9617,-1.9405,-1.9295,-1.8604,-1.8658,-1.8446,-5.3007,-5.2313,-5.1843,-5.1009,-4.9872,-4.8217,-4.7267,-4.6607,-4.4621,-4.32,-4.2252,-4.1711,-4.1271,-4.0976,-4.137,-4.1013,-4.0322,-4.0943,-4.1196,-4.0932,-4.134,-4.1318,-4.0909,-4.0886,-4.0625,-4.0188,-4.0113,-3.974,-3.8903,-3.754,-3.6468,-3.5994,-3.5701,-3.525,-3.4506,-3.3761,-3.3051,-3.2259,-3.1021,-2.9939,-2.8976,-2.7927,-2.6776,-2.5676,-2.4914,-2.4508,-2.4474,-2.4,-2.3695,-2.3695,-2.3173,-2.2801,-2.2632,-2.2598,-2.2516,-2.2313,-2.2313,-2.253,-2.3071,-2.2767,-2.2767,-2.3004,-2.2719,-2.253,-2.2403,-2.2473,-2.2573,-2.2639,-2.3093,-2.3318,-2.3141,-2.3236,-2.3092,-2.2665,-2.2832,-2.2845,-2.2652,-2.286,-2.3069,-2.3069,-2.3189,-2.3153,-2.3069,-2.3007,-2.2832,-2.2665,-2.2848,-2.3117,-2.3421,-2.3566,-2.3806,-2.4016,-2.4046,-2.3976,-2.3742,-2.3455,-2.3081,-2.2746,-2.248,-2.2364,-2.2607,-2.2275,-2.2002,-2.2255,-2.2096,-2.1826,-2.127,-2.0776,-2.0181,-1.9632,-1.939,-1.9403,-1.9073,-1.9016,-1.9145,-5.3028,-5.2136,-5.0737,-5.0017,-4.9809,-4.7739,-4.6811,-4.6583,-4.5094,-4.3667,-4.2388,-4.2185,-4.1467,-4.0248,-4.029,-4.0172,-4.0113,-4.0204,-4.049,-4.0827,-4.0886,-4.0909,-4.0886,-4.0862,-4.0625,-4.0104,-4.0113,-3.974,-3.8937,-3.7608,-3.6795,-3.6694,-3.6028,-3.5284,-3.4573,-3.3863,-3.3051,-3.2361,-3.1562,-3.0465,-2.9213,-2.8942,-2.7791,-2.5913,-2.4932,-2.4609,-2.4575,-2.4508,-2.4474,-2.4474,-2.4338,-2.4034,-2.3444,-2.3342,-2.3038,-2.2496,-2.2361,-2.2347,-2.255,-2.3038,-2.3139,-2.2651,-2.3071,-2.3071,-2.2584,-2.2573,-2.2533,-2.2369,-2.2703,-2.2863,-2.2708,-2.266,-2.248,-2.2377,-2.2349,-2.2363,-2.2349,-2.2594,-2.2695,-2.2759,-2.2947,-2.2972,-2.2746,-2.2487,-2.2432,-2.2385,-2.2546,-2.2759,-2.2898,-2.3294,-2.3599,-2.3674,-2.3696,-2.3721,-2.3642,-2.3328,-2.3033,-2.273,-2.2453,-2.2293,-2.2385,-2.2398,-2.2203,-2.2139,-2.2386,-2.2179,-2.1485,-2.0789,-2.0104,-1.9617,-1.9367,-1.9263,-1.9374,-1.9641,-1.9751,-5.2735,-5.1424,-4.9479,-4.866,-4.846,-4.6835,-4.6109,-4.594,-4.4485,-4.3267,-4.232,-4.1813,-4.1035,-4.0113,-4.0113,-4.0113,-4.0113,-4.0113,-4.0204,-4.0392,-4.0392,-4.0392,-4.0392,-4.0392,-4.0294,-4.0104,-4.0113,-3.974,-3.9039,-3.843,-3.7709,-3.6897,-3.6502,-3.5994,-3.5216,-3.4472,-3.3728,-3.2983,-3.2273,-3.121,-2.977,-2.9247,-2.8349,-2.708,-2.6285,-2.5895,-2.5929,-2.5473,-2.5203,-2.5203,-2.4778,-2.4372,-2.4135,-2.4101,-2.4,-2.3763,-2.3729,-2.3714,-2.3729,-2.3932,-2.4,-2.3763,-2.3932,-2.4,-2.3782,-2.368,-2.3511,-2.3168,-2.3071,-2.2965,-2.2549,-2.25,-2.2473,-2.2335,-2.2313,-2.2313,-2.2341,-2.2371,-2.2419,-2.248,-2.2588,-2.2541,-2.2473,-2.2363,-2.2313,-2.2327,-2.2371,-2.2514,-2.2704,-2.2947,-2.3153,-2.3317,-2.3362,-2.3362,-2.3398,-2.3093,-2.2784,-2.2554,-2.2349,-2.2341,-2.2363,-2.2514,-2.2367,-2.2408,-2.2681,-2.2514,-2.1804,-2.0852,-2.0156,-1.9793,-1.9499,-1.9619,-1.975,-1.9829,-2.0028,-5.2029,-5.0642,-4.8717,-4.7906,-4.7703,-4.6346,-4.5703,-4.5534,-4.4079,-4.2997,-4.2252,-4.1508,-4.0764,-4.018,-4.0113,-4.0113,-4.0113,-4.0113,-4.0113,-4.0113,-4.0113,-4.0113,-4.0113,-4.0113,-4.0113,-4.0113,-4.0113,-3.974,-3.9097,-3.9005,-3.8328,-3.7235,-3.6931,-3.6535,-3.5893,-3.5013,-3.4134,-3.3389,-3.2666,-3.1562,-3.0243,-2.9634,-2.8822,-2.7891,-2.7334,-2.6928,-2.6725,-2.6218,-2.5947,-2.5879,-2.5489,-2.5117,-2.488,-2.4643,-2.4508,-2.4508,-2.4474,-2.4508,-2.4541,-2.4695,-2.4745,-2.4541,-2.4711,-2.4778,-2.4541,-2.4508,-2.4237,-2.3864,-2.3748,-2.3511,-2.3149,-2.2993,-2.2761,-2.2389,-2.2313,-2.2313,-2.2313,-2.253,-2.2665,-2.268,-2.2491,-2.2375,-2.2313,-2.2313,-2.2313,-2.2313,-2.2313,-2.2385,-2.2541,-2.2656,-2.2759,-2.2984,-2.3045,-2.3045,-2.2996,-2.2794,-2.2695,-2.2527,-2.2335,-2.2327,-2.2321,-2.25,-2.2599,-2.2691,-2.2643,-2.2522,-2.1994,-2.1015,-2.0461,-2.0107,-1.9963,-2.0026,-2.0043,-1.9948,-2.0071,-5.0777,-4.9932,-4.8511,-4.777,-4.7466,-4.6177,-4.5635,-4.5365,-4.3984,-4.2929,-4.2219,-4.1474,-4.0696,-4.0214,-4.0113,-4.0113,-4.0113,-4.0113,-4.0113,-4.0113,-4.0113,-4.0113,-4.0113,-4.0113,-4.0113,-4.0113,-4.0113,-3.974,-3.9106,-3.9106,-3.87,-3.7922,-3.7212,-3.6863,-3.6761,-3.5318,-3.4201,-3.3491,-3.2801,-3.1664,-3.0345,-3.0108,-2.9345,-2.8128,-2.7858,-2.7486,-2.6793,-2.6708,-2.659,-2.6623,-2.659,-2.6319,-2.5609,-2.5049,-2.4625,-2.4711,-2.4609,-2.4575,-2.4643,-2.5203,-2.5304,-2.488,-2.5203,-2.5338,-2.4914,-2.4745,-2.4677,-2.4541,-2.4508,-2.444,-2.4271,-2.3793,-2.3183,-2.2448,-2.2415,-2.2448,-2.2448,-2.2936,-2.3391,-2.3241,-2.2801,-2.2395,-2.2327,-2.2313,-2.2313,-2.2313,-2.2313,-2.2327,-2.2377,-2.2514,-2.2643,-2.2682,-2.2695,-2.273,-2.2599,-2.25,-2.2546,-2.2533,-2.2419,-2.2313,-2.2313,-2.2398,-2.2412,-2.2473,-2.2354,-2.2259,-2.2448,-2.1616,-2.1533,-2.1228,-2.0948,-2.0512,-2.0392,-2.0333,-2.0164,-4.9999,-4.9187,-4.7767,-4.6853,-4.6312,-4.5331,-4.4953,-4.4756,-4.3301,-4.2523,-4.2083,-4.1027,-4.0316,-4.0146,-4.0113,-4.0113,-4.0113,-4.0113,-4.0113,-4.0113,-4.0113,-4.0113,-4.0113,-4.0113,-4.0113,-4.0113,-4.0113,-4.0011,-3.9774,-3.974,-3.9377,-3.8633,-3.7922,-3.728,-3.6795,-3.5791,-3.489,-3.4167,-3.3423,-3.2577,-3.1562,-3.0615,-2.9871,-2.9431,-2.8924,-2.8281,-2.7503,-2.6996,-2.6725,-2.6691,-2.6691,-2.659,-2.6353,-2.6116,-2.6031,-2.6031,-2.6031,-2.576,-2.5406,-2.5913,-2.6015,-2.5575,-2.5947,-2.6218,-2.6048,-2.5963,-2.5744,-2.5338,-2.5236,-2.5117,-2.4575,-2.4305,-2.3864,-2.3154,-2.3071,-2.2868,-2.2617,-2.3004,-2.3357,-2.3376,-2.3207,-2.3071,-2.297,-2.2719,-2.2415,-2.2381,-2.2347,-2.2347,-2.2307,-2.2391,-2.2426,-2.2426,-2.2426,-2.248,-2.2426,-2.2398,-2.2426,-2.248,-2.2377,-2.2313,-2.2313,-2.2313,-2.2313,-2.2275,-2.2163,-2.2195,-2.2339,-2.2399,-2.2244,-2.2044,-2.162,-2.1253,-2.0928,-2.081,-2.0706,-4.9763,-4.8511,-4.7293,-4.638,-4.5635,-4.4919,-4.4581,-4.4412,-4.3267,-4.2557,-4.2117,-4.1365,-4.0587,-4.0248,-4.0383,-4.0324,-4.0146,-4.0113,-4.0113,-4.0113,-4.0113,-4.0113,-4.0113,-4.0113,-4.0113,-4.0113,-4.0113,-3.9943,-3.9706,-3.9943,-3.974,-3.9005,-3.8531,-3.7956,-3.7202,-3.6434,-3.5588,-3.4573,-3.3795,-3.3186,-3.251,-3.1258,-3.0514,-3.0412,-2.977,-2.9059,-2.8281,-2.7774,-2.7283,-2.6826,-2.6691,-2.6691,-2.6691,-2.6691,-2.6826,-2.7029,-2.6826,-2.6556,-2.6438,-2.659,-2.6522,-2.6184,-2.642,-2.6657,-2.6691,-2.6691,-2.642,-2.6116,-2.6015,-2.5812,-2.5422,-2.5049,-2.4695,-2.4289,-2.3951,-2.3748,-2.3545,-2.3646,-2.3985,-2.412,-2.4034,-2.3849,-2.3646,-2.3477,-2.297,-2.282,-2.2719,-2.253,-2.2415,-2.2313,-2.2313,-2.2327,-2.2321,-2.2335,-2.2341,-2.2327,-2.2327,-2.2341,-2.2341,-2.2313,-2.2313,-2.2313,-2.2313,-2.2343,-2.2261,-2.2401,-2.2576,-2.2718,-2.2682,-2.2436,-2.2301,-2.2189,-2.195,-2.1659,-2.1493,-4.9799,-4.7872,-4.7158,-4.6447,-4.5669,-4.4993,-4.4682,-4.4479,-4.3707,-4.2997,-4.2455,-4.2185,-4.1433,-4.0553,-4.0832,-4.073,-4.0214,-4.0113,-4.0113,-4.0113,-4.0113,-4.0113,-4.0113,-4.0113,-4.0113,-4.0113,-4.0113,-3.9774,-3.9368,-3.9842,-3.9774,-3.9174,-3.8971,-3.8667,-3.7889,-3.7212,-3.6084,-3.4912,-3.3964,-3.3525,-3.3389,-3.2138,-3.1292,-3.1258,-3.0649,-2.9905,-2.9179,-2.884,-2.8231,-2.7063,-2.7029,-2.7063,-2.6894,-2.6826,-2.7266,-2.7824,-2.7232,-2.7368,-2.7571,-2.7232,-2.686,-2.686,-2.6725,-2.6691,-2.6691,-2.6691,-2.6657,-2.659,-2.659,-2.664,-2.642,-2.6048,-2.5676,-2.5541,-2.4831,-2.4661,-2.5338,-2.4898,-2.4846,-2.5203,-2.4966,-2.4575,-2.4541,-2.444,-2.4034,-2.3646,-2.3444,-2.3173,-2.2699,-2.255,-2.2381,-2.2347,-2.2313,-2.2313,-2.2313,-2.2313,-2.2313,-2.2313,-2.2313,-2.2313,-2.2313,-2.2313,-2.2313,-2.2343,-2.2385,-2.2565,-2.2721,-2.2868,-2.3131,-2.3206,-2.3157,-2.3143,-2.2889,-2.245,-2.2098,-4.8917,-4.7906,-4.7669,-4.6887,-4.5771,-4.5466,-4.5094,-4.4547,-4.3775,-4.3341,-4.3031,-4.2523,-4.1813,-4.1001,-4.1102,-4.0798,-4.0248,-4.0113,-4.0113,-4.0113,-4.0113,-4.0113,-4.0113,-4.0113,-4.0113,-4.0113,-4.0113,-4.0011,-3.9842,-4.0011,-3.9977,-3.9808,-3.9276,-3.8937,-3.8565,-3.7472,-3.666,-3.6051,-3.481,-3.4201,-3.41,-3.3288,-3.2544,-3.2022,-3.1819,-3.1055,-2.9905,-2.9281,-2.8874,-2.8468,-2.84,-2.84,-2.8333,-2.8333,-2.8383,-2.8552,-2.8502,-2.8434,-2.845,-2.7977,-2.7621,-2.7706,-2.7199,-2.6725,-2.6691,-2.6691,-2.6691,-2.6691,-2.6691,-2.6691,-2.6657,-2.6522,-2.642,-2.6251,-2.5406,-2.4948,-2.5439,-2.5473,-2.5406,-2.5541,-2.5439,-2.5338,-2.5236,-2.4898,-2.4508,-2.4305,-2.4169,-2.3898,-2.3241,-2.297,-2.2868,-2.2448,-2.2313,-2.2313,-2.2313,-2.2313,-2.2313,-2.2313,-2.2313,-2.2313,-2.2313,-2.2313,-2.2313,-2.2321,-2.2315,-2.246,-2.2708,-2.2916,-2.3305,-2.3599,-2.3783,-2.3649,-2.3323,-2.2941,-2.2717,-4.8849,-4.7906,-4.7906,-4.7259,-4.621,-4.6177,-4.5906,-4.5432,-4.4722,-4.4181,-4.3876,-4.347,-4.2489,-4.1305,-4.1508,-4.1035,-4.0214,-4.0113,-4.0113,-4.0113,-4.0113,-4.0113,-4.0113,-4.0113,-4.0113,-4.0113,-4.0113,-4.0113,-4.0079,-4.0113,-4.0113,-4.0011,-3.9648,-3.9309,-3.8937,-3.8227,-3.7516,-3.7043,-3.5791,-3.5081,-3.5374,-3.41,-3.3491,-3.3085,-3.2949,-3.2171,-3.1089,-3.033,-2.9754,-2.9382,-2.9111,-2.9077,-2.9247,-2.9077,-2.9145,-2.9382,-2.9213,-2.9077,-2.9281,-2.8755,-2.8416,-2.8416,-2.7927,-2.7757,-2.7656,-2.7402,-2.7165,-2.7181,-2.6894,-2.6725,-2.6776,-2.6962,-2.6996,-2.6691,-2.6184,-2.5913,-2.6066,-2.6082,-2.6048,-2.6082,-2.6082,-2.6048,-2.6048,-2.5625,-2.532,-2.5083,-2.4966,-2.4323,-2.3613,-2.3492,-2.3207,-2.2699,-2.2347,-2.2313,-2.2313,-2.2313,-2.2313,-2.2313,-2.2313,-2.2313,-2.2313,-2.2313,-2.2313,-2.2313,-2.2313,-2.2363,-2.2594,-2.2848,-2.3189,-2.3522,-2.3925,-2.4033,-2.3704,-2.3545,-2.3326,-4.9187,-4.8007,-4.8007,-4.7597,-4.6955,-4.6921,-4.6786,-4.6616,-4.5872,-4.5229,-4.4784,-4.4615,-4.3261,-4.1373,-4.2083,-4.1576,-4.0146,-4.0451,-4.0383,-4.0316,-4.0214,-4.0113,-4.0113,-4.0113,-4.0113,-4.0113,-4.0113,-4.0113,-4.0113,-4.0113,-4.0113,-4.0079,-4.0045,-3.974,-3.93,-3.8971,-3.8599,-3.7855,-3.6535,-3.6028,-3.6118,-3.4878,-3.41,-3.41,-3.3558,-3.3017,-3.2341,-3.1732,-3.1021,-3.0025,-2.9484,-2.9585,-2.9822,-2.945,-2.9585,-3.0006,-2.977,-2.9668,-2.9973,-2.9533,-2.9213,-2.9247,-2.9111,-2.9044,-2.8773,-2.8213,-2.7689,-2.7655,-2.7131,-2.6826,-2.7029,-2.7503,-2.7537,-2.7165,-2.735,-2.735,-2.6996,-2.6759,-2.6725,-2.6809,-2.6759,-2.6691,-2.6691,-2.6657,-2.642,-2.5794,-2.5642,-2.5169,-2.4425,-2.4,-2.3477,-2.2767,-2.2496,-2.2313,-2.2313,-2.2313,-2.2313,-2.2313,-2.2313,-2.2313,-2.2313,-2.2313,-2.2313,-2.2313,-2.2313,-2.2327,-2.2377,-2.2673,-2.3021,-2.3351,-2.3721,-2.3986,-2.4099,-2.4096,-2.3961,-4.9052,-4.8781,-4.8781,-4.8342,-4.7733,-4.7665,-4.7361,-4.6786,-4.6041,-4.5669,-4.5365,-4.4886,-4.3667,-4.2083,-4.2625,-4.2049,-4.0485,-4.106,-4.1542,-4.0899,-4.0316,-4.0146,-4.0113,-4.0113,-4.0113,-4.0113,-4.0113,-4.0113,-4.0113,-4.0113,-4.0113,-4.0113,-4.0113,-4.0045,-3.9808,-3.93,-3.8937,-3.8531,-3.7313,-3.6728,-3.6603,-3.5791,-3.4912,-3.4573,-3.3829,-3.3389,-3.322,-3.3017,-3.2544,-3.1819,-3.1142,-3.0804,-3.0717,-3.0683,-3.0683,-3.0751,-3.0784,-3.0751,-3.0784,-3.0311,-3.0108,-3.0446,-2.9721,-2.9179,-2.945,-2.8552,-2.7959,-2.7689,-2.7165,-2.7097,-2.7553,-2.8281,-2.8247,-2.7875,-2.7756,-2.7858,-2.7519,-2.7097,-2.7029,-2.7266,-2.7063,-2.6691,-2.6725,-2.6691,-2.6556,-2.6454,-2.6251,-2.6015,-2.5338,-2.456,-2.3932,-2.3274,-2.2767,-2.2598,-2.2516,-2.2448,-2.2313,-2.2313,-2.2313,-2.2313,-2.2313,-2.2313,-2.2313,-2.2313,-2.2313,-2.2327,-2.2293,-2.2541,-2.291,-2.32,-2.3533,-2.3847,-2.4134,-2.4357,-2.4442,-4.9018,-4.9018,-4.9018,-4.8781,-4.8477,-4.8409,-4.8206,-4.7665,-4.665,-4.621,-4.5974,-4.5122,-4.391,-4.2828,-4.2828,-4.1982,-4.0967,-4.0959,-4.1035,-4.0595,-4.0248,-4.0113,-4.0113,-4.0113,-4.0113,-4.0113,-4.0113,-4.0113,-4.0113,-4.0113,-4.0113,-4.0113,-4.0113,-4.0113,-4.0113,-3.9706,-3.9571,-3.9343,-3.8454,-3.7709,-3.7246,-3.6569,-3.5791,-3.5047,-3.4336,-3.3931,-3.3897,-3.3503,-3.3085,-3.2611,-3.2307,-3.1867,-3.1312,-3.119,-3.119,-3.119,-3.119,-3.119,-3.1055,-3.0886,-3.0751,-3.1157,-3.0412,-3.033,-3.0161,-2.9413,-2.8939,-2.8703,-2.8315,-2.7977,-2.8349,-2.9059,-2.9059,-2.8653,-2.8669,-2.8838,-2.8703,-2.7943,-2.7334,-2.7655,-2.7452,-2.7063,-2.6894,-2.6725,-2.6691,-2.6556,-2.6556,-2.6285,-2.5744,-2.5033,-2.4643,-2.4034,-2.3308,-2.2902,-2.2801,-2.2632,-2.2347,-2.2313,-2.2313,-2.2313,-2.2313,-2.2313,-2.2313,-2.2313,-2.2313,-2.2313,-2.2349,-2.2594,-2.2784,-2.3141,-2.3488,-2.3806,-2.4066,-2.4238,-2.4303,-4.9018,-4.9018,-4.9018,-4.9018,-4.9018,-4.8984,-4.8951,-4.8748,-4.7428,-4.6684,-4.6481,-4.5229,-4.4113,-4.3436,-4.3031,-4.232,-4.1644,-4.0553,-4.0383,-4.1035,-4.0587,-4.0451,-4.0383,-4.0383,-4.0248,-4.0146,-4.0113,-4.0113,-4.0113,-4.0113,-4.0113,-4.0113,-4.0113,-4.0113,-4.0113,-4.0113,-4.0011,-3.9876,-3.9174,-3.8565,-3.7956,-3.7178,-3.6299,-3.5554,-3.5047,-3.4675,-3.4573,-3.4201,-3.3592,-3.3051,-3.3355,-3.278,-3.1935,-3.1413,-3.1258,-3.1258,-3.119,-3.119,-3.119,-3.1157,-3.1123,-3.119,-3.1157,-3.1123,-3.0954,-3.0412,-2.9973,-2.977,-2.9397,-2.9077,-2.9213,-2.9652,-2.9724,-2.9375,-2.9679,-2.9964,-2.9886,-2.8906,-2.8398,-2.7977,-2.7571,-2.7029,-2.6826,-2.6691,-2.6691,-2.6691,-2.6691,-2.6556,-2.6015,-2.5541,-2.5135,-2.4745,-2.4034,-2.3308,-2.3139,-2.2632,-2.2347,-2.2313,-2.2313,-2.2347,-2.2347,-2.2313,-2.2313,-2.2313,-2.2313,-2.2313,-2.2341,-2.2453,-2.2704,-2.3105,-2.334,-2.361,-2.3858,-2.4141,-2.4199,-4.9018,-4.9018,-4.9018,-4.9018,-4.9018,-4.9018,-4.9018,-4.8748,-4.7428,-4.6786,-4.6583,-4.5263,-4.4147,-4.3673,-4.4045,-4.4039,-4.3058,-4.1365,-4.0967,-4.2016,-4.1542,-4.0933,-4.0899,-4.0865,-4.0654,-4.0248,-4.0113,-4.0113,-4.0113,-4.0113,-4.0028,-4.0087,-4.0113,-4.0113,-4.0003,-4.0113,-4.0113,-4.0045,-3.9445,-3.8971,-3.8497,-3.755,-3.6603,-3.587,-3.5588,-3.5453,-3.5397,-3.5261,-3.4945,-3.4303,-3.4269,-3.3753,-3.2883,-3.2264,-3.1854,-3.1495,-3.1165,-3.1112,-3.1292,-3.119,-3.119,-3.119,-3.119,-3.119,-3.1021,-3.0615,-3.0311,-3.0137,-3.0036,-2.9867,-2.992,-3.0036,-3.0102,-2.9886,-2.9646,-2.9623,-2.9883,-2.9732,-2.924,-2.8731,-2.7805,-2.6996,-2.6962,-2.6826,-2.6691,-2.6691,-2.6691,-2.6691,-2.642,-2.6015,-2.5609,-2.5203,-2.4778,-2.4068,-2.3492,-2.2801,-2.2313,-2.2313,-2.2313,-2.2415,-2.2381,-2.2313,-2.2313,-2.2482,-2.2415,-2.2313,-2.2335,-2.2391,-2.2554,-2.2835,-2.3117,-2.3374,-2.3685,-2.3996,-2.4151,-4.9018,-4.9018,-4.9018,-4.9018,-4.9018,-4.9018,-4.9018,-4.8781,-4.7462,-4.6786,-4.6346,-4.5292,-4.4384,-4.4079,-4.3876,-4.3809,-4.2895,-4.1264,-4.1204,-4.2252,-4.1745,-4.1204,-4.1204,-4.1204,-4.073,-4.0282,-4.0113,-4.0087,-4.0113,-4.0113,-3.9901,-3.9636,-3.985,-3.9901,-3.9688,-3.9901,-4.0028,-3.9952,-3.974,-3.9368,-3.8971,-3.7855,-3.7144,-3.684,-3.64,-3.6231,-3.6084,-3.5325,-3.4862,-3.4389,-3.4136,-3.3463,-3.2779,-3.2436,-3.2376,-3.2148,-3.1402,-3.1133,-3.1503,-3.1461,-3.119,-3.119,-3.119,-3.119,-3.1123,-3.092,-3.0649,-3.0572,-3.0282,-3.0202,-3.0162,-2.9985,-2.9825,-2.981,-2.9666,-2.9708,-2.9799,-2.9948,-2.9671,-2.9197,-2.859,-2.7888,-2.73,-2.7097,-2.6793,-2.6691,-2.6725,-2.6691,-2.6691,-2.642,-2.6015,-2.5744,-2.5286,-2.4508,-2.3831,-2.3173,-2.2685,-2.2617,-2.2584,-2.2651,-2.2584,-2.2598,-2.2733,-2.2902,-2.2733,-2.2347,-2.2327,-2.2335,-2.2473,-2.2625,-2.2848,-2.3141,-2.3544,-2.3827,-2.4006,-4.9018,-4.9018,-4.9018,-4.9018,-4.9018,-4.9018,-4.9018,-4.8714,-4.7428,-4.6786,-4.6583,-4.5326,-4.4581,-4.435,-4.3809,-4.32,-4.2584,-4.1196,-4.1339,-4.2185,-4.1677,-4.1204,-4.1204,-4.1136,-4.0832,-4.0189,-3.9799,-3.9952,-4.0003,-3.985,-3.9532,-3.9428,-3.9747,-3.9636,-3.9394,-3.961,-3.9901,-4.0087,-4.0079,-3.9706,-3.9029,-3.8464,-3.8024,-3.7855,-3.7178,-3.6761,-3.658,-3.5582,-3.4849,-3.443,-3.3998,-3.329,-3.2209,-3.2165,-3.2668,-3.2984,-3.1572,-3.1383,-3.1553,-3.161,-3.1314,-3.1528,-3.1314,-3.1272,-3.136,-3.1292,-3.1064,-3.0958,-3.0608,-3.018,-2.9987,-2.9553,-2.9384,-2.9464,-2.9674,-2.9838,-2.9654,-2.965,-2.9671,-2.9363,-2.914,-2.874,-2.8055,-2.7486,-2.7215,-2.6996,-2.6996,-2.6691,-2.6691,-2.6691,-2.642,-2.6218,-2.571,-2.488,-2.4203,-2.368,-2.3342,-2.3308,-2.3274,-2.3274,-2.3105,-2.2936,-2.3038,-2.3004,-2.2665,-2.2313,-2.2313,-2.2327,-2.2385,-2.2514,-2.2639,-2.291,-2.3317,-2.3664,-2.3878,-4.9018,-4.9018,-4.9018,-4.9018,-4.9018,-4.9018,-4.8984,-4.8781,-4.7428,-4.6786,-4.6616,-4.5326,-4.4581,-4.4412,-4.3775,-4.3775,-4.3436,-4.2117,-4.1745,-4.2794,-4.1847,-4.1204,-4.1204,-4.1204,-4.0764,-4.0113,-3.942,-3.9532,-3.9662,-3.9342,-3.9315,-3.9368,-3.8695,-3.8557,-3.9262,-3.9129,-3.942,-3.9927,-4.0087,-3.9774,-3.9199,-3.8962,-3.8565,-3.799,-3.7381,-3.7032,-3.6952,-3.6031,-3.52,-3.466,-3.4488,-3.4038,-3.3316,-3.2222,-3.2556,-3.2773,-3.2288,-3.1366,-3.1569,-3.1438,-3.1571,-3.1845,-3.1654,-3.1672,-3.1651,-3.1443,-3.0999,-3.0435,-3.0267,-2.9957,-2.9496,-2.895,-2.8982,-2.8973,-2.9019,-2.918,-2.9184,-2.9456,-2.9502,-2.9372,-2.9127,-2.9098,-2.8766,-2.8189,-2.7655,-2.7418,-2.7199,-2.6911,-2.6691,-2.6691,-2.6691,-2.6454,-2.6048,-2.5203,-2.4711,-2.4154,-2.3917,-2.3932,-2.3898,-2.3831,-2.3594,-2.3308,-2.2902,-2.2835,-2.2482,-2.2415,-2.2516,-2.253,-2.2389,-2.2419,-2.2514,-2.2819,-2.3153,-2.3466,-2.3753,-4.9018,-4.9018,-4.9018,-4.9018,-4.9018,-4.9018,-4.8748,-4.8206,-4.7293,-4.6549,-4.6041,-4.5089,-4.4581,-4.4445,-4.3775,-4.3842,-4.3944,-4.2286,-4.2049,-4.2834,-4.2016,-4.1238,-4.1204,-4.117,-4.0798,-4.0019,-3.9368,-3.9043,-3.9129,-3.8663,-3.8358,-3.8101,-3.7933,-3.7732,-3.8497,-3.8302,-3.8718,-3.9289,-3.9791,-3.9918,-3.9706,-3.958,-3.9445,-3.9106,-3.8338,-3.8024,-3.7643,-3.639,-3.5618,-3.4975,-3.4303,-3.3291,-3.2835,-3.2132,-3.1857,-3.2143,-3.1859,-3.1649,-3.1922,-3.1598,-3.1783,-3.2151,-3.2045,-3.1898,-3.1816,-3.1495,-3.0853,-2.9881,-2.9473,-2.9189,-2.8912,-2.8343,-2.8247,-2.8271,-2.8439,-2.8415,-2.8622,-2.918,-2.9355,-2.9224,-2.9096,-2.9069,-2.9052,-2.8767,-2.8196,-2.7785,-2.7448,-2.7044,-2.6826,-2.6691,-2.6691,-2.6657,-2.615,-2.5507,-2.5169,-2.4763,-2.444,-2.4372,-2.4338,-2.4271,-2.4034,-2.3729,-2.341,-2.297,-2.2651,-2.2665,-2.2801,-2.2598,-2.2375,-2.2363,-2.2385,-2.2725,-2.2996,-2.3236,-2.3555,-4.9018,-4.9018,-4.9018,-4.9018,-4.9018,-4.9018,-4.8578,-4.7838,-4.7124,-4.638,-4.5669,-4.4959,-4.4581,-4.4513,-4.4079,-4.4079,-4.4445,-4.2591,-4.2557,-4.2625,-4.2049,-4.1305,-4.1102,-4.1035,-4.0492,-3.9799,-3.8881,-3.8469,-3.8048,-3.7645,-3.7024,-3.6843,-3.7055,-3.7235,-3.7144,-3.7352,-3.7876,-3.858,-3.9102,-3.9315,-3.9361,-3.9603,-3.9551,-3.9368,-3.9186,-3.8897,-3.8439,-3.7044,-3.6023,-3.5322,-3.4203,-3.3326,-3.2854,-3.2344,-3.1896,-3.1981,-3.171,-3.1658,-3.1814,-3.1722,-3.1836,-3.22,-3.2369,-3.2079,-3.1514,-3.1373,-3.1027,-2.9934,-2.9289,-2.89,-2.8443,-2.8011,-2.781,-2.7885,-2.8008,-2.786,-2.7805,-2.8408,-2.874,-2.8584,-2.86,-2.8979,-2.8984,-2.9108,-2.8766,-2.8241,-2.776,-2.7222,-2.6924,-2.6707,-2.6759,-2.6793,-2.6488,-2.6015,-2.5812,-2.5489,-2.5117,-2.4914,-2.4914,-2.4812,-2.4677,-2.4425,-2.4188,-2.3646,-2.3004,-2.3173,-2.3492,-2.2902,-2.2361,-2.2573,-2.2759,-2.2697,-2.2857,-2.3117,-2.3466,-4.9018,-4.9018,-4.9018,-4.9018,-4.9018,-4.9018,-4.8578,-4.7736,-4.709,-4.6346,-4.5568,-4.4959,-4.4581,-4.4547,-4.4513,-4.4445,-4.4547,-4.3639,-4.3341,-4.2834,-4.1989,-4.1305,-4.1009,-4.05,-3.9796,-3.9049,-3.8274,-3.7499,-3.6874,-3.6446,-3.6723,-3.7413,-3.6476,-3.6784,-3.6965,-3.6995,-3.7235,-3.779,-3.8161,-3.825,-3.8358,-3.858,-3.869,-3.8394,-3.8612,-3.8665,-3.7932,-3.7065,-3.6341,-3.5828,-3.4674,-3.3908,-3.3396,-3.2796,-3.2437,-3.2198,-3.1869,-3.1742,-3.166,-3.1647,-3.1885,-3.2305,-3.2532,-3.2288,-3.1542,-3.1422,-3.1019,-3.0335,-2.9539,-2.9128,-2.8642,-2.8064,-2.7824,-2.7785,-2.7911,-2.771,-2.766,-2.7685,-2.7953,-2.7885,-2.8082,-2.8439,-2.8599,-2.8631,-2.8818,-2.8378,-2.7486,-2.6924,-2.6829,-2.6676,-2.684,-2.6843,-2.6742,-2.6556,-2.659,-2.6285,-2.5963,-2.5895,-2.5895,-2.5676,-2.5439,-2.5169,-2.4797,-2.4271,-2.3729,-2.3966,-2.4034,-2.3511,-2.3139,-2.3105,-2.3037,-2.2733,-2.2857,-2.3224,-2.3566,-4.9018,-4.9018,-4.9018,-4.9018,-4.9018,-4.9018,-4.8342,-4.7293,-4.6921,-4.6109,-4.5026,-4.4716,-4.4581,-4.4581,-4.4581,-4.4581,-4.4479,-4.3775,-4.3538,-4.2929,-4.2083,-4.1339,-4.083,-4.0146,-3.9183,-3.8663,-3.7761,-3.6994,-3.66,-3.5847,-3.5782,-3.6005,-3.5782,-3.5878,-3.6164,-3.6538,-3.6844,-3.7086,-3.7499,-3.7793,-3.7879,-3.7962,-3.8076,-3.793,-3.8499,-3.8486,-3.7908,-3.757,-3.6965,-3.6142,-3.5123,-3.4515,-3.4086,-3.3485,-3.2976,-3.2587,-3.2198,-3.1899,-3.154,-3.1524,-3.1805,-3.2466,-3.2846,-3.2692,-3.1595,-3.1507,-3.0897,-3.0261,-2.9807,-2.9441,-2.9218,-2.8663,-2.8218,-2.8124,-2.7944,-2.7735,-2.7585,-2.7585,-2.761,-2.771,-2.7735,-2.791,-2.8002,-2.8088,-2.8323,-2.8383,-2.7465,-2.6698,-2.6652,-2.662,-2.6781,-2.6647,-2.65,-2.6504,-2.6471,-2.659,-2.6674,-2.6674,-2.6657,-2.6319,-2.5897,-2.5592,-2.5203,-2.4745,-2.4474,-2.4643,-2.4541,-2.412,-2.3816,-2.3545,-2.3061,-2.2528,-2.2841,-2.3271,-2.3588,-4.8883,-4.868,-4.868,-4.868,-4.868,-4.868,-4.7834,-4.665,-4.6718,-4.6143,-4.4919,-4.475,-4.4581,-4.4581,-4.4581,-4.4581,-4.4479,-4.4079,-4.3876,-4.3369,-4.2658,-4.1948,-4.1271,-4.0334,-3.9281,-3.8618,-3.7472,-3.66,-3.6538,-3.5846,-3.5878,-3.5878,-3.5619,-3.5587,-3.5683,-3.5943,-3.6259,-3.6477,-3.6753,-3.7115,-3.7055,-3.7324,-3.7205,-3.7354,-3.8096,-3.8209,-3.7697,-3.7311,-3.7135,-3.6382,-3.5582,-3.4928,-3.4593,-3.4143,-3.3484,-3.3006,-3.2587,-3.2198,-3.172,-3.1538,-3.1739,-3.2188,-3.2485,-3.2261,-3.1852,-3.1566,-3.1083,-3.0536,-3.0128,-2.9834,-2.9804,-2.9295,-2.8697,-2.8517,-2.8278,-2.8064,-2.7705,-2.7585,-2.7585,-2.761,-2.7635,-2.766,-2.771,-2.7805,-2.7734,-2.8144,-2.8325,-2.7359,-2.6556,-2.6587,-2.6737,-2.6484,-2.6104,-2.6134,-2.6228,-2.6329,-2.6449,-2.6453,-2.6454,-2.6488,-2.6184,-2.5948,-2.5847,-2.5642,-2.5455,-2.5388,-2.5101,-2.4763,-2.4338,-2.3864,-2.3231,-2.2575,-2.2691,-2.3117,-2.3455,-4.8578,-4.7939,-4.7906,-4.7906,-4.7838,-4.7906,-4.7128,-4.6181,-4.6359,-4.6152,-4.537,-4.4829,-4.4559,-4.4587,-4.4581,-4.4581,-4.4581,-4.4513,-4.4445,-4.4113,-4.3069,-4.3084,-4.2143,-4.0779,-3.8893,-3.8528,-3.734,-3.6415,-3.6569,-3.5846,-3.591,-3.6038,-3.575,-3.5489,-3.5489,-3.5489,-3.5522,-3.5554,-3.5683,-3.5812,-3.5973,-3.6384,-3.629,-3.6415,-3.744,-3.7703,-3.6965,-3.6995,-3.6844,-3.6291,-3.5755,-3.5312,-3.522,-3.4771,-3.4173,-3.3544,-3.2976,-3.2318,-3.163,-3.154,-3.1567,-3.1653,-3.1992,-3.1762,-3.1564,-3.1477,-3.1474,-3.0943,-3.0763,-3.0522,-3.0283,-2.9924,-2.9355,-2.8996,-2.8786,-2.8338,-2.8008,-2.7884,-2.7944,-2.7675,-2.7585,-2.7585,-2.7585,-2.755,-2.7305,-2.7666,-2.8606,-2.8131,-2.6869,-2.6659,-2.6839,-2.6575,-2.6218,-2.6461,-2.6531,-2.6221,-2.6176,-2.6203,-2.6374,-2.6629,-2.6687,-2.6588,-2.6488,-2.6438,-2.6184,-2.5879,-2.5692,-2.5489,-2.4982,-2.4406,-2.3342,-2.2779,-2.2851,-2.3077,-2.3531,-4.8139,-4.7838,-4.7394,-4.6887,-4.6549,-4.6989,-4.7124,-4.6903,-4.5872,-4.5135,-4.4822,-4.4131,-4.4121,-4.4412,-4.4525,-4.4525,-4.4587,-4.4581,-4.4581,-4.4361,-4.2959,-4.2094,-4.1229,-3.9735,-3.8139,-3.7654,-3.6689,-3.6246,-3.6511,-3.5827,-3.5649,-3.5718,-3.5686,-3.5522,-3.5489,-3.5489,-3.5489,-3.5489,-3.5522,-3.5522,-3.5522,-3.575,-3.5814,-3.5554,-3.6753,-3.6844,-3.6101,-3.6446,-3.6446,-3.607,-3.5554,-3.5522,-3.5489,-3.51,-3.4801,-3.4324,-3.3754,-3.3275,-3.2378,-3.1839,-3.1511,-3.1511,-3.1511,-3.1511,-3.1511,-3.1511,-3.1481,-3.1481,-3.1271,-3.1062,-3.1062,-3.0552,-3.0043,-2.9834,-2.9475,-2.8816,-2.8427,-2.8513,-2.8453,-2.7884,-2.7585,-2.7585,-2.7585,-2.7585,-2.7375,-2.7315,-2.8124,-2.7895,-2.6815,-2.6926,-2.7123,-2.6796,-2.6598,-2.686,-2.6938,-2.6496,-2.6562,-2.6853,-2.701,-2.7179,-2.7197,-2.709,-2.7123,-2.7044,-2.6708,-2.6353,-2.615,-2.5913,-2.5541,-2.4898,-2.4188,-2.3628,-2.3642,-2.3788,-2.3989,-4.7767,-4.7462,-4.6718,-4.6143,-4.5805,-4.621,-4.6718,-4.6705,-4.5003,-4.4364,-4.4611,-4.3575,-4.332,-4.3885,-4.415,-4.415,-4.415,-4.4121,-4.4121,-4.3901,-4.2433,-4.1645,-4.0488,-3.8901,-3.8372,-3.7584,-3.6734,-3.622,-3.6825,-3.5952,-3.5614,-3.5554,-3.5489,-3.5489,-3.5489,-3.5489,-3.5489,-3.5489,-3.5489,-3.5489,-3.5489,-3.5554,-3.5522,-3.5619,-3.5911,-3.6006,-3.5782,-3.5846,-3.6038,-3.5651,-3.5489,-3.5489,-3.5489,-3.5429,-3.516,-3.4713,-3.3904,-3.3484,-3.2856,-3.1899,-3.169,-3.1899,-3.166,-3.1511,-3.1511,-3.1511,-3.1511,-3.1511,-3.1511,-3.1481,-3.1391,-3.0881,-3.0702,-3.0462,-3.0073,-2.9388,-2.8996,-2.9052,-2.8723,-2.8154,-2.7705,-2.7675,-2.7585,-2.7585,-2.7525,-2.7555,-2.7635,-2.7255,-2.6931,-2.7085,-2.7187,-2.6926,-2.6554,-2.6548,-2.6692,-2.6661,-2.6883,-2.7407,-2.7495,-2.7476,-2.7525,-2.7373,-2.7548,-2.7563,-2.6995,-2.659,-2.6556,-2.6319,-2.6048,-2.5879,-2.5575,-2.5083,-2.4659,-2.4569,-2.4585,-4.7394,-4.6684,-4.5974,-4.5669,-4.5669,-4.5669,-4.5674,-4.552,-4.4049,-4.4175,-4.524,-4.2871,-4.2583,-4.3139,-4.3259,-4.3259,-4.3259,-4.3259,-4.3161,-4.2886,-4.1846,-4.1307,-4.0547,-3.9529,-3.8635,-3.8067,-3.7342,-3.6592,-3.7274,-3.6148,-3.5519,-3.5489,-3.5489,-3.5489,-3.5489,-3.5489,-3.5489,-3.5489,-3.5489,-3.5489,-3.5489,-3.5489,-3.5489,-3.5554,-3.5619,-3.5621,-3.5554,-3.5619,-3.5619,-3.5489,-3.5489,-3.5489,-3.5489,-3.5489,-3.507,-3.4442,-3.3455,-3.3335,-3.3305,-3.2407,-3.2138,-3.2378,-3.2049,-3.172,-3.1511,-3.1511,-3.1511,-3.1511,-3.1511,-3.1511,-3.1421,-3.1271,-3.1152,-3.0883,-3.0672,-3.0133,-2.9624,-2.9325,-2.8966,-2.8487,-2.8034,-2.7824,-2.7645,-2.7585,-2.7735,-2.7585,-2.7585,-2.7555,-2.7255,-2.7046,-2.7085,-2.6995,-2.6566,-2.6103,-2.6275,-2.6871,-2.7159,-2.7703,-2.7491,-2.7438,-2.7524,-2.763,-2.758,-2.7441,-2.706,-2.686,-2.6962,-2.686,-2.6657,-2.6522,-2.642,-2.5997,-2.5404,-2.5187,-2.5192,-4.621,-4.594,-4.5229,-4.4919,-4.4919,-4.4891,-4.4572,-4.3983,-4.3941,-4.392,-4.3,-4.2365,-4.2141,-4.2363,-4.2395,-4.2363,-4.2395,-4.233,-4.2007,-4.1533,-4.0862,-4.0068,-3.9334,-3.8683,-3.8341,-3.796,-3.7372,-3.6854,-3.6984,-3.6118,-3.5519,-3.5489,-3.5489,-3.5489,-3.5489,-3.5489,-3.5489,-3.5489,-3.5489,-3.5489,-3.5489,-3.5489,-3.5489,-3.5489,-3.5489,-3.5489,-3.5489,-3.5489,-3.5489,-3.5489,-3.5489,-3.5489,-3.5489,-3.5489,-3.531,-3.519,-3.4472,-3.4054,-3.4054,-3.3395,-3.2976,-3.3095,-3.2946,-3.2288,-3.1869,-3.16,-3.16,-3.163,-3.154,-3.1511,-3.1511,-3.1421,-3.1361,-3.1212,-3.1002,-3.0733,-3.0283,-2.9924,-2.9564,-2.9026,-2.8573,-2.8244,-2.8004,-2.7854,-2.7944,-2.7735,-2.7615,-2.7645,-2.7525,-2.7285,-2.7165,-2.7051,-2.7016,-2.6675,-2.7055,-2.7622,-2.7718,-2.7867,-2.7643,-2.7581,-2.7897,-2.7924,-2.7685,-2.7495,-2.7374,-2.74,-2.7486,-2.7368,-2.7266,-2.7165,-2.7063,-2.6623,-2.6215,-2.5994,-2.5868,-4.5703,-4.5602,-4.4891,-4.4581,-4.4581,-4.4581,-4.4093,-4.3512,-4.3814,-4.3346,-4.249,-4.1756,-4.1495,-4.1399,-4.1242,-4.1179,-4.1463,-4.0799,-4.0483,-4.0447,-3.9665,-3.8685,-3.798,-3.8047,-3.7992,-3.7644,-3.7255,-3.6959,-3.6806,-3.6148,-3.5489,-3.5489,-3.5489,-3.5489,-3.5489,-3.5489,-3.5489,-3.5489,-3.5489,-3.5489,-3.5489,-3.5489,-3.5489,-3.5489,-3.5489,-3.5489,-3.5489,-3.5489,-3.5489,-3.5489,-3.5489,-3.5489,-3.5489,-3.5489,-3.5489,-3.531,-3.4833,-3.4653,-3.4683,-3.3933,-3.3754,-3.3724,-3.3664,-3.3095,-3.2587,-3.2228,-3.2079,-3.1959,-3.169,-3.1511,-3.1511,-3.1481,-3.1481,-3.1481,-3.1391,-3.1301,-3.0972,-3.0642,-3.0163,-2.9624,-2.9205,-2.8873,-2.8603,-2.8423,-2.8274,-2.8158,-2.8034,-2.7884,-2.7764,-2.7495,-2.7435,-2.7405,-2.746,-2.745,-2.7835,-2.7934,-2.7862,-2.7765,-2.7692,-2.7771,-2.8151,-2.8067,-2.77,-2.7722,-2.7888,-2.8019,-2.8213,-2.8044,-2.7927,-2.7875,-2.7943,-2.7706,-2.7267,-2.6706,-2.6702,-4.5602,-4.5534,-4.4886,-4.4497,-4.4468,-4.4525,-4.4093,-4.335,-4.3376,-4.3196,-4.2707,-4.1495,-4.086,-4.0628,-4.0186,-4.0217,-4.0248,-3.9784,-3.9537,-3.9632,-3.9169,-3.8245,-3.785,-3.8272,-3.8153,-3.7375,-3.6896,-3.6956,-3.6357,-3.5818,-3.5489,-3.5489,-3.5489,-3.5489,-3.5489,-3.5489,-3.5489,-3.5489,-3.5489,-3.5489,-3.5489,-3.5489,-3.5489,-3.5489,-3.5489,-3.5489,-3.5489,-3.5489,-3.5489,-3.5489,-3.5489,-3.5489,-3.5489,-3.5489,-3.5489,-3.54,-3.4981,-3.504,-3.5011,-3.4502,-3.4322,-3.4203,-3.4023,-3.3873,-3.3574,-3.2916,-3.2647,-3.2557,-3.2348,-3.2198,-3.2198,-3.1959,-3.1839,-3.175,-3.16,-3.1481,-3.1271,-3.0943,-3.0582,-3.0103,-2.9804,-2.9445,-2.9202,-2.8992,-2.8876,-2.8727,-2.8607,-2.8423,-2.8244,-2.8004,-2.7764,-2.7764,-2.764,-2.7665,-2.766,-2.771,-2.766,-2.7635,-2.764,-2.7735,-2.7984,-2.7891,-2.769,-2.7879,-2.8152,-2.8728,-2.8976,-2.8739,-2.8637,-2.8874,-2.8908,-2.8908,-2.8418,-2.769,-2.7638,-4.4886,-4.4886,-4.4682,-4.4241,-4.3739,-4.4327,-4.4093,-4.3317,-4.337,-4.255,-4.1562,-4.1462,-4.0831,-3.9672,-3.945,-3.9481,-3.9415,-3.9156,-3.9013,-3.9022,-3.8792,-3.8123,-3.7584,-3.8422,-3.8302,-3.7704,-3.7195,-3.6776,-3.5998,-3.5609,-3.5489,-3.5489,-3.5489,-3.5489,-3.5489,-3.5489,-3.5489,-3.5489,-3.5489,-3.5489,-3.5489,-3.5489,-3.5489,-3.5489,-3.5489,-3.5489,-3.5489,-3.5489,-3.5489,-3.5489,-3.5489,-3.5489,-3.5489,-3.5489,-3.5489,-3.5459,-3.531,-3.534,-3.528,-3.507,-3.5011,-3.507,-3.5011,-3.504,-3.4651,-3.3784,-3.3275,-3.3215,-3.3095,-3.2976,-3.2826,-3.2467,-3.2168,-3.2019,-3.1839,-3.169,-3.154,-3.1212,-3.0941,-3.0672,-3.0372,-3.0103,-2.9804,-2.9654,-2.9505,-2.9415,-2.9355,-2.9262,-2.9172,-2.8963,-2.8334,-2.8184,-2.7764,-2.7675,-2.7675,-2.7735,-2.7824,-2.7705,-2.7675,-2.774,-2.786,-2.7952,-2.8009,-2.8168,-2.8481,-2.9158,-2.9511,-2.9194,-2.9228,-2.9653,-2.9653,-2.9551,-2.9314,-2.8655,-2.8767,-4.4581,-4.4581,-4.4581,-4.4327,-4.3881,-4.37,-4.3643,-4.3623,-4.2489,-4.1506,-4.0893,-4.0864,-4.0122,-3.8687,-3.8542,-3.8631,-3.8601,-3.8482,-3.8222,-3.8217,-3.8542,-3.7943,-3.8033,-3.8332,-3.7494,-3.6956,-3.6626,-3.6088,-3.5579,-3.5489,-3.5489,-3.5489,-3.5489,-3.5489,-3.5489,-3.5489,-3.5489,-3.5489,-3.5489,-3.5489,-3.5489,-3.5489,-3.5489,-3.5489,-3.5489,-3.5489,-3.5489,-3.5489,-3.5489,-3.5489,-3.5489,-3.5489,-3.5489,-3.5489,-3.5489,-3.5489,-3.5459,-3.5489,-3.5489,-3.5489,-3.5489,-3.5489,-3.5489,-3.531,-3.531,-3.4532,-3.4233,-3.4083,-3.3455,-3.3275,-3.3245,-3.3006,-3.2647,-3.2378,-3.2168,-3.1989,-3.172,-3.1391,-3.1212,-3.1122,-3.0943,-3.0883,-3.0703,-3.0702,-3.0492,-3.0043,-2.9983,-2.9774,-2.9744,-2.9804,-2.9232,-2.8813,-2.8543,-2.8214,-2.8158,-2.8158,-2.8184,-2.8004,-2.7764,-2.7695,-2.781,-2.8154,-2.8405,-2.8607,-2.9045,-2.9847,-3.0017,-2.9829,-3.004,-3.0499,-3.0364,-3.0161,-2.9856,-2.9653,-2.9767,-4.4242,-4.431,-4.4276,-4.4193,-4.3951,-4.2774,-4.275,-4.328,-4.1135,-4.0123,-4.026,-3.9656,-3.8555,-3.7819,-3.7434,-3.7464,-3.7674,-3.8063,-3.7764,-3.8033,-3.8452,-3.7943,-3.7734,-3.7734,-3.7135,-3.6417,-3.5878,-3.5729,-3.5519,-3.5489,-3.5489,-3.5489,-3.5489,-3.5489,-3.5489,-3.5489,-3.5489,-3.5489,-3.5489,-3.5489,-3.5489,-3.5489,-3.5489,-3.5489,-3.5489,-3.5489,-3.5489,-3.5489,-3.5489,-3.5489,-3.5489,-3.5489,-3.5489,-3.5489,-3.5489,-3.5489,-3.5489,-3.5489,-3.5489,-3.5489,-3.5489,-3.5489,-3.5489,-3.5489,-3.5489,-3.534,-3.5011,-3.4681,-3.4053,-3.3814,-3.3784,-3.3574,-3.3245,-3.2736,-3.2527,-3.2168,-3.1809,-3.1511,-3.1481,-3.1451,-3.1451,-3.1421,-3.1421,-3.1451,-3.1182,-3.0761,-3.0492,-3.0253,-3.0103,-3.0253,-3.0073,-2.9864,-2.9744,-2.9355,-2.8757,-2.8697,-2.8697,-2.8154,-2.7884,-2.7735,-2.7821,-2.8374,-2.881,-2.9012,-2.9567,-3.0203,-3.0624,-3.0634,-3.0962,-3.1123,-3.0886,-3.0635,-3.0635,-3.0499,-3.0601,-4.2726,-4.2753,-4.2726,-4.2366,-4.1773,-4.1465,-4.1209,-4.0672,-3.9693,-3.8863,-3.8403,-3.7717,-3.7117,-3.7375,-3.7404,-3.7494,-3.7764,-3.8003,-3.8631,-3.908,-3.8871,-3.8182,-3.7614,-3.7494,-3.7315,-3.6537,-3.5729,-3.5519,-3.5489,-3.5489,-3.5489,-3.5489,-3.5489,-3.5489,-3.5489,-3.5489,-3.5489,-3.5489,-3.5489,-3.5489,-3.5489,-3.5489,-3.5489,-3.5489,-3.5489,-3.5489,-3.5489,-3.5489,-3.5489,-3.5489,-3.5489,-3.5489,-3.5489,-3.5489,-3.5489,-3.5489,-3.5489,-3.5489,-3.5489,-3.5489,-3.5489,-3.5489,-3.5489,-3.5489,-3.5489,-3.5489,-3.531,-3.531,-3.4891,-3.4891,-3.4831,-3.4442,-3.4053,-3.3215,-3.2736,-3.2138,-3.169,-3.154,-3.1481,-3.1481,-3.1481,-3.1481,-3.1481,-3.1481,-3.1451,-3.1152,-3.1152,-3.0913,-3.0853,-3.0853,-3.0793,-3.0733,-3.0673,-2.9836,-2.8939,-2.9265,-2.9232,-2.8573,-2.8124,-2.8124,-2.8333,-2.8792,-2.9166,-2.9415,-2.9762,-3.0314,-3.0705,-3.1227,-3.1227,-3.132,-3.1205,-3.1089,-3.1123,-3.1089,-3.0987]},{"header":{"parameterUnit":"m.s-1","parameterCategory":1,"la1":31.0,"la2":29.5877,"lo1":-88.7671,"lo2":-86.6584,"dy":0.0162,"dx":0.0185,"nx":115,"ny":88,"refTime":"2024-05-02T18:00:00:Z","depth":0,"parameterNumber":3,"parameterNumberName":"V-component_of_WINDS"},"data":[0.0,0.0,0.0,0.0,0.0,0.0,0.0,0.0,0.0,0.0,0.0,0.0,0.0,0.0,0.0,0.0,0.0,0.0,0.0,0.0,0.0,0.0,0.0,0.0,0.0,0.0,0.0,0.0,0.0,0.0,0.0,0.0,0.0,0.0,0.0,0.0,0.0,0.0,0.0,0.0,0.0,0.0,0.0,0.0,0.0,0.0,0.0,0.0,0.0,0.0,0.0,0.0,0.0,0.0,0.0,0.0,0.0,0.0,0.0,0.0,0.0,0.0,0.0,0.0,0.0,0.0,0.0,0.0,0.0,0.0,0.0,0.0,0.0,0.0,0.0,0.0,0.0,0.0,0.0,0.0,0.0,0.0,0.0,0.0,0.0,0.0,0.0,0.0,0.0,0.0,0.0,0.0,0.0,0.0,0.0,0.0,0.0,0.0,0.0,0.0,0.0,0.0,0.0,0.0,0.0,0.0,0.0,0.0,0.0,0.0,0.0,0.0,0.0,0.0,0.0,0.0,0.0,0.0,0.0,0.0,0.0,0.0,0.0,0.0,0.0,0.0,0.0,0.0,0.0,0.0,0.0,0.0,0.0,0.0,0.0,0.0,0.0,0.0,0.0,0.0,0.0,0.0,0.0,0.0,0.0,0.0,0.0,0.0,0.0,0.0,0.0,0.0,0.0,0.0,0.0,0.0,0.0,0.0,0.0,0.0,0.0,0.0,0.0,0.0,0.0,0.0,0.0,0.0,0.0,0.0,0.0,0.0,0.0,0.0,0.0,0.0,0.0,0.0,0.0,0.0,0.0,0.0,0.0,0.0,0.0,0.0,0.0,0.0,0.0,0.0,0.0,0.0,0.0,0.0,0.0,0.0,0.0,0.0,0.0,0.0,0.0,0.0,0.0,0.0,0.0,0.0,0.0,0.0,0.0,0.0,0.0,0.0,0.0,0.0,0.0,0.0,0.0,0.0,0.0,0.0,0.0,0.0,0.0,0.0,0.0,0.0,0.0,0.0,0.0,0.0,0.0,0.0,0.0,0.0,0.0,0.0,0.0,0.0,0.0,0.0,0.0,0.0,0.0,0.0,0.0,0.0,0.0,0.0,0.0,0.0,0.0,0.0,0.0,0.0,0.0,0.0,0.0,0.0,0.0,0.0,0.0,0.0,0.0,0.0,0.0,0.0,0.0,0.0,0.0,0.0,0.0,0.0,0.0,0.0,0.0,0.0,0.0,0.0,0.0,0.0,0.0,0.0,0.0,0.0,0.0,0.0,0.0,0.0,0.0,0.0,0.0,0.0,0.0,0.0,0.0,0.0,0.0,0.0,0.0,0.0,0.0,0.0,0.0,0.0,0.0,0.0,0.0,0.0,0.0,0.0,0.0,0.0,0.0,0.0,0.0,0.0,0.0,0.0,0.0,0.0,0.0,0.0,0.0,0.0,0.0,0.0,0.0,0.0,0.0,0.0,0.0,0.0,0.0,0.0,0.0,0.0,0.0,0.0,0.0,0.0,0.0,0.0,0.0,0.0,0.0,0.0,0.0,0.0,0.0,0.0,0.0,0.0,0.0,0.0,0.0,0.0,0.0,0.0,0.0,0.0,0.0,0.0,0.0,0.0,0.0,0.0,0.0,0.0,0.0,0.0,0.0,0.0,0.0,0.0,0.0,0.0,0.0,0.0,0.0,0.0,0.0,0.0,0.0,0.0,0.0,0.0,0.0,0.0,0.0,0.0,0.0,0.0,0.0,0.0,0.0,0.0,0.0,0.0,0.0,0.0,0.0,0.0,0.0,0.0,0.0,0.0,0.0,0.0,0.0,0.0,0.0,0.0,0.0,0.0,0.0,0.0,0.0,0.0,0.0,0.0,0.0,0.0,0.0,0.0,0.0,0.0,0.0,0.0,0.0,0.0,0.0,0.0,0.0,0.0,0.0,0.0,0.0,0.0,0.0,0.0,0.0,0.0,0.0,0.0,0.0,0.0,0.0,0.0,0.0,0.0,0.0,0.0,0.0,0.0,0.0,0.0,0.0,0.0,0.0,0.0,0.0,0.0,0.0,0.0,0.0,0.0,0.0,0.0,0.0,0.0,0.0,0.0,0.0,0.0,0.0,0.0,0.0,0.0,0.0,0.0,0.0,0.0,0.0,0.0,0.0,0.0,0.0,0.0,0.0,0.0,0.0,0.0,0.0,0.0,0.0,0.0,0.0,0.0,0.0,0.0,0.0,0.0,0.0,0.0,0.0,0.0,0.0,0.0,0.0,0.0,0.0,0.0,0.0,0.0,0.0,0.0,0.0,0.0,0.0,0.0,0.0,0.0,0.0,0.0,0.0,0.0,0.0,0.0,0.0,0.0,0.0,0.0,0.0,0.0,0.0,0.0,0.0,0.0,0.0,0.0,0.0,0.0,0.0,0.0,0.0,0.0,0.0,0.0,0.0,0.0,0.0,0.0,0.0,0.0,0.0,0.0,0.0,0.0,0.0,0.0,0.0,0.0,0.0,0.0,0.0,0.0,0.0,0.0,0.0,0.0,0.0,0.0,0.0,0.0,0.0,0.0,0.0,0.0,0.0,0.0,0.0,0.0,0.0,0.0,0.0,0.0,0.0,0.0,0.0,0.0,0.0,0.0,0.0,0.0,0.0,0.0,0.0,0.0,0.0,0.0,0.0,0.0,0.0,0.0,0.0,0.0,0.0,0.0,0.0,0.0,0.0,0.0,0.0,0.0,0.0,0.0,0.0,0.0,0.0,0.0,0.0,0.0,0.0,0.0,0.0,0.0,0.0,0.0,0.0,0.0,0.0,0.0,0.0,0.0,0.0,0.0,0.0,0.0,0.0,0.0,0.0,0.0,0.0,0.0,0.0,0.0,0.0,0.0,0.0,0.0,0.0,0.0,0.0,0.0,0.0,0.0,0.0,0.0,0.0,0.0,0.0,0.0,0.0,0.0,0.0,0.0,0.0,0.0,0.0,0.0,0.0,0.0,0.0,0.0,0.0,0.0,0.0,0.0,0.0,0.0,0.0,0.0,0.0,0.0,0.0,0.0,0.0,0.0,0.0,0.0,0.0,0.0,0.0,0.0,0.0,0.0,0.0,0.0,0.0,0.0,0.0,0.0,0.0,0.0,0.0,0.0,0.0,0.0,0.0,0.0,0.0,0.0,0.0,0.0,0.0,0.0,0.0,0.0,0.0,0.0,0.0,0.0,0.0,0.0,0.0,0.0,0.0,0.0,0.0,0.0,0.0,0.0,0.0,0.0,0.0,0.0,0.0,0.0,0.0,0.0,0.0,0.0,0.0,0.0,0.0,0.0,0.0,0.0,0.0,0.0,0.0,0.0,0.0,0.0,0.0,0.0,0.0,0.0,0.0,0.0,0.0,0.0,0.0,0.0,0.0,0.0,0.0,0.0,0.0,0.0,0.0,0.0,0.0,0.0,0.0,0.0,0.0,0.0,0.0,0.0,0.0,0.0,0.0,0.0,0.0,0.0,0.0,0.0,0.0,0.0,0.0,0.0,0.0,0.0,0.0,0.0,0.0,0.0,0.0,0.0,0.0,0.0,0.0,0.0,0.0,0.0,0.0,0.0,0.0,0.0,0.0,0.0,0.0,0.0,0.0,0.0,0.0,0.0,0.0,0.0,0.0,0.0,0.0,0.0,0.0,0.0,0.0,0.0,0.0,0.0,0.0,0.0,0.0,0.0,0.0,0.0,0.0,0.0,0.0,0.0,0.0,0.0,0.0,0.0,0.0,0.0,0.0,0.0,0.0,0.0,0.0,0.0,0.0,0.0,0.0,0.0,0.0,0.0,0.0,0.0,0.0,0.0,0.0,0.0,0.0,0.0,0.0,0.0,0.0,0.0,0.0,0.0,0.0,0.0,0.0,0.0,0.0,0.0,0.0,0.0,0.0,0.0,0.0,0.0,0.0,0.0,0.0,0.0,0.0,0.0,0.0,0.0,0.0,0.0,0.0,0.0,0.0,0.0,0.0,0.0,0.0,0.0,0.0,0.0,0.0,0.0,0.0,0.0,0.0,0.0,0.0,0.0,0.0,0.0,0.0,0.0,0.0,0.0,0.0,0.0,0.0,0.0,0.0,0.0,0.0,0.0,0.0,0.0,0.0,0.0,0.0,0.0,0.0,0.0,0.0,0.0,0.0,0.0,0.0,0.0,0.0,0.0,0.0,0.0,0.0,0.0,0.0,0.0,0.0,0.0,0.0,0.0,0.0,0.0,0.0,0.0,0.0,0.0,0.0,0.0,0.0,0.0,0.0,0.0,0.0,0.0,0.3747,0.0,0.0,0.0,0.0,0.0,0.0,0.0,0.0,0.0,0.0,0.0,0.0,0.0,0.0,0.0,0.0,0.0,0.0,0.0,0.0,0.0,0.0,0.0,0.0,0.0,0.0,0.0,0.0,0.0,0.0,0.0,0.0,0.0,0.0,0.0,0.0,0.0,0.0,0.0,0.0,0.0,0.0,0.0,0.0,0.0,0.0,0.0,0.0,0.0,0.0,0.0,0.0,0.0,0.0,0.0,0.0,0.0,0.0,0.0,0.0,0.0,0.0,0.0,0.0,0.0,0.0,0.0,0.0,0.0,0.0,0.0,0.0,0.0,0.0,0.0,0.0,0.0,0.0,0.0,0.0,0.0,0.0,0.0,0.0,0.0,0.0,0.0,0.0,0.0,0.0,0.0,0.0,0.0,0.0,0.0,0.0,0.0,0.0,0.0,0.0,0.0,0.0,0.0,0.0,0.0,0.0,0.0,0.0,0.0,0.0,0.3849,0.3887,0.3586,0.3651,0.4108,0.0,0.0,0.0,0.0,0.0,0.0,0.0,0.0,0.0,0.0,0.0,0.0,0.0,0.0,0.0,0.0,0.0,0.0,0.0,0.0,0.0,0.0,0.0,0.0,0.0,0.0,0.0,0.0,0.0,0.0,0.0,0.0,0.0,0.0,0.0,0.0,0.0,0.0,0.0,0.0,0.0,0.0,0.0,0.0,0.0,0.0,0.0,0.0,0.0,0.0,0.0,0.0,0.0,0.0,0.0,0.0,0.0,0.0,0.0,0.0,0.0,0.0,0.0,0.0,0.0,0.0,0.0,0.0,0.0,0.0,0.0,0.0,0.0,0.0,0.0,0.0,0.0,0.0,0.0,0.0,0.0,0.0,0.0,0.0,0.0,0.0,0.0,0.0,0.0,0.0,0.0,0.0,0.0,0.0,0.0,0.0,0.0,0.0,0.0,0.0,0.0,0.0,0.0,0.0,0.0,0.0,0.0,0.0,0.0,0.0,0.0,0.0,0.3714,0.3852,0.4384,0.0,0.0,0.0,0.0,0.0,0.0,0.0,0.0,0.0,0.0,0.0,0.0,0.0,0.0,0.0,0.0,0.0,0.0,0.0,0.0,0.0,0.0,0.0,0.0,0.0,0.0,0.0,0.0,0.0,0.0,0.0,0.0,0.0,0.0,0.0,0.0,0.0,0.0,0.0,0.0,0.0,0.0,0.0,0.0,0.0,0.0,0.0,0.0,0.0,0.0,0.0,0.0,0.0,0.0,0.0,0.0,0.0,0.0,0.0,0.0,0.0,0.0,0.0,0.0,0.0,0.0,0.0,0.0,0.0,0.0,0.0,0.0,0.0,0.0,0.0,0.0,0.0,0.0,0.0,0.0,0.0,0.0,0.0,0.0,0.0,0.0,0.0,0.0,0.0,0.0,0.0,0.0,0.0,0.0,0.0,0.0,0.0,0.0,0.0,0.0,0.0,0.0,0.0,0.0,0.0,0.0,0.0,0.0,0.0,0.0,0.3945,0.4607,0.447,0.0,0.4483,0.0,0.0,0.0,0.0,0.0,0.0,0.0,0.0,0.0,0.0,0.0,0.0,0.0,0.0,0.0,0.0,0.0,0.0,0.0,0.0,0.0,0.0,0.0,0.0,0.0,0.0,0.0,0.0,0.0,0.0,0.0,0.0,0.0,0.0,0.0,0.0,0.0,0.0,0.0,0.0,0.0,0.0,0.0,0.0,0.0,0.0,0.0,0.0,0.0,0.0,0.0,0.0,0.0,0.0,0.0,0.0,0.0,0.0,0.0,0.0,0.0,0.0,0.0,0.0,0.0,0.0,0.0,0.0,0.0,0.0,0.0,0.0,0.0,0.0,0.0,0.0,0.0,0.0,0.0,0.0,0.0,0.0,0.0,0.0,0.0,0.0,0.0,0.0,0.0,0.0,0.0,0.0,0.0,0.0,0.0,0.0,0.0,0.0,0.0,0.0,0.0,0.0,0.0,0.0,0.0,0.0,0.0,0.0,0.0,0.0,0.432,0.468,0.5303,0.5344,0.0,0.0,0.0,0.0,0.0,0.0,0.0,0.0,0.0,0.0,0.0,0.0,0.0,0.0,0.0,0.0,0.0,0.0,0.0,0.0,0.0,0.0,0.0,0.0,0.0,0.0,0.0,0.0,0.0,0.0,0.0,0.0,0.0,0.0,0.0,0.0,0.0,0.0,0.0,0.0,0.0,0.0,0.0,0.0,0.0,0.0,0.0,0.0,0.0,0.0,0.0,0.0,0.0,0.0,0.0,0.0,0.0,0.0,0.0,0.0,0.0,0.0,0.0,0.0,0.0,0.0,0.0,0.0,0.0,0.0,0.0,0.0,0.0,0.0,0.0,0.0,0.0,0.0,0.0,0.0,0.0,0.0,0.0,0.0,0.0,0.0,0.0,0.0,0.0,0.0,0.0,0.0,0.0,0.0,0.0,0.0,0.0,0.0,0.0,0.0,0.0,0.0,0.0,0.0,0.0,0.0,0.0,0.0,0.0,0.0,0.4511,0.4668,0.491,0.5542,0.5527,0.4809,0.0,0.0,0.0,0.0,0.0,0.0,0.0,0.0,0.0,0.0,0.0,0.0,0.0,0.0,0.0,0.0,0.0,0.0,0.0,0.0,0.0,0.0,0.0,0.0,0.0,0.0,0.0,0.0,0.0,0.0,0.0,0.0,0.0,0.0,0.0,0.0,0.0,0.0,0.0,0.0,0.0,0.0,0.0,0.0,0.0,0.0,0.0,0.0,0.0,0.0,0.0,0.0,0.0,0.0,0.0,0.0,0.0,0.0,0.0,0.0,0.0,0.0,0.0,0.0,0.0,0.0,0.0,0.0,0.0,0.0,0.0,0.0,0.0,0.0,0.0,0.0,0.0,0.0,0.0,0.0,0.0,0.0,0.0,0.0,0.0,0.0,0.0,0.0,0.0,0.0,0.0,0.0,0.0,0.0,0.0,0.0,0.0,0.0,0.0,0.0,0.0,0.0,0.0,0.0,0.0,0.0,0.0,0.0,0.577,0.5094,0.4921,0.533,0.4864,0.4574,0.0,0.0,0.0,0.0,0.0,0.0,0.0,0.0,0.0,0.0,0.0,0.0,0.0,0.0,0.0,0.0,0.0,0.0,0.0,0.0,0.0,0.0,0.0,0.0,0.0,0.0,0.0,0.0,0.0,0.0,0.0,0.0,0.0,0.0,0.0,0.0,0.0,0.0,0.0,0.0,0.0,0.0,0.0,0.0,0.0,0.0,0.0,0.0,0.0,0.0,0.0,0.0,0.0,0.0,0.0,0.0,0.0,0.0,0.0,0.0,0.0,0.0,0.0,0.0,0.0,0.0,0.0,0.0,0.0,0.0,0.0,0.0,0.0,0.0,0.0,0.0,0.0,0.0,0.0,0.0,0.0,0.0,0.0,0.0,0.0,0.0,0.0,0.0,0.0,0.0,0.0,0.0,0.0,0.0,0.0,0.0,0.0,0.0,0.0,0.0,0.0,0.0,0.0,0.0,0.0,0.0,0.0,0.0,0.0,0.4685,0.4701,0.4952,0.5494,0.5313,0.5249,0.0,0.0,0.0,0.0,0.0,0.0,0.0,0.0,0.0,0.0,0.0,0.0,0.0,0.0,0.0,0.0,0.0,0.0,0.0,0.0,0.0,0.0,0.0,0.0,0.0,0.0,0.0,0.0,0.0,0.0,0.0,0.0,0.0,0.0,0.0,0.0,0.0,0.0,0.0,0.0,0.0,0.0,0.0,0.0,0.0,0.0,0.0,0.0,0.0,0.0,0.0,0.0,0.0,0.0,0.0,0.0,0.0,0.0,0.0,0.0,0.0,0.0,0.0,0.0,0.0,0.0,0.0,0.0,0.0,0.0,0.0,0.0,0.0,0.0,0.0,0.0,0.0,0.0,0.0,0.0,0.0,0.0,0.0,0.0,0.0,0.0,0.0,0.0,0.0,0.0,0.0,0.0,0.0,0.0,0.0,0.0,0.0,0.0,0.0,0.0,0.0,0.0,0.0,0.0,0.0,0.0,0.0,0.0,0.0,0.4457,0.0,0.523,0.5406,0.5349,0.5247,0.0,0.0,0.0,0.0,0.0,0.0,0.0,0.0,0.0,0.0,0.0,0.0,0.0,0.0,0.0,0.0,0.0,0.0,0.0,0.0,0.0,0.0,0.0,0.0,0.0,0.0,0.0,0.0,0.0,0.0,0.0,0.0,0.0,0.0,0.0,0.0,0.0,0.0,0.0,0.0,0.0,0.0,0.0,0.0,0.0,0.0,0.0,0.0,0.0,0.0,0.0,0.0,0.0,0.0,0.0,0.0,0.0,0.0,0.0,0.0,0.0,0.0,0.0,0.0,0.0,0.0,0.0,0.0,0.0,0.0,0.0,0.0,0.0,0.0,0.0,0.0,0.0,0.0,0.0,0.0,0.0,0.0,0.0,0.0,0.0,0.0,0.0,0.0,0.0,0.0,0.0,0.0,0.0,0.0,0.0,0.0,0.0,0.0,0.0,0.0,0.0,0.0,0.0,0.0,0.0,0.0,0.0,0.0,0.4577,0.5337,0.5732,0.5642,0.513,0.4836,0.4375,0.0,0.0,0.0,0.0,0.0,0.0,0.0,0.0,0.0,0.0,0.0,0.0,0.0,0.0,0.0,0.0,0.0,0.0,0.0,0.0,0.0,0.0,0.0,0.0,0.0,0.0,0.0,0.0,0.0,0.0,0.0,0.0,0.0,0.0,0.0,0.0,0.0,0.0,0.0,0.0,0.0,0.0,0.0,0.0,0.0,0.0,0.0,0.0,0.0,0.0,0.0,0.0,0.0,0.0,0.0,0.0,0.0,0.0,0.0,0.0,0.0,0.0,0.0,0.0,0.0,0.0,0.0,0.0,0.0,0.0,0.0,0.0,0.0,0.0,0.0,0.0,0.0,0.0,0.0,0.0,0.0,0.0,0.0,0.0,0.0,0.0,0.0,0.0,0.0,0.0,0.0,0.0,0.0,0.0,0.0,0.0,0.0,0.0,0.0,0.0,0.0,0.0,0.0,0.0,0.0,0.0,0.0,0.0,0.0,0.4577,0.4931,0.5311,0.5656,0.466,0.4355,0.0,0.0,0.0,0.0,0.0,0.0,0.0,0.0,0.0,0.0,0.0,0.0,0.0,0.0,0.0,0.0,0.0,0.0,0.0,0.0,0.0,0.0,0.0,0.0,0.0,0.0,0.0,0.0,0.0,0.0,0.0,0.0,0.0,0.0,0.0,0.0,0.0,0.0,0.0,0.0,0.0,0.0,0.0,0.0,0.0,0.0,0.0,0.0,0.0,0.0,0.0,0.0,0.0,0.0,0.0,0.0,0.0,0.0,0.0,0.0,0.0,0.0,0.0,0.0,0.0,0.0,0.0,0.0,0.0,0.0,0.0,0.0,0.0,0.0,0.0,0.0,0.0,0.0,0.0,0.0,0.0,0.0,0.0,0.0,0.0,0.0,0.0,0.0,0.0,0.0,0.0,0.0,0.0,0.0,0.0,0.0,0.0,0.0,0.0,0.0,0.0,0.0,0.0,0.0,0.0,0.0,0.0,0.0,0.0,0.4753,0.504,0.5505,0.6122,0.5218,0.4892,0.5292,0.0,0.0,0.0,0.0,0.0,0.0,0.0,0.0,0.0,0.0,0.0,0.0,0.0,0.0,0.0,0.0,0.0,0.0,0.0,0.0,0.0,0.0,0.0,0.0,0.0,0.0,0.0,0.0,0.0,0.0,0.0,0.0,0.0,0.0,0.0,0.0,0.0,0.0,0.0,0.0,0.0,0.0,0.0,0.0,0.0,0.0,0.0,0.0,0.0,0.0,0.0,0.0,0.0,0.0,0.0,0.0,0.0,0.0,0.0,0.0,0.0,0.0,0.0,0.0,0.0,0.0,0.0,0.0,0.0,0.0,0.0,0.0,0.0,0.0,0.0,0.0,0.0,0.0,0.0,0.0,0.0,0.0,0.0,0.0,0.0,0.0,0.0,0.0,0.0,0.0,0.0,0.0,0.0,0.0,0.0,0.0,0.0,0.0,0.0,0.0,0.0,0.0,0.0,0.0,0.0,0.0,0.0,0.0,0.5616,0.5901,0.6179,0.6496,0.6269,0.5818,0.0,0.0,0.0,0.0,0.0,0.0,0.0,0.0,0.0,0.0,0.0,0.0,0.0,0.0,0.0,0.0,0.0,0.0,0.0,0.0,0.0,0.0,0.0,0.0,0.0,0.0,0.0,0.0,0.0,0.0,0.0,0.0,0.0,0.0,0.0,0.0,0.0,0.0,0.0,0.0,0.0,0.0,0.0,0.0,0.0,0.0,0.0,0.0,0.0,0.0,0.0,0.0,0.0,0.0,0.0,0.0,0.0,0.0,0.0,0.0,0.0,0.0,0.0,0.0,0.0,0.0,0.0,0.0,0.0,0.0,0.0,0.0,0.0,0.0,0.0,0.0,0.0,0.0,0.0,0.0,0.0,0.0,0.0,0.0,0.0,0.0,0.0,0.0,0.0,0.0,0.0,0.0,0.0,0.0,0.0,0.0,0.0,0.0,0.0,0.0,0.0,0.0,0.0,0.0,0.0,0.0,0.0,0.0,0.0,0.5872,0.62,0.6773,0.7506,0.658,0.6111,0.0,0.0,0.0,0.0,0.0,0.0,0.0,0.0,0.0,0.0,0.0,0.0,0.0,0.0,0.0,0.0,0.0,0.0,0.0,0.0,0.0,0.0,0.0,0.0,0.0,0.0,0.0,0.0,0.0,0.0,0.0,0.0,0.0,0.0,0.0,0.0,0.0,0.0,0.0,0.0,0.0,0.0,0.0,0.0,0.0,0.0,0.0,0.0,0.0,0.0,0.0,0.0,0.0,0.0,0.0,0.0,0.0,0.0,0.0,0.0,0.0,0.0,0.0,0.0,0.0,0.0,0.0,0.0,0.0,0.0,0.0,0.0,0.0,0.0,0.0,0.0,0.0,0.0,0.0,0.0,0.0,0.0,0.0,0.0,0.0,0.0,0.0,0.0,0.0,0.0,0.0,0.0,0.0,0.0,0.0,0.0,0.0,0.0,0.0,0.0,0.0,0.0,0.0,0.0,0.0,0.0,0.0,0.0,0.5766,0.6207,0.6566,0.7382,0.8678,0.7897,0.748,0.0,0.0,0.0,0.0,0.0,0.0,0.0,0.0,0.0,0.0,0.0,0.0,0.0,0.0,0.0,0.0,0.0,0.0,0.0,0.0,0.0,0.0,0.0,0.0,0.0,0.0,0.0,0.0,0.0,0.0,0.0,0.0,0.0,0.0,0.0,0.0,0.0,0.0,0.0,0.0,0.0,0.0,0.0,0.0,0.0,0.0,0.0,0.0,0.0,0.0,0.0,0.0,0.0,0.0,0.0,0.0,0.0,0.0,0.0,0.0,0.0,0.0,0.0,0.0,0.0,0.0,0.0,0.0,0.0,0.0,0.0,0.0,0.0,0.0,0.0,0.0,0.0,0.0,0.0,0.0,0.0,0.0,0.0,0.0,0.0,0.0,0.0,0.0,0.0,0.0,0.0,0.0,0.0,0.0,0.0,0.0,0.0,0.0,0.0,0.0,0.0,0.0,0.0,0.0,0.0,0.0,0.0,0.0,0.6054,0.6464,0.7033,0.8064,0.9643,0.9458,0.9055,0.0,0.0,0.0,0.0,0.0,0.0,0.0,0.0,0.0,0.0,0.0,0.0,0.0,0.0,0.0,0.0,0.0,0.0,0.0,0.0,0.0,0.0,0.0,0.0,0.0,0.0,0.0,0.0,0.0,0.0,0.0,0.0,0.0,0.0,0.0,0.0,0.0,0.0,0.0,0.0,0.0,0.0,0.0,0.0,0.0,0.0,0.0,0.0,0.0,0.0,0.0,0.0,0.0,0.0,0.0,0.0,0.0,0.0,0.0,0.0,0.0,0.0,0.0,0.0,0.0,0.0,0.0,0.0,0.0,0.0,0.0,0.0,0.0,0.0,0.0,0.0,0.0,0.0,0.0,0.0,0.0,0.0,0.0,0.0,0.0,0.0,0.0,0.0,0.0,0.0,0.0,0.0,0.0,0.0,0.0,0.0,0.0,0.0,0.0,0.0,0.0,0.0,0.0,0.0,0.0,0.0,0.0,0.0,0.6017,0.6504,0.7843,0.8974,0.9914,0.8894,0.848,0.0,0.0,0.0,0.0,0.0,0.0,0.0,0.0,0.0,0.0,0.0,0.0,0.0,0.0,0.0,0.0,0.0,0.0,0.0,0.0,0.0,0.0,0.0,0.0,0.0,0.0,0.0,0.0,0.0,0.0,0.0,0.0,0.0,0.0,0.0,0.0,0.0,0.0,0.0,0.0,0.0,0.0,0.0,0.0,0.0,0.0,0.0,0.0,0.19,0.0,0.0,0.0,0.0,0.0,0.0,0.0,0.0,0.0,0.0,0.0,0.0,0.0,0.0,0.0,0.0,0.0,0.0,0.0,0.0,0.0,0.0,0.0,0.0,0.0,0.0,0.0,0.0,0.0,0.0,0.0,0.0,0.0,0.0,0.0,0.0,0.0,0.0,0.0,0.0,0.0,0.0,0.0,0.0,0.0,0.0,0.0,0.0,0.0,0.0,0.0,0.0,0.0,0.0,0.0,0.0,0.0,0.0,0.0,0.6385,0.7517,0.8268,0.935,1.0668,0.9369,0.8964,0.0,0.0,0.0,0.0,0.0,0.0,0.0,0.0,0.0,0.0,0.0,0.0,0.0,0.0,0.0,0.0,0.0,0.0,0.0,0.0,0.0,0.0,0.0,0.0,0.0,0.0,0.0,0.0,0.0,0.0,0.0,0.0,0.0,0.0,0.0,0.0,0.0,0.0,0.0,0.0,0.0,0.0,0.0,0.0,0.0,0.0,0.0,0.0,0.0,0.0,0.0,0.0,0.0,0.0,0.0,0.0,0.0,0.0,0.0,0.0,0.0,0.0,0.0,0.0,0.0,0.0,0.0,0.0,0.0,0.0,0.0,0.0,0.0,0.0,0.0,0.0,0.0,0.0,0.0,0.0,0.0,0.0,0.0,0.0,0.0,0.0,0.0,0.0,0.0,0.0,0.0,0.0,0.0,0.0,0.0,0.0,0.0,0.0,0.0,0.0,0.0,0.0,0.0,0.0,0.0,0.0,0.0,0.5853,0.6904,0.8564,0.8843,0.9792,1.1489,1.0275,0.9876,1.047,0.0,0.0,0.0,0.0,0.0,0.0,0.0,0.0,0.0,0.0,0.0,0.0,0.0,0.0,0.0,0.0,0.0,0.0,0.0,0.0,0.0,0.0,0.0,0.0,0.0,0.0,0.0,0.0,0.0,0.0,0.0,0.0,0.0,0.0,0.0,0.0,0.0,0.0,0.3176,0.2935,0.0,0.0,0.0,0.0,0.0,0.0,0.0,0.0,0.2181,0.0,0.0,0.0,0.0,0.0,0.0,0.0,0.0,0.0,0.0,0.0,0.0,0.0,0.0,0.0,0.0,0.0,0.0,0.0,0.0,0.0,0.0,0.0,0.0,0.0,0.0,0.0,0.0,0.0,0.0,0.0,0.0,0.0,0.0,0.0,0.0,0.0,0.0,0.0,0.0,0.0,0.0,0.0,0.0,0.0,0.0,0.0,0.0,0.0,0.0,0.0,0.0,0.0,0.0,0.0,0.0,0.5754,0.6726,0.763,0.8459,1.0347,1.1246,1.1143,1.0866,1.0548,1.0163,0.0,0.0,0.0,0.0,0.0,0.0,0.0,0.0,0.0,0.0,0.0,0.0,0.0,0.0,0.0,0.0,0.0,0.0,0.0,0.0,0.0,0.0,0.0,0.0,0.0,0.0,0.0,0.0,0.0,0.0,0.0,0.0,0.0,0.0,0.0,0.0,0.0,0.0,0.0,0.3373,0.3037,0.0,0.0,0.0,0.0,0.0,0.0,0.0,0.0,0.2171,0.0,0.0,0.0,0.0,0.0,0.0,0.0,0.0,0.0,0.0,0.0,0.0,0.0,0.0,0.0,0.0,0.0,0.0,0.0,0.0,0.0,0.0,0.0,0.0,0.0,0.0,0.0,0.0,0.0,0.0,0.0,0.0,0.0,0.0,0.0,0.0,0.0,0.0,0.0,0.0,0.0,0.0,0.0,0.0,0.0,0.0,0.0,0.0,0.0,0.0,0.0,0.0,0.0,0.0,0.0,0.6506,0.7522,0.868,0.9978,1.0946,1.1417,1.1452,1.0555,1.002,0.0,0.0,0.0,0.0,0.0,0.0,0.0,0.0,0.0,0.0,0.0,0.0,0.0,0.0,0.0,0.0,0.0,0.0,0.0,0.0,0.0,0.0,0.0,0.0,0.0,0.0,0.0,0.0,0.0,0.0,0.0,0.0,0.0,0.0,0.0,0.0,0.0,0.0,0.0,0.0,0.3079,0.2845,0.2101,0.0,0.0,0.0,0.0,0.0,0.0,0.2405,0.2485,0.0,0.0,0.0,0.0,0.0,0.0,0.0,0.0,0.0,0.0,0.0,0.0,0.0,0.0,0.0,0.0,0.0,0.0,0.0,0.0,0.0,0.0,0.0,0.0,0.0,0.0,0.0,0.0,0.0,0.0,0.0,0.0,0.0,0.0,0.0,0.0,0.0,0.0,0.0,0.0,0.0,0.0,0.0,0.0,0.0,0.0,0.0,0.0,0.0,0.0,0.0,0.0,0.0,0.0,0.0,0.7093,0.8245,0.9681,1.135,1.1307,1.1465,1.1735,1.018,0.9377,0.0,0.0,0.0,0.0,0.0,0.0,0.0,0.0,0.0,0.0,0.0,0.0,0.0,0.0,0.0,0.0,0.0,0.0,0.0,0.0,0.0,0.0,0.0,0.0,0.0,0.0,0.0,0.0,0.0,0.0,0.0,0.0,0.0,0.0,0.0,0.0,0.0,0.0,0.0,0.0,0.0,0.261,0.2177,0.2031,0.0,0.0,0.0,0.0,0.2606,0.2767,0.0,0.0,0.0,0.0,0.0,0.0,0.0,0.0,0.0,0.0,0.0,0.0,0.0,0.0,0.0,0.0,0.0,0.0,0.0,0.0,0.0,0.0,0.0,0.0,0.0,0.0,0.0,0.0,0.0,0.0,0.0,0.0,0.0,0.0,0.0,0.0,0.0,0.0,0.0,0.0,0.0,0.0,0.0,0.0,0.0,0.0,0.0,0.0,0.0,0.0,0.0,0.0,0.0,0.0,0.0,0.0,0.7031,0.8787,1.0254,1.1209,1.1815,1.1933,1.1455,1.0274,0.9526,0.0,0.0,0.0,0.0,0.0,0.0,0.0,0.0,0.0,0.0,0.0,0.0,0.0,0.0,0.0,0.0,0.0,0.0,0.0,0.0,0.0,0.0,0.0,0.0,0.0,0.0,0.0,0.0,0.0,0.0,0.0,0.0,0.0,0.0,0.0,0.0,0.0,0.0,0.0,0.0,0.0,0.2756,0.1937,0.2279,0.2579,0.0,0.0,0.2452,0.2669,0.2998,0.0,0.0,0.0,0.0,0.0,0.0,0.0,0.0,0.0,0.0,0.0,0.0,0.0,0.0,0.0,0.0,0.0,0.0,0.0,0.0,0.0,0.0,0.0,0.0,0.0,0.0,0.0,0.0,0.0,0.0,0.0,0.0,0.0,0.0,0.0,0.0,0.0,0.0,0.0,0.0,0.0,0.0,0.0,0.0,0.0,0.0,0.0,0.0,0.0,0.0,0.0,0.0,0.0,0.0,0.0,0.8067,0.7628,0.9498,1.0759,1.131,1.1821,1.1623,1.0669,0.9392,0.8791,0.0,0.0,0.0,0.0,0.0,0.0,0.0,0.0,0.0,0.0,0.0,0.0,0.0,0.0,0.0,0.0,0.0,0.0,0.0,0.0,0.0,0.0,0.0,0.0,0.0,0.0,0.0,0.0,0.0,0.0,0.0,0.0,0.0,0.0,0.0,0.0,0.0,0.0,0.0,0.0,0.0,0.0,0.1916,0.2395,0.0,0.0,0.0,0.2655,0.2805,0.0,0.0,0.0,0.0,0.0,0.0,0.0,0.0,0.0,0.0,0.0,0.0,0.0,0.0,0.0,0.0,0.0,0.0,0.0,0.0,0.0,0.0,0.0,0.0,0.0,0.0,0.0,0.0,0.0,0.0,0.0,0.0,0.0,0.0,0.0,0.0,0.0,0.0,0.0,0.0,0.0,0.0,0.0,0.0,0.0,0.0,0.0,0.0,0.0,0.0,0.0,0.0,0.0,0.0,0.0,0.0,0.0,0.8303,0.9939,1.0982,1.1375,1.1503,1.1122,1.0127,0.8671,0.0,0.0,0.0,0.0,0.0,0.0,0.0,0.0,0.0,0.0,0.0,0.0,0.0,0.0,0.0,0.0,0.0,0.0,0.0,0.0,0.0,0.0,0.0,0.0,0.0,0.0,0.0,0.2932,0.0,0.0,0.0,0.0,0.0,0.0,0.0,0.0,0.0,0.0,0.0,0.0,0.0,0.0,0.2561,0.2082,0.2587,0.295,0.0,0.0,0.289,0.2936,0.3315,0.3618,0.0,0.0,0.0,0.0,0.0,0.0,0.0,0.0,0.0,0.0,0.0,0.0,0.0,0.0,0.0,0.0,0.0,0.0,0.0,0.0,0.0,0.0,0.0,0.0,0.0,0.0,0.0,0.0,0.0,0.0,0.0,0.0,0.0,0.0,0.0,0.0,0.0,0.0,0.0,0.0,0.0,0.0,0.0,0.0,0.0,0.0,0.0,0.0,0.0,0.0,0.0,0.0,0.0,0.0,0.8831,0.8967,0.9744,1.0581,1.1335,1.0915,1.0519,1.0114,0.8671,0.8459,0.0,0.0,0.0,0.0,0.0,0.0,0.0,0.0,0.0,0.0,0.0,0.0,0.0,0.0,0.0,0.0,0.0,0.0,0.0,0.0,0.0,0.0,0.0,0.0,0.0,0.0,0.0,0.0,0.0,0.0,0.0,0.0,0.0,0.0,0.0,0.0,0.0,0.0,0.0,0.0,0.0,0.2346,0.2609,0.3,0.324,0.0,0.319,0.3208,0.3097,0.3784,0.4332,0.4353,0.0,0.0,0.0,0.0,0.0,0.0,0.0,0.0,0.0,0.0,0.0,0.0,0.0,0.0,0.0,0.0,0.0,0.0,0.0,0.0,0.0,0.0,0.0,0.0,0.0,0.0,0.0,0.0,0.0,0.0,0.0,0.0,0.0,0.0,0.0,0.0,0.0,0.0,0.0,0.0,0.0,0.0,0.0,0.0,0.0,0.0,0.0,0.0,0.0,0.0,0.0,0.0,0.0,0.8781,0.8741,0.9659,1.0367,1.0894,1.0707,1.0358,0.986,0.8578,0.822,0.0,0.0,0.0,0.0,0.0,0.0,0.0,0.0,0.0,0.0,0.0,0.0,0.0,0.0,0.0,0.0,0.0,0.0,0.0,0.0,0.0,0.0,0.0,0.0,0.0,0.0,0.0,0.0,0.3823,0.4337,0.475,0.0,0.0,0.0,0.0,0.0,0.0,0.0,0.0,0.0,0.0,0.2976,0.2735,0.3158,0.0,0.0,0.3115,0.3,0.2877,0.3282,0.3707,0.4087,0.4748,0.0,0.0,0.0,0.0,0.0,0.0,0.0,0.0,0.0,0.0,0.0,0.0,0.0,0.0,0.0,0.0,0.0,0.0,0.0,0.0,0.0,0.0,0.0,0.0,0.0,0.0,0.0,0.0,0.0,0.0,0.0,0.0,0.0,0.0,0.0,0.0,0.0,0.0,0.0,0.0,0.0,0.0,0.0,0.0,0.0,0.0,0.0,0.0,0.0,0.0,0.0,0.0,0.8852,0.8932,0.9636,1.0127,1.0452,1.0372,1.009,0.9539,0.8404,0.8058,0.0,0.0,0.0,0.0,0.0,0.0,0.0,0.0,0.0,0.0,0.0,0.0,0.0,0.0,0.0,0.0,0.0,0.0,0.0,0.0,0.0,0.0,0.0,0.0,0.0,0.0,0.0,0.0,0.4779,0.5529,0.5971,0.0,0.0,0.0,0.0,0.0,0.0,0.0,0.0,0.0,0.0,0.3336,0.3175,0.3495,0.3761,0.3635,0.3583,0.3547,0.3543,0.363,0.3857,0.4315,0.0,0.0,0.0,0.0,0.0,0.0,0.0,0.0,0.0,0.0,0.0,0.0,0.0,0.0,0.0,0.0,0.0,0.0,0.0,0.0,0.0,0.0,0.0,0.0,0.0,0.0,0.0,1.2324,0.0,0.0,1.266,0.0,0.0,0.0,0.0,0.0,0.0,0.0,0.0,0.0,0.0,0.0,0.0,0.0,0.0,0.0,0.0,0.0,0.0,0.0,0.0,0.0,0.0,0.9098,0.9673,0.9699,0.9833,1.0083,0.9846,0.9566,0.9217,0.812,0.8096,0.9322,0.0,0.0,0.0,0.0,0.0,0.0,0.0,0.0,0.0,0.0,0.0,0.0,0.0,0.0,0.0,0.0,0.0,0.0,0.0,0.0,0.0,0.0,0.0,0.0,0.0,0.0,0.5561,0.6122,0.658,0.0,0.0,0.0,0.0,0.0,0.0,0.0,0.0,0.0,0.0,0.3353,0.3227,0.4027,0.4184,0.4237,0.4342,0.4737,0.51,0.531,0.5192,0.5111,0.0,0.0,0.0,0.0,0.0,0.0,0.0,0.0,0.0,0.0,0.0,0.0,0.0,0.0,0.0,0.0,0.0,0.0,0.0,0.0,0.0,0.0,0.0,0.0,0.0,0.0,0.0,1.4353,1.5239,0.0,0.0,0.0,0.0,0.0,0.0,0.0,0.0,0.0,0.0,0.0,1.1176,1.1343,0.0,0.0,0.0,0.0,0.0,0.0,0.0,0.0,0.0,0.0,0.0,0.0,0.9192,0.9927,0.978,0.982,1.01,0.9833,0.9539,0.9204,0.8509,0.8393,0.9023,0.0,0.0,0.0,0.0,0.0,0.0,0.0,0.0,0.0,0.0,0.0,0.0,0.0,0.0,0.0,0.0,0.0,0.0,0.0,0.0,0.0,0.0,0.0,0.0,0.0,0.577,0.0,0.0,0.0,0.0,0.0,0.0,0.0,0.0,0.0,0.0,0.0,0.3706,0.4074,0.4333,0.443,0.4231,0.4534,0.4685,0.0,0.0,0.0,0.0,0.0,0.0,0.0,0.0,0.0,0.0,0.0,0.0,0.0,0.0,0.6575,0.5937,0.5361,0.488,0.4577,0.0,0.0,0.0,0.0,0.0,0.0,0.0,0.0,0.0,0.0,0.0,0.0,0.0,0.0,1.4828,0.0,1.5997,0.0,0.0,0.0,0.0,0.0,0.0,0.0,0.0,1.2074,1.2438,1.2382,1.2318,1.2158,0.0,1.2347,1.1661,0.0,0.0,0.0,0.0,0.0,0.0,0.0,0.0,0.9392,0.994,0.9886,0.9873,0.9953,0.978,0.9499,0.9071,0.8498,0.8222,0.8236,0.7934,0.8056,0.0,0.0,0.0,0.0,0.0,0.0,0.0,0.0,0.0,0.0,0.0,0.0,0.0,0.0,0.0,0.0,0.0,0.0,0.0,0.0,0.0,0.0,0.0,0.6486,0.0,0.0,0.0,0.0,0.0,0.0,0.0,0.0,0.0,0.4735,0.4371,0.4215,0.4423,0.503,0.5156,0.443,0.0,0.0,0.0,0.0,0.0,0.0,0.0,0.5901,0.5997,0.6174,0.641,0.6804,0.6968,0.6962,0.666,0.0,0.0,0.629,0.5823,0.5316,0.4714,0.3967,0.3061,0.1855,0.1229,0.0716,0.0,0.0,0.0,0.0,0.0,0.0,0.0,0.0,1.3534,1.3967,0.0,1.5645,0.0,0.0,0.0,0.0,0.0,1.2518,0.0,0.0,1.308,1.348,1.3227,1.2692,1.2532,1.2837,1.3144,1.2623,1.1478,1.1534,0.0,0.0,0.0,0.0,0.0,0.0,0.9715,0.974,0.998,0.9967,0.9742,0.9715,0.9434,0.8871,0.8243,0.7715,0.7171,0.7911,0.8471,0.8876,0.969,0.0,0.0,0.0,0.0,0.0,0.0,0.0,0.0,0.0,0.0,0.0,0.0,0.0,0.0,0.0,0.0,0.0,0.0,0.0,0.0,0.6755,0.0,0.0,0.0,0.0,0.0,0.0,0.0,0.0,0.0,0.0,0.5437,0.4834,0.4577,0.4912,0.0,0.0,0.0,0.0,0.5771,0.5847,0.6288,0.6647,0.6885,0.6752,0.6539,0.6257,0.0,0.0,0.6501,0.6424,0.6344,0.6553,0.6419,0.6209,0.6196,0.6333,0.6072,0.4848,0.441,0.3726,0.209,0.1448,0.1026,2.3814,0.0,0.0,0.0,0.0,1.6045,1.6134,1.7034,1.659,1.7123,1.8277,1.7992,0.0,0.0,0.0,0.0,0.0,0.0,1.3186,1.3134,1.3921,1.4186,1.4106,1.4188,1.4028,1.3749,1.4209,1.3568,1.2123,1.2937,1.227,1.0241,0.0,0.0,0.0,0.0,0.9673,1.0291,1.018,0.998,0.9715,0.9715,0.9645,0.9524,0.8853,0.8607,0.8894,0.8707,0.8638,0.8753,0.9173,0.0,0.0,0.0,0.0,0.0,0.0,0.0,0.0,0.0,0.0,0.0,0.0,0.0,0.0,0.0,0.0,0.0,0.0,0.0,0.7487,0.5698,0.5261,0.0,0.0,0.0,0.0,0.0,0.0,0.0,0.0,0.0,0.6465,0.5815,0.5523,0.0,0.0,0.6188,0.5809,0.6104,0.621,0.5811,0.6227,0.0,0.6431,0.6874,0.7118,0.6834,0.6676,0.6666,0.6866,0.6827,0.6734,0.6627,0.6693,0.6653,0.6277,0.6057,0.5542,0.4466,0.4142,0.3634,0.2242,0.1574,0.1154,2.558,2.2571,2.1544,2.0017,1.8315,1.7389,1.7288,1.7754,1.7432,1.7861,1.873,1.8442,1.733,1.5594,1.4866,0.0,0.0,0.0,1.3895,1.4175,1.4536,1.4816,1.503,1.5035,1.4888,1.4646,1.4684,1.413,1.3038,1.3941,1.3398,1.1512,0.0,0.0,1.0287,1.0047,1.0087,1.0367,1.0327,1.0131,0.9699,0.9459,0.948,0.9769,0.9249,0.929,0.9938,0.9695,0.944,0.9273,0.9792,1.0227,0.0,0.0,0.0,0.0,0.0,0.0,0.0,0.0,0.0,0.0,0.0,0.8571,0.8513,0.0,0.0,0.0,0.8203,0.7419,0.6287,0.5395,0.0,0.0,0.0,0.0,0.0,0.0,0.0,0.6799,0.6619,0.6647,0.6951,0.6537,0.627,0.6411,0.663,0.6622,0.624,0.0,0.6639,0.6272,0.6537,0.6704,0.6558,0.6959,0.7249,0.7033,0.6993,0.6993,0.6993,0.6993,0.694,0.6807,0.6886,0.6867,0.6432,0.611,0.5537,0.4402,0.4071,0.3553,0.2264,0.1625,0.1188,2.5835,2.3991,2.4031,2.2109,1.919,1.9287,1.8348,1.682,1.6794,1.6938,1.7262,1.7577,1.6857,1.5421,1.4242,0.0,1.376,1.4292,1.475,1.5075,1.5075,1.5311,1.5744,1.5257,1.5137,1.5378,1.4878,1.4505,1.4292,1.4674,1.4287,1.313,1.2742,1.1954,1.0766,1.0959,1.0766,1.0207,1.0466,1.0305,0.9715,0.9166,0.9211,0.9858,0.9617,0.9801,1.0508,1.0699,1.0611,1.0246,1.1011,1.111,1.0312,0.0,0.0,0.0,0.0,0.0,0.0,0.0,0.0,0.0,0.0,0.0,0.0,0.0,0.0,0.0,0.8094,0.0,0.417,0.5821,0.0,0.0,0.0,0.7046,0.7121,0.7081,0.7046,0.7073,0.0,0.0,0.7006,0.6993,0.6816,0.6328,0.6689,0.6816,0.6352,0.6702,0.6993,0.6938,0.6972,0.6993,0.6951,0.6985,0.702,0.7006,0.6993,0.6993,0.6993,0.6993,0.6993,0.698,0.6993,0.6913,0.6667,0.6424,0.5867,0.4655,0.4189,0.3593,0.238,0.1726,0.1271,2.5103,2.3351,2.3309,2.2203,2.0357,1.9178,1.8333,1.7662,1.7475,1.7493,1.7707,1.761,1.7081,1.6255,1.516,1.4763,1.499,1.5124,1.5351,1.5618,1.5618,1.5698,1.5805,1.5458,1.5337,1.5397,1.56,1.569,1.5646,1.5542,1.5654,1.581,1.3964,1.2557,1.1639,1.1725,1.1439,1.0782,1.0667,1.0305,0.9715,0.9614,0.9858,1.0534,1.0212,1.0549,1.1701,1.1036,1.0713,1.0841,1.0592,1.0282,0.9938,1.0022,0.0,0.0,0.0,0.0,0.0,0.0,0.0,0.0,0.0,0.889,0.9318,0.0,0.8996,0.0,0.862,0.7792,0.7589,0.7508,0.0,0.0,0.7665,0.7571,0.8027,0.7665,0.7477,0.7672,0.7508,0.7281,0.7033,0.6993,0.6964,0.6825,0.6922,0.7044,0.7168,0.7054,0.6993,0.6993,0.6993,0.6993,0.6993,0.6993,0.6993,0.6993,0.6993,0.6993,0.6993,0.6993,0.6993,0.6993,0.6993,0.6966,0.69,0.6693,0.6098,0.5029,0.4371,0.3716,0.2729,0.2147,0.1692,2.3886,2.2243,2.2748,2.2023,2.0542,1.953,1.8758,1.8237,1.8063,1.7855,1.7563,1.7159,1.6678,1.6193,1.5613,1.5431,1.5591,1.5591,1.5671,1.5832,1.5832,1.5832,1.5771,1.5658,1.5591,1.5611,1.6253,1.6504,1.6384,1.7064,1.7343,1.706,1.6462,1.5377,1.3836,1.2815,1.2335,1.2449,1.1611,1.1019,1.0679,1.0417,1.0486,1.0992,1.0664,1.1035,1.2214,1.1232,1.0969,1.1511,1.0668,1.0157,1.0162,1.0266,1.0224,0.0,0.0,0.0,0.0,0.0,0.0,0.0,0.0,0.0,0.0,0.0,0.9015,0.9536,0.8636,0.8192,0.8577,0.8096,0.7869,0.8136,0.7882,0.7802,0.8136,0.7882,0.7736,0.7885,0.7752,0.7615,0.7419,0.7406,0.7406,0.7406,0.7308,0.7228,0.7241,0.7121,0.6993,0.6993,0.6993,0.6993,0.6993,0.6993,0.6993,0.6993,0.6993,0.6993,0.6993,0.6993,0.6993,0.6993,0.6993,0.6993,0.698,0.6787,0.6279,0.542,0.4644,0.3856,0.2909,0.2347,0.1859,2.2389,2.1128,2.2054,2.1541,2.016,1.9907,1.9305,1.849,1.849,1.7983,1.7166,1.6526,1.6126,1.5838,1.5798,1.5832,1.5832,1.5832,1.5832,1.5832,1.5832,1.5832,1.5832,1.5744,1.5792,1.5852,1.687,1.719,1.6947,1.8692,1.9005,1.7887,1.8872,1.8506,1.6661,1.4315,1.3484,1.4163,1.2801,1.2063,1.2046,1.1431,1.124,1.1497,1.1131,1.1387,1.2304,1.1455,1.1333,1.2084,1.1001,1.0443,1.066,1.0687,1.0573,0.0,1.0904,0.0,0.0,0.0,0.0,0.0,0.0,0.0,0.0,0.8778,0.8778,0.8778,0.847,0.8297,0.8417,0.8163,0.7979,0.8019,0.7992,0.7979,0.8019,0.7992,0.7965,0.7965,0.7965,0.7939,0.7832,0.7846,0.7869,0.7766,0.7602,0.741,0.718,0.7073,0.6993,0.6993,0.6993,0.6993,0.6993,0.6993,0.6993,0.6993,0.6993,0.6993,0.6993,0.6993,0.6993,0.6993,0.6993,0.6993,0.6993,0.6814,0.6422,0.5673,0.4977,0.4129,0.3073,0.2447,0.1942,2.1276,2.081,2.0999,2.0611,1.988,1.9826,1.9305,1.849,1.849,1.7983,1.7166,1.6576,1.6295,1.6166,1.5939,1.5832,1.5832,1.5832,1.5832,1.5832,1.5832,1.5832,1.5818,1.5591,1.5605,1.5873,1.7415,1.8229,1.8394,1.9207,1.9883,2.0375,1.811,1.7663,1.8976,0.0,0.0,0.0,1.3214,1.2944,1.2957,1.2758,1.2708,1.2734,1.2014,0.0,1.2717,1.2042,1.1798,1.2153,1.1537,0.0,0.0,0.0,0.0,0.0,0.0,0.0,0.0,0.0,0.0,0.0,0.8778,0.8778,0.8778,0.8778,0.8778,0.8778,0.8524,0.8469,0.8697,0.8457,0.839,0.8604,0.843,0.8377,0.8591,0.843,0.8297,0.8322,0.8322,0.812,0.7705,0.7571,0.7598,0.7638,0.7531,0.7571,0.7712,0.7313,0.702,0.6993,0.6993,0.6993,0.6993,0.6993,0.6993,0.6993,0.6993,0.6993,0.6993,0.6993,0.6993,0.6993,0.6993,0.6993,0.6993,0.6953,0.6684,0.5954,0.528,0.4487,0.3432,0.2854,0.243,2.2391,0.0,2.1413,2.0972,0.0,1.9492,1.9038,1.849,1.849,1.7983,1.7179,1.6687,1.6406,1.6259,1.5965,1.5832,1.5832,1.5832,1.5832,1.5832,1.5832,1.5832,1.5818,1.5685,1.6,1.6796,1.8234,1.9217,1.9755,2.0424,2.0897,2.119,1.9288,1.8787,1.9514,1.7396,1.579,1.4852,1.4472,1.4073,1.3646,1.3413,1.3098,1.2707,1.2113,0.0,0.0,0.0,0.0,0.0,0.0,0.0,0.0,1.1574,0.0,1.1324,1.1956,1.1882,1.0889,1.0788,1.0483,0.9832,0.9484,0.9159,0.8831,0.8778,0.8778,0.8778,0.8671,0.8644,0.8778,0.8671,0.8644,0.8778,0.8671,0.8657,0.8764,0.8671,0.8591,0.8616,0.8591,0.8482,0.8201,0.8123,0.8123,0.8123,0.8027,0.7986,0.8056,0.7629,0.7201,0.7033,0.6993,0.6993,0.6993,0.6993,0.7006,0.6993,0.6993,0.6993,0.6993,0.6993,0.6993,0.6993,0.6993,0.6993,0.6993,0.6993,0.6851,0.6333,0.5783,0.5058,0.4046,0.3231,0.2563,2.3871,2.0759,2.2108,2.155,1.9679,1.9472,1.9192,1.8864,0.0,0.0,0.0,1.7113,1.6765,1.6375,1.6218,1.615,1.6103,1.5879,1.5913,1.6103,1.5927,1.5927,1.6103,1.6103,1.6796,1.8056,1.9222,2.0142,2.0815,2.1545,2.1719,2.1328,2.0762,2.0019,1.9121,1.774,1.6746,1.6222,1.5742,1.5137,1.4348,1.3945,1.338,1.2633,1.2211,1.212,1.2371,1.1608,1.1726,1.2798,1.1801,1.1416,1.1956,1.2005,1.2005,1.203,1.2559,1.2584,1.1864,1.1814,1.1516,1.0838,1.032,0.9692,0.9028,0.8883,0.8778,0.8778,0.8778,0.8778,0.8778,0.8778,0.8778,0.8778,0.8778,0.8778,0.8778,0.8778,0.8791,0.8778,0.8765,0.8778,0.8697,0.8671,0.8724,0.8684,0.8482,0.8402,0.8335,0.7919,0.7482,0.7259,0.7246,0.7171,0.7166,0.7193,0.714,0.7134,0.7121,0.7108,0.7094,0.7054,0.702,0.71,0.7046,0.7006,0.6993,0.6993,0.6913,0.6707,0.6255,0.5623,0.4703,0.3673,0.2804,2.3794,2.0402,2.202,2.1435,1.9529,2.073,2.0903,2.0258,1.8505,1.7635,1.7593,1.8038,1.7655,1.667,1.7161,1.7419,1.7372,1.6292,1.6386,1.7358,1.6292,1.6386,1.7404,1.7404,1.8087,1.9268,2.0477,2.1087,2.129,2.1678,2.1855,2.166,2.0586,1.959,1.8734,1.8442,1.7759,1.666,1.6191,1.5723,1.5234,1.4824,1.4379,1.3838,1.3111,1.2769,1.2802,1.2665,1.27,1.2871,1.2725,1.2652,1.2749,1.2749,1.2749,1.2749,1.2847,1.2559,1.1864,1.1814,1.1516,1.0889,1.0712,1.0372,0.9703,0.9133,0.8778,0.8778,0.8778,0.8778,0.8778,0.8778,0.8804,0.8804,0.8804,0.8778,0.8831,0.8804,0.8778,0.8778,0.8778,0.8711,0.8549,0.8521,0.8535,0.8482,0.8482,0.8415,0.835,0.8059,0.7846,0.7792,0.7756,0.7756,0.7712,0.7766,0.7701,0.7464,0.749,0.7579,0.7512,0.7287,0.7204,0.7383,0.7201,0.7033,0.7006,0.6993,0.6966,0.6879,0.6415,0.5756,0.5088,0.4169,0.3361,2.6466,2.3291,2.376,2.2815,2.0916,2.1021,2.1215,2.1454,2.0107,1.9155,1.8703,1.8831,1.887,1.8792,1.8243,1.8255,1.8596,1.6702,1.648,1.7544,1.6386,1.648,1.7638,1.7684,1.8688,2.0432,2.1016,2.1504,2.1895,2.1916,2.1758,2.1484,2.0411,1.9572,1.8968,1.8535,1.791,1.7109,1.6641,1.5996,1.5098,1.4648,1.4219,1.3782,1.3184,1.2915,1.2915,1.2915,1.2915,1.2915,1.2915,1.2915,1.2915,1.2915,1.2915,1.2915,1.2915,1.2749,1.2418,1.2393,1.227,1.195,1.1584,1.1216,1.0914,0.9935,0.9211,0.8831,0.8778,0.8778,0.8778,0.8778,0.8936,0.9316,0.9028,0.8962,0.9211,0.8989,0.8778,0.8778,0.8778,0.8725,0.8631,0.8924,0.8976,0.8707,0.8617,0.863,0.863,0.8472,0.8258,0.7979,0.7899,0.7899,0.7936,0.823,0.8334,0.8261,0.8573,0.8595,0.8354,0.7989,0.7813,0.7693,0.7348,0.7113,0.7201,0.71,0.702,0.6972,0.6788,0.6202,0.5307,0.4167,0.3153,2.8509,2.4876,2.501,2.4127,2.2502,2.1798,2.2001,2.279,2.2013,2.1146,2.0401,1.9956,2.0037,2.0294,1.9367,1.9344,1.9559,1.7623,1.7171,1.7917,1.6796,1.6904,1.801,1.8087,1.936,2.148,2.1702,2.2001,2.2415,2.209,2.1602,2.1074,2.0352,1.9805,1.9297,1.8633,1.8008,1.7435,1.7051,1.625,1.498,1.4387,1.3899,1.3516,1.3086,1.2915,1.2915,1.2915,1.2915,1.2915,1.2915,1.2915,1.2915,1.2915,1.2915,1.2915,1.2915,1.2915,1.2915,1.2915,1.2915,1.2891,1.2369,1.1963,1.174,1.0864,0.9884,0.9185,0.9028,0.9054,0.908,0.9211,0.9458,0.9935,0.9588,0.951,0.9899,0.9446,0.9001,0.9015,0.891,0.8831,0.9068,0.9458,0.9625,0.9366,0.9133,0.9028,0.9015,0.8936,0.8604,0.8272,0.8099,0.8247,0.8317,0.8728,0.9091,0.9205,0.9601,0.9648,0.9299,0.8898,0.852,0.8152,0.7571,0.7249,0.733,0.7188,0.702,0.6993,0.6924,0.6554,0.5339,0.4199,0.306,2.7817,2.3554,2.4636,2.4556,2.3766,2.4136,2.4472,2.4589,2.3802,2.3184,2.2536,2.1896,2.0955,2.0165,2.072,2.1042,2.1016,1.9753,1.9177,1.9177,1.8087,1.818,1.9268,1.936,2.0584,2.2687,2.2862,2.2693,2.2457,2.207,2.1465,2.0762,2.0586,2.0136,1.9412,1.9199,1.8574,1.7422,1.7344,1.668,1.5391,1.4523,1.3919,1.349,1.3105,1.2915,1.2954,1.2915,1.2915,1.2915,1.2915,1.2915,1.2915,1.2915,1.2915,1.2915,1.2915,1.2915,1.2915,1.2915,1.2915,1.2915,1.2822,1.251,1.1888,1.1665,1.1065,1.0038,0.9744,0.9666,0.9744,1.0192,1.0483,1.0661,1.0559,1.0636,1.061,1.0115,0.9718,0.9718,0.9263,0.9028,0.9614,0.9806,1.0038,1.0458,1.0012,0.9666,0.9562,0.9211,0.8857,0.8711,0.8685,0.893,0.9365,0.964,0.9888,1.0164,1.0331,1.0379,1.0193,0.9534,0.882,0.8774,0.8026,0.7446,0.7214,0.7006,0.702,0.6985,0.6896,0.66,0.5423,0.4512,0.3723,2.9446,2.7097,2.6619,2.5922,2.5208,2.4933,2.5341,2.6058,2.4998,2.4249,2.3815,2.3248,2.2711,2.2172,2.1889,2.1915,2.2227,2.0359,1.9906,2.0387,1.9314,1.9405,2.0477,2.0567,2.148,2.2994,2.3101,2.2886,2.2461,2.1836,2.1172,2.0664,2.0605,2.0292,1.9687,1.9414,1.8887,1.8144,1.7637,1.6992,1.618,1.5323,1.4687,1.4277,1.3848,1.3607,1.3568,1.3398,1.3262,1.3242,1.3008,1.2915,1.2915,1.2915,1.2915,1.2915,1.2915,1.3013,1.3223,1.3052,1.2988,1.3223,1.3027,1.2774,1.2442,1.2055,1.1541,1.1015,1.0254,0.9935,1.032,1.0295,1.0509,1.1141,1.104,1.0965,1.1366,1.0788,1.0397,1.0372,1.0167,1.0038,1.032,1.0397,1.0661,1.1166,1.0813,1.032,0.9884,0.9562,0.9237,0.8883,0.8778,0.908,0.9666,1.0167,1.0554,1.1119,1.1622,1.181,1.1169,1.0446,0.9716,0.949,0.8518,0.7828,0.7606,0.7361,0.7276,0.7092,0.6634,0.6223,0.5269,0.4609,0.3963,3.0296,2.9222,2.7638,2.6624,2.61,2.5637,2.5999,2.6773,2.5762,2.4941,2.4394,2.4082,2.3828,2.3479,2.2697,2.2617,2.2813,2.1257,2.0764,2.1194,2.0387,2.0432,2.1239,2.1284,2.1943,2.2969,2.3101,2.2886,2.2461,2.1619,2.1055,2.0781,2.0664,2.0352,1.9922,1.9492,1.9082,1.8578,1.791,1.7285,1.6687,1.6083,1.542,1.4824,1.4348,1.4114,1.4094,1.3821,1.3646,1.3646,1.3379,1.3164,1.3066,1.3047,1.3032,1.2915,1.2915,1.3008,1.332,1.3145,1.3145,1.3281,1.315,1.3008,1.2837,1.2393,1.2129,1.2005,1.1015,1.0626,1.0914,1.0804,1.1107,1.1956,1.1633,1.1609,1.1981,1.1491,1.1065,1.1065,1.0813,1.0889,1.1065,1.1283,1.1633,1.1956,1.1516,1.0965,1.0397,1.0064,0.9588,0.9159,0.908,0.9263,0.9744,1.032,1.104,1.1715,1.2301,1.2589,1.2147,1.135,1.0672,1.0319,0.9124,0.8324,0.8138,0.7897,0.737,0.7049,0.6677,0.6141,0.5334,0.4785,0.4244,2.9545,2.7503,2.6553,2.6245,2.6136,2.6598,2.689,2.6894,2.6035,2.5148,2.4473,2.4355,2.3881,2.3179,2.3027,2.3076,2.3101,2.2862,2.2271,2.148,2.1284,2.1239,2.1284,2.1328,2.1943,2.3038,2.3101,2.2886,2.248,2.1658,2.119,2.1132,2.0801,2.0371,1.9961,1.9551,1.9082,1.8637,1.8223,1.7545,1.6824,1.6668,1.6005,1.4961,1.4394,1.4172,1.4153,1.4114,1.4094,1.4094,1.4016,1.3841,1.3535,1.3477,1.3301,1.2988,1.291,1.2935,1.3052,1.3301,1.3359,1.3111,1.332,1.332,1.3071,1.2934,1.2846,1.2817,1.2135,1.1744,1.1789,1.2049,1.2461,1.2725,1.2774,1.2749,1.2774,1.2172,1.1814,1.169,1.1316,1.1266,1.1715,1.2369,1.2627,1.2632,1.2178,1.169,1.1416,1.0585,0.9987,0.9806,0.9755,0.9795,0.9884,1.0509,1.1141,1.1832,1.251,1.2871,1.2632,1.2288,1.1743,1.1099,0.9937,0.913,0.8762,0.8189,0.7466,0.7092,0.6977,0.6445,0.5418,0.5332,0.4742,3.0064,2.8652,2.7568,2.7112,2.7069,2.6768,2.6621,2.6523,2.5684,2.498,2.4434,2.4141,2.3691,2.3101,2.3101,2.3101,2.3101,2.3101,2.2862,2.2448,2.2448,2.2448,2.2448,2.2448,2.2624,2.3038,2.3101,2.2886,2.2539,2.2187,2.1717,2.1249,2.1074,2.0781,2.0332,1.9902,1.9473,1.9043,1.8633,1.7974,1.7187,1.6843,1.6367,1.5674,1.5176,1.4913,1.4933,1.4707,1.4551,1.4551,1.427,1.4036,1.3899,1.388,1.3821,1.3685,1.3665,1.3691,1.3665,1.3782,1.3821,1.3685,1.3782,1.3821,1.373,1.3672,1.3574,1.3309,1.3086,1.2795,1.2499,1.2344,1.2393,1.2798,1.2915,1.2915,1.2866,1.2657,1.2491,1.2461,1.2264,1.227,1.2393,1.2749,1.2915,1.2891,1.2657,1.232,1.1882,1.1316,1.0889,1.0534,1.0432,1.0432,1.0448,1.1015,1.1641,1.2246,1.2774,1.2866,1.2749,1.232,1.1768,1.1603,1.0607,0.9644,0.9115,0.8135,0.7436,0.718,0.7073,0.6612,0.5524,0.5383,0.4762,3.0039,2.9238,2.8198,2.7728,2.7611,2.6758,2.6387,2.6289,2.5449,2.4824,2.4394,2.3965,2.3535,2.314,2.3101,2.3101,2.3101,2.3101,2.3101,2.3101,2.3101,2.3101,2.3101,2.3101,2.3101,2.3101,2.3101,2.2886,2.2516,2.2519,2.2129,2.1444,2.1268,2.1094,2.0723,2.0215,1.9707,1.9277,1.8812,1.8223,1.7461,1.7109,1.6641,1.6144,1.5781,1.5547,1.543,1.5137,1.498,1.4941,1.4679,1.4465,1.4328,1.4192,1.4114,1.4114,1.4094,1.4114,1.4133,1.4258,1.425,1.4133,1.4231,1.427,1.4133,1.4114,1.3958,1.3743,1.3711,1.3574,1.3264,1.2745,1.2519,1.2861,1.2915,1.2915,1.2915,1.3008,1.3086,1.3061,1.292,1.2886,1.2915,1.2915,1.2915,1.2915,1.2915,1.2632,1.227,1.1888,1.169,1.1241,1.1116,1.1116,1.1216,1.1708,1.1814,1.2295,1.2798,1.2891,1.2822,1.2344,1.208,1.1907,1.1228,1.0205,0.9167,0.8146,0.7625,0.7343,0.7168,0.6871,0.6056,0.5392,0.4749,2.9316,2.8828,2.8008,2.765,2.7474,2.666,2.6348,2.6191,2.5458,2.4785,2.4375,2.3945,2.3496,2.3159,2.3101,2.3101,2.3101,2.3101,2.3101,2.3101,2.3101,2.3101,2.3101,2.3101,2.3101,2.3101,2.3101,2.2886,2.2578,2.2578,2.2344,2.1894,2.1484,2.1229,2.1171,2.0391,1.9746,1.9336,1.889,1.8281,1.7519,1.7383,1.6985,1.6281,1.6124,1.5909,1.5469,1.5381,1.5352,1.5371,1.5352,1.5195,1.4785,1.4426,1.4145,1.4231,1.4172,1.4153,1.4192,1.4551,1.4609,1.4328,1.4551,1.4629,1.4348,1.425,1.4211,1.4133,1.4114,1.4075,1.3977,1.3633,1.3284,1.2993,1.2974,1.2993,1.2993,1.3242,1.3471,1.3418,1.3164,1.293,1.2891,1.2915,1.2915,1.2915,1.2915,1.2891,1.2725,1.232,1.1913,1.1839,1.1814,1.1832,1.208,1.2344,1.2178,1.2203,1.2652,1.2915,1.2915,1.2608,1.2584,1.2393,1.1792,1.0767,0.95,0.8542,0.8104,0.7805,0.7547,0.7138,0.6381,0.5615,0.4864,2.8867,2.8398,2.7578,2.7051,2.6738,2.6172,2.5888,2.584,2.5,2.4551,2.4297,2.3627,2.3218,2.312,2.3101,2.3101,2.3101,2.3101,2.3101,2.3101,2.3101,2.3101,2.3101,2.3101,2.3101,2.3101,2.3101,2.3042,2.2906,2.2886,2.2734,2.2305,2.1894,2.1523,2.119,2.0664,2.0194,1.9727,1.9297,1.8809,1.8223,1.7676,1.7246,1.6992,1.6699,1.6328,1.5879,1.5586,1.543,1.541,1.541,1.5352,1.5215,1.5078,1.4991,1.4991,1.4991,1.4835,1.4668,1.4961,1.5019,1.4766,1.498,1.5137,1.5039,1.4952,1.4863,1.4629,1.457,1.4465,1.4153,1.3997,1.3743,1.3334,1.332,1.3203,1.3091,1.3281,1.3451,1.3496,1.3398,1.332,1.3262,1.315,1.2974,1.2954,1.2935,1.2935,1.2847,1.27,1.2559,1.2559,1.2559,1.2461,1.2559,1.2608,1.2559,1.2461,1.2725,1.2915,1.2915,1.2915,1.2915,1.2667,1.2065,1.1248,0.9946,0.9107,0.865,0.8187,0.7869,0.7266,0.6498,0.5795,0.5115,2.873,2.8008,2.7305,2.6777,2.6348,2.5869,2.5674,2.5577,2.498,2.457,2.4316,2.3822,2.3374,2.3179,2.3257,2.3281,2.312,2.3101,2.3101,2.3101,2.3101,2.3101,2.3101,2.3101,2.3101,2.3101,2.3101,2.3003,2.2867,2.3003,2.2886,2.2519,2.2246,2.1914,2.1424,2.1035,2.0547,1.9961,1.9512,1.916,1.8769,1.8047,1.7617,1.7559,1.7187,1.6777,1.6328,1.6035,1.5712,1.5488,1.541,1.541,1.541,1.541,1.5488,1.5605,1.5488,1.5332,1.5302,1.5352,1.5312,1.5117,1.5254,1.5391,1.541,1.541,1.5254,1.5078,1.5019,1.4902,1.464,1.4426,1.4258,1.4023,1.3828,1.3711,1.3594,1.3652,1.3848,1.3926,1.3841,1.3769,1.3652,1.3555,1.3262,1.3208,1.315,1.3008,1.2974,1.2915,1.2915,1.2891,1.2822,1.2798,1.2866,1.2891,1.2891,1.2866,1.2866,1.2915,1.2915,1.2915,1.2915,1.2706,1.2213,1.1786,1.0648,0.9761,0.9136,0.8697,0.8282,0.7667,0.7026,0.6236,0.5508,2.8824,2.7708,2.7226,2.6816,2.6367,2.5977,2.5732,2.5615,2.5234,2.4824,2.4512,2.4355,2.3861,2.3354,2.3574,2.3516,2.3159,2.3101,2.3101,2.3101,2.3101,2.3101,2.3101,2.3101,2.3101,2.3101,2.3101,2.2906,2.2672,2.2945,2.2906,2.2617,2.25,2.2324,2.1875,2.1484,2.0781,2.0156,1.9609,1.9355,1.9277,1.8555,1.8066,1.8047,1.7695,1.7266,1.6804,1.6609,1.6258,1.5625,1.5605,1.5625,1.5527,1.5488,1.5742,1.6105,1.5723,1.5801,1.5918,1.5723,1.5508,1.5508,1.543,1.541,1.541,1.541,1.5391,1.5352,1.5352,1.5342,1.5254,1.5039,1.4824,1.4746,1.4336,1.4238,1.4629,1.4375,1.4309,1.4551,1.4414,1.4153,1.4133,1.4075,1.3841,1.3652,1.3535,1.3379,1.3105,1.3052,1.2954,1.2935,1.2915,1.2915,1.2915,1.2915,1.2915,1.2915,1.2915,1.2915,1.2915,1.2915,1.2915,1.2706,1.2472,1.2061,1.1421,1.0482,0.9789,0.9405,0.8889,0.8252,0.7548,0.673,0.5973,2.8242,2.7728,2.7591,2.707,2.6426,2.625,2.6035,2.5654,2.5273,2.5086,2.4844,2.4551,2.4141,2.3672,2.373,2.3555,2.3179,2.3101,2.3101,2.3101,2.3101,2.3101,2.3101,2.3101,2.3101,2.3101,2.3101,2.3042,2.2945,2.3042,2.3023,2.2925,2.2676,2.248,2.2266,2.158,2.1112,2.0761,2.0098,1.9746,1.9687,1.9219,1.8789,1.8442,1.8325,1.793,1.7266,1.6863,1.6629,1.6395,1.6356,1.6356,1.6317,1.6317,1.6387,1.6484,1.6414,1.6375,1.6426,1.6152,1.5987,1.5996,1.5703,1.543,1.541,1.541,1.541,1.541,1.541,1.541,1.5391,1.5312,1.5254,1.5156,1.4668,1.4367,1.4687,1.4707,1.4668,1.4746,1.4687,1.4629,1.457,1.4375,1.4114,1.3997,1.3919,1.3763,1.3418,1.3262,1.3203,1.2993,1.2915,1.2915,1.2915,1.2915,1.2915,1.2915,1.2915,1.2915,1.2915,1.2915,1.2915,1.2822,1.2754,1.2418,1.1789,1.1023,1.0559,0.9987,0.9219,0.8462,0.7974,0.7261,0.6514,2.8203,2.7728,2.7728,2.7285,2.668,2.666,2.6504,2.623,2.582,2.5508,2.5332,2.5098,2.4531,2.3848,2.3965,2.3691,2.3159,2.3101,2.3101,2.3101,2.3101,2.3101,2.3101,2.3101,2.3101,2.3101,2.3101,2.3101,2.3081,2.3101,2.3101,2.3042,2.2891,2.2695,2.248,2.207,2.166,2.1387,2.0664,2.0254,2.0372,1.9687,1.9336,1.9102,1.9023,1.8574,1.7949,1.7467,1.7135,1.6921,1.6765,1.6746,1.6843,1.6746,1.6785,1.6921,1.6824,1.6746,1.6863,1.6602,1.6406,1.6406,1.6083,1.5985,1.5927,1.582,1.5684,1.5733,1.5527,1.543,1.542,1.5566,1.5586,1.541,1.5117,1.4961,1.5087,1.5059,1.5039,1.5059,1.5059,1.5039,1.5039,1.4757,1.4582,1.4445,1.4414,1.4043,1.3633,1.3529,1.3398,1.3105,1.2935,1.2915,1.2915,1.2915,1.2915,1.2915,1.2915,1.2915,1.2915,1.2915,1.2915,1.2915,1.2915,1.2749,1.2172,1.1516,1.0813,1.0167,0.9394,0.8777,0.8307,0.7679,0.6937,2.8398,2.7787,2.7787,2.748,2.7109,2.709,2.7012,2.6914,2.6484,2.6113,2.5791,2.5693,2.4914,2.3887,2.4297,2.4004,2.312,2.3296,2.3257,2.3218,2.3159,2.3101,2.3101,2.3101,2.3101,2.3101,2.3101,2.3101,2.3101,2.3101,2.3101,2.3081,2.3062,2.2886,2.2633,2.25,2.2285,2.1855,2.1094,2.0801,2.08,2.0137,1.9687,1.9687,1.9375,1.9062,1.8672,1.832,1.791,1.7291,1.698,1.7038,1.7174,1.696,1.7038,1.7324,1.7187,1.7129,1.7305,1.7051,1.6824,1.6843,1.6765,1.6726,1.657,1.6289,1.6026,1.6007,1.5664,1.5488,1.5605,1.5879,1.5898,1.5684,1.5831,1.5831,1.5586,1.5449,1.543,1.5439,1.5449,1.541,1.541,1.5391,1.5254,1.4855,1.4805,1.4531,1.4102,1.3821,1.3555,1.3145,1.2988,1.2915,1.2915,1.2915,1.2915,1.2915,1.2915,1.2915,1.2915,1.2915,1.2915,1.2915,1.2915,1.2891,1.2725,1.2024,1.1166,1.0458,0.9795,0.9237,0.8712,0.8004,0.7268,2.832,2.8164,2.8164,2.791,2.7559,2.7519,2.7344,2.7012,2.6582,2.6367,2.6191,2.5849,2.5148,2.4297,2.4609,2.4277,2.3315,2.3647,2.3984,2.3613,2.3218,2.312,2.3101,2.3101,2.3101,2.3101,2.3101,2.3101,2.3101,2.3101,2.3101,2.3101,2.3101,2.3062,2.2925,2.2633,2.248,2.2246,2.1543,2.1151,2.1133,2.0664,2.0156,1.9961,1.9531,1.9277,1.918,1.9062,1.8789,1.8325,1.7935,1.774,1.7734,1.7715,1.7715,1.7754,1.7773,1.7754,1.7773,1.75,1.7383,1.7578,1.7116,1.6804,1.696,1.6484,1.6183,1.6026,1.5684,1.5644,1.5948,1.6328,1.6309,1.6094,1.6065,1.6124,1.5928,1.5644,1.5605,1.5742,1.5625,1.541,1.543,1.541,1.5332,1.5273,1.5156,1.5019,1.4629,1.418,1.3782,1.3437,1.3145,1.3047,1.3032,1.2993,1.2915,1.2915,1.2915,1.2915,1.2915,1.2915,1.2915,1.2915,1.2915,1.2891,1.2871,1.227,1.1391,1.0788,1.0141,0.9484,0.8844,0.8209,0.7824,2.8301,2.8301,2.8301,2.8164,2.7988,2.7949,2.7832,2.7519,2.6934,2.668,2.6543,2.5986,2.5352,2.4727,2.4727,2.4238,2.3652,2.3588,2.3691,2.3437,2.3179,2.3101,2.3101,2.3101,2.3101,2.3101,2.3101,2.3101,2.3101,2.3101,2.3101,2.3101,2.3101,2.3101,2.3101,2.2867,2.2789,2.2715,2.2146,2.1717,2.1504,2.1113,2.0664,2.0234,1.9824,1.959,1.957,1.9392,1.9102,1.8828,1.8652,1.8398,1.8032,1.8008,1.8008,1.8008,1.8008,1.8008,1.793,1.7832,1.7754,1.7988,1.7559,1.7467,1.7369,1.7024,1.675,1.6613,1.6348,1.6152,1.6367,1.6777,1.6777,1.6543,1.6594,1.6692,1.6613,1.6133,1.5781,1.6007,1.5889,1.5625,1.5527,1.543,1.541,1.5332,1.5332,1.5176,1.4863,1.4453,1.4192,1.3841,1.3457,1.3223,1.3164,1.3066,1.2935,1.2915,1.2915,1.2915,1.2915,1.2915,1.2915,1.2915,1.2915,1.2915,1.2774,1.2172,1.1641,1.0914,1.0244,0.9588,0.9028,0.8553,0.8368,2.8301,2.8301,2.8301,2.8301,2.8301,2.8281,2.8262,2.8144,2.7383,2.6953,2.6836,2.6113,2.5469,2.5078,2.4844,2.4434,2.4043,2.3354,2.3257,2.3691,2.3374,2.3296,2.3257,2.3257,2.3179,2.312,2.3101,2.3101,2.3101,2.3101,2.3101,2.3101,2.3101,2.3101,2.3101,2.3101,2.3042,2.2964,2.2617,2.2266,2.1914,2.1465,2.0957,2.0527,2.0234,2.0019,1.9961,1.9746,1.9394,1.9082,1.9258,1.8926,1.8437,1.8091,1.8047,1.8047,1.8008,1.8008,1.8008,1.7988,1.7969,1.8008,1.7988,1.7969,1.7871,1.7559,1.7305,1.7187,1.6973,1.6746,1.6824,1.7466,1.7421,1.7088,1.7265,1.7475,1.7298,1.6731,1.6437,1.6152,1.5918,1.5605,1.5488,1.541,1.541,1.541,1.541,1.5332,1.5019,1.4746,1.4512,1.425,1.3841,1.3457,1.3359,1.3066,1.2935,1.2915,1.2915,1.2935,1.2935,1.2915,1.2915,1.2915,1.2915,1.2915,1.2866,1.251,1.1882,1.1082,1.0483,0.9961,0.9458,0.8936,0.8778,2.8301,2.8301,2.8301,2.8301,2.8301,2.8301,2.8301,2.8144,2.7383,2.7012,2.6894,2.6133,2.5488,2.5215,2.543,2.5362,2.4797,2.3822,2.3652,2.4258,2.3984,2.3633,2.3613,2.3594,2.3413,2.3179,2.3101,2.3101,2.3101,2.3101,2.3169,2.3144,2.3101,2.3101,2.3212,2.3101,2.3101,2.3062,2.2773,2.25,2.2227,2.168,2.1133,2.0762,2.0547,2.0469,2.0488,2.041,2.0176,1.9805,1.9785,1.9585,1.937,1.8958,1.8577,1.8184,1.8129,1.8144,1.8066,1.8008,1.8008,1.8008,1.8008,1.8008,1.791,1.7676,1.75,1.7488,1.7429,1.7331,1.7318,1.8271,1.8311,1.7913,1.7857,1.8197,1.769,1.7252,1.701,1.6798,1.6215,1.5586,1.5566,1.5488,1.541,1.541,1.541,1.541,1.5254,1.5019,1.4785,1.4551,1.427,1.386,1.3529,1.3164,1.2915,1.2915,1.2915,1.2974,1.2954,1.2915,1.2915,1.3013,1.2974,1.2915,1.2798,1.27,1.2246,1.1541,1.0965,1.0407,0.978,0.9211,0.891,2.8301,2.8301,2.8301,2.8301,2.8301,2.8301,2.8301,2.8164,2.7402,2.7012,2.6758,2.6083,2.5625,2.5449,2.5332,2.5293,2.4766,2.3764,2.3789,2.4394,2.4102,2.3789,2.3789,2.3789,2.3516,2.3198,2.3101,2.3144,2.3101,2.3101,2.3387,2.3757,2.3474,2.3387,2.3671,2.3387,2.3169,2.3066,2.2886,2.2672,2.25,2.1855,2.1445,2.1269,2.1016,2.0918,2.0938,2.1225,2.1311,2.1333,2.159,2.1627,2.1389,2.0914,2.0133,1.9078,1.8728,1.8568,1.8326,1.8164,1.8008,1.8008,1.8008,1.8008,1.7969,1.7852,1.7695,1.7829,1.824,1.8372,1.8438,1.938,1.9554,1.922,1.9082,1.9017,1.8802,1.8039,1.774,1.7543,1.6883,1.6305,1.5762,1.5644,1.5469,1.541,1.543,1.541,1.541,1.5254,1.5019,1.4863,1.4562,1.4114,1.3724,1.3379,1.313,1.3091,1.3071,1.3111,1.3071,1.3047,1.3125,1.3223,1.3125,1.2935,1.2891,1.2798,1.2393,1.203,1.1516,1.0914,1.0115,0.9536,0.9185,2.8301,2.8301,2.8301,2.8301,2.8301,2.8301,2.8301,2.8125,2.7383,2.7012,2.6894,2.6103,2.5674,2.5605,2.5293,2.4941,2.4524,2.3725,2.3867,2.4355,2.4062,2.3789,2.3789,2.375,2.3574,2.3203,2.356,2.3299,2.3212,2.3474,2.393,2.4102,2.3647,2.3757,2.4082,2.38,2.3387,2.3144,2.3081,2.2867,2.2477,2.2207,2.1953,2.1855,2.1465,2.1171,2.1173,2.1327,2.1776,2.2146,2.2663,2.3148,2.3455,2.3316,2.2191,2.056,2.0017,1.9658,1.9383,1.876,1.8723,1.8897,1.8262,1.81,1.8105,1.8066,1.807,1.8327,1.8757,1.9366,1.9521,2.0311,2.0623,2.044,2.0063,1.989,1.9814,1.9393,1.8857,1.8393,1.7639,1.7014,1.6484,1.5909,1.5752,1.5586,1.5586,1.541,1.541,1.541,1.5254,1.5137,1.4844,1.4328,1.3938,1.3672,1.3477,1.3457,1.3437,1.3437,1.334,1.3242,1.3301,1.3281,1.3086,1.2915,1.2915,1.2891,1.2632,1.232,1.2005,1.1391,1.0534,0.9832,0.9406,2.8301,2.8301,2.8301,2.8301,2.8301,2.8301,2.8281,2.8164,2.7383,2.7012,2.6914,2.6103,2.5674,2.5577,2.5273,2.5273,2.5078,2.4316,2.4102,2.4707,2.416,2.3789,2.3789,2.3789,2.3535,2.3334,2.4039,2.393,2.3714,2.4168,2.4211,2.4125,2.5189,2.54,2.4296,2.451,2.4039,2.3343,2.3144,2.2906,2.2574,2.2438,2.2266,2.1934,2.1582,2.1327,2.1388,2.149,2.173,2.2294,2.2344,2.2744,2.3383,2.3898,2.3708,2.3001,2.2399,2.181,2.1444,2.0514,1.9872,1.9802,1.9067,1.8424,1.8459,1.8429,1.8488,1.911,1.9375,1.9781,2.0462,2.1227,2.125,2.1195,2.1132,2.091,2.0769,2.0245,1.9759,1.9672,1.9051,1.8006,1.7199,1.6563,1.6007,1.587,1.5703,1.5576,1.541,1.541,1.541,1.5273,1.5039,1.4551,1.4231,1.3945,1.3809,1.3782,1.3763,1.3724,1.3588,1.3457,1.3223,1.3184,1.3013,1.2974,1.3032,1.3008,1.2861,1.2652,1.232,1.1658,1.0889,1.0295,0.9718,2.8301,2.8301,2.8301,2.8301,2.8301,2.8301,2.8144,2.7832,2.7305,2.6875,2.6582,2.5966,2.5674,2.5596,2.5273,2.5312,2.5371,2.4414,2.4277,2.4793,2.4258,2.3809,2.3789,2.3769,2.3555,2.3573,2.4125,2.4575,2.451,2.5168,2.563,2.5942,2.6254,2.6543,2.542,2.5714,2.5083,2.4253,2.3497,2.3047,2.2867,2.2852,2.2773,2.2578,2.219,2.1953,2.2063,2.2849,2.3186,2.3869,2.4356,2.5143,2.5481,2.5616,2.5397,2.5226,2.4891,2.4012,2.2717,2.1818,2.1337,2.0779,2.0072,1.9643,1.9402,1.9253,1.9326,1.9966,2.0494,2.0965,2.1345,2.2094,2.2218,2.2187,2.197,2.2002,2.1667,2.091,2.0459,2.051,2.0421,1.9423,1.8375,1.7499,1.6858,1.6326,1.6128,1.5891,1.5645,1.541,1.541,1.5391,1.5098,1.4727,1.4531,1.4297,1.4075,1.4036,1.4016,1.3977,1.3841,1.3665,1.3516,1.3262,1.3111,1.3086,1.3164,1.3047,1.2886,1.2749,1.2632,1.1925,1.1216,1.0712,1.009,2.8301,2.8301,2.8301,2.8301,2.8301,2.8301,2.8047,2.7689,2.7207,2.6777,2.6367,2.5957,2.5674,2.5635,2.5449,2.5449,2.5596,2.459,2.457,2.4609,2.4277,2.3848,2.373,2.3691,2.3614,2.356,2.483,2.5462,2.6088,2.6666,2.7522,2.7763,2.7545,2.7302,2.736,2.7075,2.6337,2.5294,2.4553,2.4211,2.4061,2.3737,2.3823,2.3596,2.314,2.2627,2.3096,2.3714,2.4412,2.5079,2.6009,2.6688,2.7083,2.6781,2.6586,2.6422,2.6198,2.5522,2.4246,2.326,2.25,2.1976,2.1374,2.1032,2.0612,2.0471,2.0781,2.1401,2.1623,2.2076,2.2473,2.2886,2.2823,2.2732,2.258,2.2763,2.2768,2.1947,2.151,2.1588,2.1502,2.1055,1.9966,1.8723,1.7801,1.7011,1.6598,1.6356,1.6018,1.5771,1.5527,1.5547,1.5293,1.5019,1.4902,1.4679,1.4465,1.4348,1.4348,1.4289,1.4211,1.4102,1.3965,1.3652,1.3281,1.3379,1.3529,1.3223,1.291,1.2934,1.2844,1.2228,1.1584,1.1057,1.0295,2.8301,2.8301,2.8301,2.8301,2.8301,2.8301,2.8047,2.763,2.7187,2.6758,2.6309,2.5957,2.5674,2.5654,2.5635,2.5596,2.5654,2.5195,2.5086,2.4793,2.4304,2.3848,2.3736,2.3678,2.3794,2.4638,2.5755,2.6871,2.7787,2.841,2.8051,2.7058,2.8435,2.7971,2.7666,2.7626,2.7302,2.6461,2.5922,2.5861,2.563,2.5294,2.5126,2.5292,2.4011,2.2946,2.3991,2.4185,2.457,2.5379,2.6486,2.7336,2.7837,2.7519,2.7278,2.7077,2.6801,2.6283,2.5581,2.4781,2.4411,2.4179,2.3474,2.2399,2.2035,2.2002,2.2433,2.2963,2.2975,2.3118,2.3349,2.3496,2.3296,2.316,2.3008,2.2944,2.3005,2.2975,2.2586,2.2732,2.2488,2.197,2.1698,2.0469,1.9165,1.8341,1.785,1.7568,1.6846,1.6427,1.5929,1.5693,1.5478,1.5332,1.5352,1.5176,1.4952,1.4913,1.4913,1.4824,1.4687,1.4531,1.4316,1.3977,1.3665,1.3802,1.3841,1.3574,1.3359,1.334,1.3067,1.2407,1.1584,1.083,1.0064,2.8301,2.8301,2.8301,2.8301,2.8301,2.8301,2.791,2.7305,2.709,2.6621,2.5996,2.5752,2.5674,2.5674,2.5674,2.5674,2.5615,2.5273,2.5137,2.4785,2.4297,2.3867,2.3811,2.4122,2.4425,2.5168,2.6502,2.7562,2.8084,2.9223,2.9365,2.9091,2.9365,2.9248,2.8831,2.8227,2.7827,2.7504,2.6871,2.6524,2.64,2.6213,2.6047,2.6191,2.5061,2.4577,2.5389,2.5401,2.6004,2.6744,2.7503,2.8137,2.8412,2.8035,2.767,2.7404,2.7077,2.6826,2.6524,2.5871,2.5526,2.4744,2.3973,2.3319,2.3432,2.342,2.3708,2.4016,2.4083,2.4161,2.4247,2.3998,2.3678,2.3547,2.3396,2.3221,2.3095,2.3095,2.3065,2.2944,2.2914,2.2702,2.2525,2.2292,2.0958,1.9736,1.9276,1.8738,1.7977,1.7246,1.6775,1.625,1.6041,1.5729,1.5709,1.5584,1.5439,1.5439,1.5468,1.5195,1.4989,1.4813,1.4551,1.425,1.4094,1.4192,1.4133,1.3926,1.375,1.3594,1.3181,1.2616,1.1701,1.0728,1.0012,2.8223,2.8105,2.8105,2.8105,2.8105,2.8105,2.7617,2.6934,2.6973,2.6641,2.5869,2.5771,2.5674,2.5674,2.5674,2.5674,2.5615,2.5449,2.5332,2.5039,2.4629,2.4219,2.4371,2.4717,2.5146,2.5804,2.6976,2.8084,2.8164,2.9287,2.9248,2.9248,2.9624,2.9663,2.9546,2.9106,2.8585,2.8371,2.8011,2.7464,2.7545,2.718,2.7342,2.7139,2.5878,2.5712,2.6457,2.6798,2.7042,2.7854,2.8558,2.9049,2.8963,2.8649,2.8097,2.7695,2.7344,2.7077,2.6675,2.6405,2.6164,2.5546,2.504,2.4755,2.4773,2.4885,2.5114,2.5228,2.5169,2.5034,2.5008,2.4582,2.4079,2.3929,2.3728,2.3496,2.3195,2.3095,2.3095,2.3065,2.3035,2.3005,2.2944,2.2768,2.211,2.0873,2.0158,1.9696,1.9206,1.8487,1.7781,1.724,1.675,1.641,1.6112,1.6095,1.605,1.5816,1.5738,1.537,1.5117,1.5057,1.4998,1.4805,1.466,1.4621,1.4492,1.4297,1.4016,1.3743,1.3278,1.2772,1.1907,1.0965,1.032,2.8047,2.7748,2.7728,2.7728,2.7689,2.7728,2.7278,2.673,2.6968,2.678,2.626,2.5947,2.5791,2.5742,2.5674,2.5674,2.5674,2.5635,2.5596,2.5469,2.5243,2.5063,2.5197,2.5482,2.6234,2.704,2.7947,2.845,2.8379,2.9287,2.9209,2.8988,2.9404,2.9779,2.9779,2.9779,2.974,2.9702,2.9546,2.939,2.9131,2.849,2.8609,2.845,2.6953,2.6584,2.7666,2.7626,2.7827,2.8418,2.9213,2.9565,2.9553,2.9176,2.8674,2.8147,2.767,2.7178,2.66,2.6524,2.6371,2.6267,2.5791,2.5951,2.6252,2.6296,2.6177,2.6021,2.5871,2.5611,2.541,2.5109,2.4632,2.433,2.4155,2.3778,2.3502,2.3346,2.3396,2.317,2.3095,2.3095,2.3095,2.3015,2.276,2.2007,2.1167,2.0626,2.0294,1.9727,1.9012,1.8436,1.7851,1.7348,1.7024,1.6785,1.6636,1.6374,1.6321,1.6279,1.5956,1.5818,1.568,1.538,1.5117,1.4941,1.4796,1.4679,1.4387,1.4055,1.3477,1.2888,1.2022,1.1318,1.0724,2.7793,2.7689,2.7363,2.707,2.6875,2.7129,2.7207,2.7353,2.7563,2.712,2.627,2.6516,2.638,2.5965,2.5771,2.5771,2.5742,2.5674,2.5674,2.5741,2.5812,2.5732,2.6014,2.6802,2.752,2.8245,2.8923,2.9352,2.9831,2.9863,2.9649,2.9443,2.9482,2.974,2.9779,2.9779,2.9779,2.9779,2.974,2.974,2.974,2.9404,2.9326,2.9702,2.7947,2.7827,2.891,2.841,2.841,2.8949,2.9702,2.974,2.9779,2.9453,2.9202,2.8737,2.8323,2.7921,2.7228,2.6776,2.6499,2.6499,2.6499,2.6499,2.6499,2.6499,2.6474,2.6474,2.6298,2.6122,2.6122,2.5636,2.5209,2.5034,2.4732,2.418,2.3853,2.3873,2.3822,2.3346,2.3095,2.3095,2.3095,2.3095,2.292,2.2869,2.2121,2.1843,2.157,2.099,2.0346,1.9738,1.9148,1.8504,1.8042,1.7998,1.7832,1.7605,1.7793,1.8032,1.7578,1.6723,1.6217,1.5891,1.5537,1.5215,1.5098,1.4961,1.4746,1.4375,1.3965,1.3607,1.3105,1.2252,1.1314,2.7578,2.7402,2.6973,2.6641,2.6445,2.668,2.6973,2.7306,2.7713,2.7186,2.6475,2.7494,2.7531,2.6696,2.6332,2.6332,2.6332,2.638,2.638,2.6444,2.7033,2.7174,2.7502,2.8133,2.8785,2.9364,2.9681,3.0124,2.9754,2.9835,2.9752,2.9702,2.9779,2.9779,2.9779,2.9779,2.9779,2.9779,2.9779,2.9779,2.9779,2.9702,2.974,2.9624,2.9145,2.9028,2.9365,2.9287,2.8988,2.9585,2.9779,2.9779,2.9779,2.9729,2.9503,2.9063,2.8386,2.8097,2.757,2.6826,2.665,2.6826,2.6625,2.6499,2.6499,2.6499,2.6499,2.6499,2.6499,2.6474,2.6399,2.5912,2.5762,2.5561,2.5234,2.4714,2.433,2.4324,2.4048,2.3572,2.3195,2.317,2.3095,2.3095,2.3045,2.307,2.3035,2.2819,2.2598,2.1982,2.148,2.099,2.0514,2.0006,1.9616,1.946,1.922,1.8881,1.9029,1.9329,1.8218,1.7229,1.6799,1.6317,1.5743,1.5352,1.5332,1.5195,1.5039,1.4941,1.4766,1.4445,1.4165,1.3201,1.2057,2.7363,2.6953,2.6543,2.6367,2.6367,2.6367,2.6436,2.6546,2.7325,2.727,2.6715,2.8578,2.8588,2.7814,2.7626,2.7626,2.7626,2.7626,2.7563,2.7917,2.8492,2.8656,2.8989,2.9652,3.0049,3.0077,3.0172,3.0164,2.9253,2.9534,2.9804,2.9779,2.9779,2.9779,2.9779,2.9779,2.9779,2.9779,2.9779,2.9779,2.9779,2.9779,2.9779,2.9702,2.9624,2.956,2.9702,2.9624,2.9624,2.9779,2.9779,2.9779,2.9779,2.9779,2.9428,2.89,2.8072,2.7971,2.7946,2.7253,2.7027,2.7228,2.6952,2.6675,2.6499,2.6499,2.6499,2.6499,2.6499,2.6499,2.6424,2.6298,2.6197,2.5971,2.5737,2.5285,2.4858,2.4607,2.4305,2.3904,2.3471,2.3296,2.3145,2.3095,2.3221,2.3095,2.3095,2.307,2.2819,2.2644,2.2228,2.2154,2.1753,2.1517,2.1182,2.0806,2.0559,2.022,2.0111,2.0118,1.8917,1.7986,1.7486,1.6898,1.594,1.5508,1.5566,1.5508,1.5391,1.5312,1.5254,1.4972,1.4593,1.3782,1.2767,2.668,2.6523,2.6113,2.5869,2.5869,2.5918,2.6386,2.7284,2.7792,2.8115,2.8596,2.9117,2.9235,2.8912,2.8866,2.8844,2.8866,2.8822,2.8602,2.8947,2.962,2.9581,2.991,3.0495,3.1048,3.1083,3.0876,3.0583,3.0487,3.0306,2.9804,2.9779,2.9779,2.9779,2.9779,2.9779,2.9779,2.9779,2.9779,2.9779,2.9779,2.9779,2.9779,2.9779,2.9779,2.9779,2.9779,2.9779,2.9779,2.9779,2.9779,2.9779,2.9779,2.9779,2.9628,2.9528,2.8925,2.8512,2.8512,2.8021,2.767,2.777,2.7645,2.7153,2.6801,2.6575,2.6575,2.66,2.6524,2.6499,2.6499,2.6424,2.6373,2.6248,2.6072,2.5845,2.541,2.5109,2.4808,2.4356,2.3923,2.3647,2.3446,2.3321,2.3396,2.3221,2.312,2.3145,2.3045,2.2844,2.2744,2.2698,2.2619,2.2235,2.2204,2.1874,2.1753,2.1625,2.1404,2.1164,2.0549,1.9643,1.8542,1.7474,1.6407,1.5979,1.5909,1.5801,1.5742,1.5684,1.5625,1.5371,1.4983,1.4261,1.3502,2.6387,2.6328,2.5918,2.5674,2.5674,2.5674,2.6428,2.752,2.7846,2.8284,2.8795,2.9715,3.0079,3.0078,2.9895,2.9849,3.0056,2.9574,2.9345,2.9725,3.0505,3.0429,3.0687,3.1224,3.1597,3.1587,3.126,3.0944,3.0884,3.0331,2.9779,2.9779,2.9779,2.9779,2.9779,2.9779,2.9779,2.9779,2.9779,2.9779,2.9779,2.9779,2.9779,2.9779,2.9779,2.9779,2.9779,2.9779,2.9779,2.9779,2.9779,2.9779,2.9779,2.9779,2.9779,2.9628,2.9164,2.9013,2.9038,2.8473,2.8323,2.8298,2.8247,2.777,2.7344,2.7102,2.6977,2.6876,2.665,2.6499,2.6499,2.6474,2.6474,2.6474,2.6399,2.6323,2.6047,2.5711,2.531,2.4858,2.4506,2.4173,2.3948,2.3797,2.3672,2.3627,2.3471,2.3346,2.3246,2.302,2.297,2.2945,2.294,2.283,2.2793,2.2671,2.2512,2.2384,2.2474,2.2189,2.1896,2.0911,1.9486,1.8132,1.684,1.6545,1.6289,1.6191,1.6083,1.6094,1.6133,1.5996,1.5663,1.5148,1.4347,2.6328,2.6289,2.5849,2.582,2.5868,2.5771,2.6428,2.7484,2.7369,2.7652,2.8402,3.0079,3.1,3.1175,3.1045,3.1069,3.1093,3.0735,3.0544,3.0548,3.1577,3.1597,3.134,3.2114,3.2014,3.1361,3.0959,3.1009,3.0507,3.0055,2.9779,2.9779,2.9779,2.9779,2.9779,2.9779,2.9779,2.9779,2.9779,2.9779,2.9779,2.9779,2.9779,2.9779,2.9779,2.9779,2.9779,2.9779,2.9779,2.9779,2.9779,2.9779,2.9779,2.9779,2.9779,2.9704,2.9352,2.9402,2.9377,2.895,2.88,2.8699,2.8549,2.8423,2.8172,2.762,2.7394,2.7318,2.7203,2.7077,2.7077,2.6876,2.6776,2.67,2.6575,2.6474,2.6298,2.6021,2.5661,2.5259,2.5008,2.4707,2.4449,2.4274,2.423,2.4104,2.4004,2.3797,2.3647,2.3446,2.3246,2.3246,2.309,2.306,2.3005,2.2944,2.3005,2.3035,2.309,2.2914,2.236,2.1402,2.0303,1.8672,1.7083,1.688,1.6687,1.6551,1.6492,1.6629,1.6648,1.6648,1.6325,1.5866,1.5242,2.5849,2.5849,2.5732,2.6255,2.6935,2.611,2.6428,2.7463,2.6189,2.7501,2.9852,3.0124,3.0909,3.2198,3.2161,3.2185,3.2204,3.1779,3.2017,3.1882,3.2406,3.1989,3.1537,3.224,3.2139,3.1637,3.121,3.0859,3.0206,2.988,2.9779,2.9779,2.9779,2.9779,2.9779,2.9779,2.9779,2.9779,2.9779,2.9779,2.9779,2.9779,2.9779,2.9779,2.9779,2.9779,2.9779,2.9779,2.9779,2.9779,2.9779,2.9779,2.9779,2.9779,2.9779,2.9754,2.9628,2.9654,2.9603,2.9428,2.9377,2.9428,2.9377,2.9402,2.9076,2.8348,2.7921,2.7871,2.777,2.767,2.7544,2.7304,2.7052,2.6927,2.6776,2.665,2.6524,2.6248,2.5963,2.5737,2.5485,2.5259,2.5008,2.4883,2.4757,2.4682,2.4632,2.4499,2.4424,2.4249,2.3722,2.3597,2.3246,2.317,2.317,2.3221,2.3296,2.3195,2.317,2.2969,2.2763,2.1643,2.0396,1.8732,1.7368,1.7304,1.7167,1.6855,1.6875,1.7077,1.7077,1.7019,1.6882,1.6461,1.5946,2.5674,2.5674,2.5674,2.611,2.6628,2.6323,2.6418,2.6601,2.6357,2.7668,2.9711,2.935,3.0097,3.2105,3.234,3.2416,3.239,3.229,3.193,3.1997,3.234,3.1838,3.1913,3.2164,3.1461,3.1009,3.0733,3.0281,2.9854,2.9779,2.9779,2.9779,2.9779,2.9779,2.9779,2.9779,2.9779,2.9779,2.9779,2.9779,2.9779,2.9779,2.9779,2.9779,2.9779,2.9779,2.9779,2.9779,2.9779,2.9779,2.9779,2.9779,2.9779,2.9779,2.9779,2.9779,2.9754,2.9779,2.9779,2.9779,2.9779,2.9779,2.9779,2.9628,2.9628,2.8976,2.8725,2.8599,2.8072,2.7921,2.7896,2.7695,2.7394,2.7228,2.7052,2.6901,2.6675,2.6399,2.6248,2.6172,2.6021,2.5971,2.582,2.5762,2.5586,2.5209,2.5159,2.4983,2.4958,2.5008,2.4474,2.4123,2.3898,2.3622,2.3627,2.3627,2.3597,2.3446,2.3246,2.3085,2.2823,2.1701,2.0449,1.9341,1.8459,1.7978,1.777,1.7396,1.7344,1.7564,1.7486,1.7369,1.7194,1.7077,1.6798,2.5479,2.5518,2.5499,2.5643,2.5825,2.6341,2.6455,2.6263,2.7097,2.7964,2.8651,2.8287,2.9385,3.0762,3.1411,3.1436,3.1612,3.1938,3.1687,3.1913,3.2265,3.1838,3.1662,3.1662,3.116,3.0557,3.0105,2.998,2.9804,2.9779,2.9779,2.9779,2.9779,2.9779,2.9779,2.9779,2.9779,2.9779,2.9779,2.9779,2.9779,2.9779,2.9779,2.9779,2.9779,2.9779,2.9779,2.9779,2.9779,2.9779,2.9779,2.9779,2.9779,2.9779,2.9779,2.9779,2.9779,2.9779,2.9779,2.9779,2.9779,2.9779,2.9779,2.9779,2.9779,2.9654,2.9377,2.9101,2.8574,2.8373,2.8348,2.8172,2.7896,2.7469,2.7293,2.7052,2.6751,2.6499,2.6474,2.6449,2.6449,2.6424,2.6424,2.6449,2.6223,2.5812,2.5586,2.5385,2.5259,2.5385,2.5234,2.5059,2.4958,2.4632,2.413,2.4079,2.4079,2.3572,2.3346,2.3221,2.2934,2.2118,2.1416,2.0742,1.9943,1.8965,1.8355,1.7955,1.8012,1.7969,1.7832,1.7642,1.7642,1.7564,1.7623,2.4668,2.4621,2.4668,2.5205,2.6103,2.6226,2.6698,2.7369,2.728,2.7785,2.8482,2.8486,2.9326,3.1361,3.1386,3.1461,3.1687,3.1888,3.2416,3.2792,3.2616,3.2039,3.1562,3.1461,3.1311,3.0658,2.998,2.9804,2.9779,2.9779,2.9779,2.9779,2.9779,2.9779,2.9779,2.9779,2.9779,2.9779,2.9779,2.9779,2.9779,2.9779,2.9779,2.9779,2.9779,2.9779,2.9779,2.9779,2.9779,2.9779,2.9779,2.9779,2.9779,2.9779,2.9779,2.9779,2.9779,2.9779,2.9779,2.9779,2.9779,2.9779,2.9779,2.9779,2.9779,2.9779,2.9628,2.9628,2.9277,2.9277,2.9227,2.89,2.8574,2.7871,2.7469,2.7027,2.665,2.6524,2.6474,2.6474,2.6474,2.6474,2.6474,2.6474,2.6449,2.6197,2.6197,2.5996,2.5946,2.5946,2.5896,2.5845,2.5795,2.5091,2.4337,2.4556,2.4474,2.3923,2.3547,2.3547,2.3356,2.2851,2.2178,2.1716,2.0695,1.9592,1.9047,1.8717,1.8256,1.8174,1.8061,1.7949,1.7969,1.7949,1.7891]}]]